<?xml version="1.0" encoding="UTF-8" standalone="no" ?>
<gpx xmlns="http://www.topografix.com/GPX/1/1" xmlns:xsi="http://www.w3.org/2001/XMLSchema-instance" xsi:schemaLocation="http://www.topografix.com/GPX/1/1 http://www.topografix.com/GPX/1/1/gpx.xsd" version="1.1" creator="VisuGPX - https://www.visugpx.com">
  <metadata>
    <name>De Meillerie à Salvigny</name>
    <desc><![CDATA[Randonnée en Haute-Savoie]]></desc>
  </metadata>
  <trk>
    <name><![CDATA[ACTIVE LOG: 25 JUL 2015 14:27]]></name>
    <trkseg>
      <trkpt lat="46.40773" lon="6.71851">
        <ele>383.7</ele>
        <time>2015-07-25T12:27:00Z</time>
      </trkpt>
      <trkpt lat="46.40733" lon="6.71859">
        <ele>391.87</ele>
        <time>2015-07-25T12:28:05Z</time>
      </trkpt>
      <trkpt lat="46.40689" lon="6.71813">
        <ele>402.93</ele>
        <time>2015-07-25T12:29:10Z</time>
      </trkpt>
      <trkpt lat="46.40646" lon="6.71785">
        <ele>413.5</ele>
        <time>2015-07-25T12:30:15Z</time>
      </trkpt>
      <trkpt lat="46.40619" lon="6.71824">
        <ele>424.56</ele>
        <time>2015-07-25T12:31:20Z</time>
      </trkpt>
      <trkpt lat="46.40595" lon="6.71851">
        <ele>433.69</ele>
        <time>2015-07-25T12:32:25Z</time>
      </trkpt>
      <trkpt lat="46.4059" lon="6.71849">
        <ele>434.17</ele>
        <time>2015-07-25T12:33:30Z</time>
      </trkpt>
      <trkpt lat="46.40558" lon="6.71897">
        <ele>446.19</ele>
        <time>2015-07-25T12:34:35Z</time>
      </trkpt>
      <trkpt lat="46.40542" lon="6.71973">
        <ele>451.96</ele>
        <time>2015-07-25T12:35:40Z</time>
      </trkpt>
      <trkpt lat="46.40533" lon="6.72025">
        <ele>456.28</ele>
        <time>2015-07-25T12:36:45Z</time>
      </trkpt>
      <trkpt lat="46.40517" lon="6.72111">
        <ele>465.42</ele>
        <time>2015-07-25T12:37:50Z</time>
      </trkpt>
      <trkpt lat="46.40503" lon="6.72193">
        <ele>474.55</ele>
        <time>2015-07-25T12:38:55Z</time>
      </trkpt>
      <trkpt lat="46.40485" lon="6.72244">
        <ele>477.43</ele>
        <time>2015-07-25T12:40:00Z</time>
      </trkpt>
      <trkpt lat="46.40495" lon="6.72277">
        <ele>468.78</ele>
        <time>2015-07-25T12:41:05Z</time>
      </trkpt>
      <trkpt lat="46.40434" lon="6.72308">
        <ele>466.38</ele>
        <time>2015-07-25T12:42:10Z</time>
      </trkpt>
      <trkpt lat="46.40464" lon="6.72335">
        <ele>475.03</ele>
        <time>2015-07-25T12:43:15Z</time>
      </trkpt>
      <trkpt lat="46.40468" lon="6.72371">
        <ele>482.72</ele>
        <time>2015-07-25T12:44:20Z</time>
      </trkpt>
      <trkpt lat="46.40471" lon="6.72404">
        <ele>490.41</ele>
        <time>2015-07-25T12:45:25Z</time>
      </trkpt>
      <trkpt lat="46.40464" lon="6.72412">
        <ele>500.5</ele>
        <time>2015-07-25T12:46:30Z</time>
      </trkpt>
      <trkpt lat="46.40454" lon="6.72414">
        <ele>509.64</ele>
        <time>2015-07-25T12:47:35Z</time>
      </trkpt>
      <trkpt lat="46.40455" lon="6.72443">
        <ele>519.73</ele>
        <time>2015-07-25T12:48:40Z</time>
      </trkpt>
      <trkpt lat="46.40439" lon="6.7242">
        <ele>526.94</ele>
        <time>2015-07-25T12:49:45Z</time>
      </trkpt>
      <trkpt lat="46.40415" lon="6.72398">
        <ele>535.59</ele>
        <time>2015-07-25T12:50:50Z</time>
      </trkpt>
      <trkpt lat="46.40412" lon="6.72455">
        <ele>543.28</ele>
        <time>2015-07-25T12:51:55Z</time>
      </trkpt>
      <trkpt lat="46.40426" lon="6.72506">
        <ele>553.38</ele>
        <time>2015-07-25T12:53:00Z</time>
      </trkpt>
      <trkpt lat="46.4042" lon="6.72553">
        <ele>564.43</ele>
        <time>2015-07-25T12:54:05Z</time>
      </trkpt>
      <trkpt lat="46.40412" lon="6.72602">
        <ele>575.01</ele>
        <time>2015-07-25T12:55:10Z</time>
      </trkpt>
      <trkpt lat="46.40413" lon="6.72643">
        <ele>581.25</ele>
        <time>2015-07-25T12:56:15Z</time>
      </trkpt>
      <trkpt lat="46.40406" lon="6.72656">
        <ele>590.87</ele>
        <time>2015-07-25T12:57:20Z</time>
      </trkpt>
      <trkpt lat="46.40382" lon="6.72613">
        <ele>599.04</ele>
        <time>2015-07-25T12:58:25Z</time>
      </trkpt>
      <trkpt lat="46.40371" lon="6.72559">
        <ele>606.73</ele>
        <time>2015-07-25T12:59:30Z</time>
      </trkpt>
      <trkpt lat="46.40356" lon="6.72513">
        <ele>614.9</ele>
        <time>2015-07-25T13:00:35Z</time>
      </trkpt>
      <trkpt lat="46.40334" lon="6.72499">
        <ele>620.67</ele>
        <time>2015-07-25T13:01:40Z</time>
      </trkpt>
      <trkpt lat="46.40345" lon="6.7256">
        <ele>629.32</ele>
        <time>2015-07-25T13:02:45Z</time>
      </trkpt>
      <trkpt lat="46.4035" lon="6.72619">
        <ele>639.89</ele>
        <time>2015-07-25T13:03:50Z</time>
      </trkpt>
      <trkpt lat="46.40345" lon="6.72684">
        <ele>649.99</ele>
        <time>2015-07-25T13:04:55Z</time>
      </trkpt>
      <trkpt lat="46.40349" lon="6.72693">
        <ele>651.43</ele>
        <time>2015-07-25T13:06:00Z</time>
      </trkpt>
      <trkpt lat="46.40339" lon="6.72686">
        <ele>650.47</ele>
        <time>2015-07-25T13:07:05Z</time>
      </trkpt>
      <trkpt lat="46.40315" lon="6.72632">
        <ele>660.56</ele>
        <time>2015-07-25T13:08:10Z</time>
      </trkpt>
      <trkpt lat="46.403" lon="6.7267">
        <ele>669.7</ele>
        <time>2015-07-25T13:09:15Z</time>
      </trkpt>
      <trkpt lat="46.40297" lon="6.72715">
        <ele>679.79</ele>
        <time>2015-07-25T13:10:20Z</time>
      </trkpt>
      <trkpt lat="46.40299" lon="6.72711">
        <ele>678.35</ele>
        <time>2015-07-25T13:11:25Z</time>
      </trkpt>
      <trkpt lat="46.40293" lon="6.72701">
        <ele>683.15</ele>
        <time>2015-07-25T13:12:30Z</time>
      </trkpt>
      <trkpt lat="46.40275" lon="6.72671">
        <ele>689.88</ele>
        <time>2015-07-25T13:13:35Z</time>
      </trkpt>
      <trkpt lat="46.40262" lon="6.72638">
        <ele>696.61</ele>
        <time>2015-07-25T13:14:40Z</time>
      </trkpt>
      <trkpt lat="46.40254" lon="6.72664">
        <ele>705.75</ele>
        <time>2015-07-25T13:15:45Z</time>
      </trkpt>
      <trkpt lat="46.40255" lon="6.72714">
        <ele>714.4</ele>
        <time>2015-07-25T13:16:50Z</time>
      </trkpt>
      <trkpt lat="46.40249" lon="6.72677">
        <ele>719.68</ele>
        <time>2015-07-25T13:17:55Z</time>
      </trkpt>
      <trkpt lat="46.40228" lon="6.72676">
        <ele>728.82</ele>
        <time>2015-07-25T13:19:00Z</time>
      </trkpt>
      <trkpt lat="46.40215" lon="6.72719">
        <ele>737.47</ele>
        <time>2015-07-25T13:20:05Z</time>
      </trkpt>
      <trkpt lat="46.40212" lon="6.72782">
        <ele>743.24</ele>
        <time>2015-07-25T13:21:10Z</time>
      </trkpt>
      <trkpt lat="46.40183" lon="6.72836">
        <ele>749.97</ele>
        <time>2015-07-25T13:22:15Z</time>
      </trkpt>
      <trkpt lat="46.40155" lon="6.72875">
        <ele>757.18</ele>
        <time>2015-07-25T13:23:20Z</time>
      </trkpt>
      <trkpt lat="46.40119" lon="6.72905">
        <ele>766.79</ele>
        <time>2015-07-25T13:24:25Z</time>
      </trkpt>
      <trkpt lat="46.40087" lon="6.72932">
        <ele>773.04</ele>
        <time>2015-07-25T13:25:30Z</time>
      </trkpt>
      <trkpt lat="46.40087" lon="6.72936">
        <ele>774</ele>
        <time>2015-07-25T13:26:35Z</time>
      </trkpt>
      <trkpt lat="46.40096" lon="6.72933">
        <ele>774</ele>
        <time>2015-07-25T13:27:40Z</time>
      </trkpt>
      <trkpt lat="46.40086" lon="6.72937">
        <ele>775.44</ele>
        <time>2015-07-25T13:28:45Z</time>
      </trkpt>
      <trkpt lat="46.40063" lon="6.72967">
        <ele>785.53</ele>
        <time>2015-07-25T13:29:50Z</time>
      </trkpt>
      <trkpt lat="46.40034" lon="6.72993">
        <ele>791.78</ele>
        <time>2015-07-25T13:30:55Z</time>
      </trkpt>
      <trkpt lat="46.40018" lon="6.72988">
        <ele>799.47</ele>
        <time>2015-07-25T13:32:00Z</time>
      </trkpt>
      <trkpt lat="46.39985" lon="6.72974">
        <ele>808.13</ele>
        <time>2015-07-25T13:33:05Z</time>
      </trkpt>
      <trkpt lat="46.39939" lon="6.7298">
        <ele>817.26</ele>
        <time>2015-07-25T13:34:10Z</time>
      </trkpt>
      <trkpt lat="46.39906" lon="6.72963">
        <ele>824.47</ele>
        <time>2015-07-25T13:35:15Z</time>
      </trkpt>
      <trkpt lat="46.39879" lon="6.72959">
        <ele>831.68</ele>
        <time>2015-07-25T13:36:20Z</time>
      </trkpt>
      <trkpt lat="46.39857" lon="6.72938">
        <ele>836.48</ele>
        <time>2015-07-25T13:37:25Z</time>
      </trkpt>
      <trkpt lat="46.39837" lon="6.72903">
        <ele>845.14</ele>
        <time>2015-07-25T13:38:30Z</time>
      </trkpt>
      <trkpt lat="46.3983" lon="6.72891">
        <ele>847.06</ele>
        <time>2015-07-25T13:39:35Z</time>
      </trkpt>
      <trkpt lat="46.39796" lon="6.72887">
        <ele>853.31</ele>
        <time>2015-07-25T13:40:40Z</time>
      </trkpt>
      <trkpt lat="46.39768" lon="6.72909">
        <ele>865.32</ele>
        <time>2015-07-25T13:41:45Z</time>
      </trkpt>
      <trkpt lat="46.39742" lon="6.72932">
        <ele>875.42</ele>
        <time>2015-07-25T13:42:50Z</time>
      </trkpt>
      <trkpt lat="46.39702" lon="6.72942">
        <ele>888.4</ele>
        <time>2015-07-25T13:43:55Z</time>
      </trkpt>
      <trkpt lat="46.39674" lon="6.72945">
        <ele>898.97</ele>
        <time>2015-07-25T13:45:00Z</time>
      </trkpt>
      <trkpt lat="46.39658" lon="6.72979">
        <ele>909.54</ele>
        <time>2015-07-25T13:46:05Z</time>
      </trkpt>
      <trkpt lat="46.3965" lon="6.7301">
        <ele>920.12</ele>
        <time>2015-07-25T13:47:10Z</time>
      </trkpt>
      <trkpt lat="46.39631" lon="6.73018">
        <ele>922.04</ele>
        <time>2015-07-25T13:48:15Z</time>
      </trkpt>
      <trkpt lat="46.39643" lon="6.73018">
        <ele>922.04</ele>
        <time>2015-07-25T13:49:20Z</time>
      </trkpt>
      <trkpt lat="46.39647" lon="6.73013">
        <ele>921.56</ele>
        <time>2015-07-25T13:50:25Z</time>
      </trkpt>
      <trkpt lat="46.39603" lon="6.7303">
        <ele>928.29</ele>
        <time>2015-07-25T13:51:30Z</time>
      </trkpt>
      <trkpt lat="46.39574" lon="6.73043">
        <ele>938.38</ele>
        <time>2015-07-25T13:52:35Z</time>
      </trkpt>
      <trkpt lat="46.39561" lon="6.73066">
        <ele>950.88</ele>
        <time>2015-07-25T13:53:40Z</time>
      </trkpt>
      <trkpt lat="46.39555" lon="6.73062">
        <ele>956.65</ele>
        <time>2015-07-25T13:54:45Z</time>
      </trkpt>
      <trkpt lat="46.39543" lon="6.73087">
        <ele>958.57</ele>
        <time>2015-07-25T13:55:50Z</time>
      </trkpt>
      <trkpt lat="46.39544" lon="6.73096">
        <ele>960.49</ele>
        <time>2015-07-25T13:56:55Z</time>
      </trkpt>
      <trkpt lat="46.39539" lon="6.73122">
        <ele>962.9</ele>
        <time>2015-07-25T13:58:00Z</time>
      </trkpt>
      <trkpt lat="46.39526" lon="6.73162">
        <ele>966.26</ele>
        <time>2015-07-25T13:59:05Z</time>
      </trkpt>
      <trkpt lat="46.39495" lon="6.73195">
        <ele>973.47</ele>
        <time>2015-07-25T14:00:10Z</time>
      </trkpt>
      <trkpt lat="46.39462" lon="6.73253">
        <ele>980.68</ele>
        <time>2015-07-25T14:01:15Z</time>
      </trkpt>
      <trkpt lat="46.39441" lon="6.73297">
        <ele>983.57</ele>
        <time>2015-07-25T14:02:20Z</time>
      </trkpt>
      <trkpt lat="46.39422" lon="6.7329">
        <ele>984.53</ele>
        <time>2015-07-25T14:03:25Z</time>
      </trkpt>
      <trkpt lat="46.39445" lon="6.73312">
        <ele>985.97</ele>
        <time>2015-07-25T14:04:30Z</time>
      </trkpt>
      <trkpt lat="46.39426" lon="6.73336">
        <ele>988.85</ele>
        <time>2015-07-25T14:05:35Z</time>
      </trkpt>
      <trkpt lat="46.39388" lon="6.73357">
        <ele>991.74</ele>
        <time>2015-07-25T14:06:40Z</time>
      </trkpt>
      <trkpt lat="46.39388" lon="6.73357">
        <ele>992.22</ele>
        <time>2015-07-25T14:07:45Z</time>
      </trkpt>
      <trkpt lat="46.39371" lon="6.73386">
        <ele>994.14</ele>
        <time>2015-07-25T14:08:50Z</time>
      </trkpt>
      <trkpt lat="46.39318" lon="6.73429">
        <ele>998.95</ele>
        <time>2015-07-25T14:09:55Z</time>
      </trkpt>
      <trkpt lat="46.39266" lon="6.73422">
        <ele>1002.31</ele>
        <time>2015-07-25T14:11:00Z</time>
      </trkpt>
      <trkpt lat="46.39238" lon="6.73421">
        <ele>1004.23</ele>
        <time>2015-07-25T14:12:05Z</time>
      </trkpt>
      <trkpt lat="46.3921" lon="6.73423">
        <ele>1010.96</ele>
        <time>2015-07-25T14:13:10Z</time>
      </trkpt>
      <trkpt lat="46.392" lon="6.73392">
        <ele>1011.44</ele>
        <time>2015-07-25T14:14:15Z</time>
      </trkpt>
      <trkpt lat="46.39201" lon="6.73355">
        <ele>1014.33</ele>
        <time>2015-07-25T14:15:20Z</time>
      </trkpt>
      <trkpt lat="46.39163" lon="6.73338">
        <ele>1023.94</ele>
        <time>2015-07-25T14:16:25Z</time>
      </trkpt>
      <trkpt lat="46.39132" lon="6.73313">
        <ele>1031.15</ele>
        <time>2015-07-25T14:17:30Z</time>
      </trkpt>
      <trkpt lat="46.39143" lon="6.73236">
        <ele>1036.44</ele>
        <time>2015-07-25T14:18:35Z</time>
      </trkpt>
      <trkpt lat="46.39159" lon="6.73153">
        <ele>1040.76</ele>
        <time>2015-07-25T14:19:40Z</time>
      </trkpt>
      <trkpt lat="46.39158" lon="6.73089">
        <ele>1043.17</ele>
        <time>2015-07-25T14:20:45Z</time>
      </trkpt>
      <trkpt lat="46.39155" lon="6.73073">
        <ele>1044.61</ele>
        <time>2015-07-25T14:20:59Z</time>
      </trkpt>
    </trkseg>
  </trk>
  <trk>
    <name><![CDATA[ACTIVE LOG: 26 JUL 2015 08:37]]></name>
    <trkseg>
      <trkpt lat="46.39138" lon="6.73061">
        <ele>1041.25</ele>
        <time>2015-07-26T06:37:38Z</time>
      </trkpt>
      <trkpt lat="46.39144" lon="6.72981">
        <ele>1042.69</ele>
        <time>2015-07-26T06:38:43Z</time>
      </trkpt>
      <trkpt lat="46.39134" lon="6.7287">
        <ele>1045.09</ele>
        <time>2015-07-26T06:39:48Z</time>
      </trkpt>
      <trkpt lat="46.39123" lon="6.72947">
        <ele>1048.94</ele>
        <time>2015-07-26T06:40:53Z</time>
      </trkpt>
      <trkpt lat="46.39087" lon="6.7304">
        <ele>1054.7</ele>
        <time>2015-07-26T06:41:58Z</time>
      </trkpt>
      <trkpt lat="46.39048" lon="6.73103">
        <ele>1063.36</ele>
        <time>2015-07-26T06:43:03Z</time>
      </trkpt>
      <trkpt lat="46.39017" lon="6.73131">
        <ele>1069.12</ele>
        <time>2015-07-26T06:44:08Z</time>
      </trkpt>
      <trkpt lat="46.38985" lon="6.732">
        <ele>1079.22</ele>
        <time>2015-07-26T06:45:13Z</time>
      </trkpt>
      <trkpt lat="46.38949" lon="6.73249">
        <ele>1087.87</ele>
        <time>2015-07-26T06:46:18Z</time>
      </trkpt>
      <trkpt lat="46.38902" lon="6.73306">
        <ele>1097.48</ele>
        <time>2015-07-26T06:47:23Z</time>
      </trkpt>
      <trkpt lat="46.38859" lon="6.73367">
        <ele>1103.73</ele>
        <time>2015-07-26T06:48:28Z</time>
      </trkpt>
      <trkpt lat="46.38843" lon="6.73431">
        <ele>1109.5</ele>
        <time>2015-07-26T06:49:33Z</time>
      </trkpt>
      <trkpt lat="46.3885" lon="6.73509">
        <ele>1113.82</ele>
        <time>2015-07-26T06:50:38Z</time>
      </trkpt>
      <trkpt lat="46.38842" lon="6.73512">
        <ele>1115.75</ele>
        <time>2015-07-26T06:51:43Z</time>
      </trkpt>
      <trkpt lat="46.38825" lon="6.73521">
        <ele>1116.23</ele>
        <time>2015-07-26T06:52:48Z</time>
      </trkpt>
      <trkpt lat="46.38808" lon="6.73546">
        <ele>1124.88</ele>
        <time>2015-07-26T06:53:53Z</time>
      </trkpt>
      <trkpt lat="46.38784" lon="6.73572">
        <ele>1133.53</ele>
        <time>2015-07-26T06:54:58Z</time>
      </trkpt>
      <trkpt lat="46.38764" lon="6.73578">
        <ele>1141.7</ele>
        <time>2015-07-26T06:56:03Z</time>
      </trkpt>
      <trkpt lat="46.38733" lon="6.73559">
        <ele>1150.35</ele>
        <time>2015-07-26T06:57:08Z</time>
      </trkpt>
      <trkpt lat="46.38716" lon="6.73571">
        <ele>1157.56</ele>
        <time>2015-07-26T06:58:13Z</time>
      </trkpt>
      <trkpt lat="46.3869" lon="6.73567">
        <ele>1161.89</ele>
        <time>2015-07-26T06:59:18Z</time>
      </trkpt>
      <trkpt lat="46.38676" lon="6.73585">
        <ele>1169.1</ele>
        <time>2015-07-26T07:00:23Z</time>
      </trkpt>
      <trkpt lat="46.38652" lon="6.73584">
        <ele>1179.19</ele>
        <time>2015-07-26T07:01:28Z</time>
      </trkpt>
      <trkpt lat="46.38637" lon="6.73587">
        <ele>1184.48</ele>
        <time>2015-07-26T07:02:33Z</time>
      </trkpt>
      <trkpt lat="46.38626" lon="6.73576">
        <ele>1194.58</ele>
        <time>2015-07-26T07:03:38Z</time>
      </trkpt>
      <trkpt lat="46.38623" lon="6.73618">
        <ele>1204.19</ele>
        <time>2015-07-26T07:04:43Z</time>
      </trkpt>
      <trkpt lat="46.38615" lon="6.73669">
        <ele>1215.24</ele>
        <time>2015-07-26T07:05:48Z</time>
      </trkpt>
      <trkpt lat="46.38606" lon="6.73704">
        <ele>1221.49</ele>
        <time>2015-07-26T07:06:53Z</time>
      </trkpt>
      <trkpt lat="46.38588" lon="6.73716">
        <ele>1228.22</ele>
        <time>2015-07-26T07:07:58Z</time>
      </trkpt>
      <trkpt lat="46.38578" lon="6.73708">
        <ele>1231.11</ele>
        <time>2015-07-26T07:09:03Z</time>
      </trkpt>
      <trkpt lat="46.38577" lon="6.73722">
        <ele>1236.39</ele>
        <time>2015-07-26T07:10:08Z</time>
      </trkpt>
      <trkpt lat="46.38563" lon="6.73744">
        <ele>1244.08</ele>
        <time>2015-07-26T07:11:13Z</time>
      </trkpt>
      <trkpt lat="46.38552" lon="6.73758">
        <ele>1251.29</ele>
        <time>2015-07-26T07:12:18Z</time>
      </trkpt>
      <trkpt lat="46.38554" lon="6.73766">
        <ele>1252.25</ele>
        <time>2015-07-26T07:13:23Z</time>
      </trkpt>
      <trkpt lat="46.3855" lon="6.73773">
        <ele>1258.5</ele>
        <time>2015-07-26T07:14:28Z</time>
      </trkpt>
      <trkpt lat="46.38568" lon="6.73806">
        <ele>1262.83</ele>
        <time>2015-07-26T07:15:33Z</time>
      </trkpt>
      <trkpt lat="46.38554" lon="6.73814">
        <ele>1274.36</ele>
        <time>2015-07-26T07:16:38Z</time>
      </trkpt>
      <trkpt lat="46.38523" lon="6.738">
        <ele>1284.46</ele>
        <time>2015-07-26T07:17:43Z</time>
      </trkpt>
      <trkpt lat="46.3851" lon="6.73788">
        <ele>1293.59</ele>
        <time>2015-07-26T07:18:48Z</time>
      </trkpt>
      <trkpt lat="46.38499" lon="6.73804">
        <ele>1302.72</ele>
        <time>2015-07-26T07:19:53Z</time>
      </trkpt>
      <trkpt lat="46.38491" lon="6.73806">
        <ele>1306.09</ele>
        <time>2015-07-26T07:20:58Z</time>
      </trkpt>
      <trkpt lat="46.3849" lon="6.73795">
        <ele>1309.45</ele>
        <time>2015-07-26T07:22:03Z</time>
      </trkpt>
      <trkpt lat="46.38489" lon="6.73777">
        <ele>1317.62</ele>
        <time>2015-07-26T07:23:08Z</time>
      </trkpt>
      <trkpt lat="46.38502" lon="6.73795">
        <ele>1326.76</ele>
        <time>2015-07-26T07:24:13Z</time>
      </trkpt>
      <trkpt lat="46.38459" lon="6.73825">
        <ele>1333.49</ele>
        <time>2015-07-26T07:25:18Z</time>
      </trkpt>
      <trkpt lat="46.38444" lon="6.73856">
        <ele>1339.73</ele>
        <time>2015-07-26T07:26:23Z</time>
      </trkpt>
      <trkpt lat="46.38444" lon="6.73863">
        <ele>1348.87</ele>
        <time>2015-07-26T07:27:28Z</time>
      </trkpt>
      <trkpt lat="46.3843" lon="6.73883">
        <ele>1357.52</ele>
        <time>2015-07-26T07:28:33Z</time>
      </trkpt>
      <trkpt lat="46.38424" lon="6.73866">
        <ele>1361.84</ele>
        <time>2015-07-26T07:29:38Z</time>
      </trkpt>
      <trkpt lat="46.38398" lon="6.73838">
        <ele>1372.42</ele>
        <time>2015-07-26T07:30:43Z</time>
      </trkpt>
      <trkpt lat="46.3838" lon="6.73818">
        <ele>1378.67</ele>
        <time>2015-07-26T07:31:48Z</time>
      </trkpt>
      <trkpt lat="46.38365" lon="6.73836">
        <ele>1384.92</ele>
        <time>2015-07-26T07:32:53Z</time>
      </trkpt>
      <trkpt lat="46.3835" lon="6.73858">
        <ele>1393.09</ele>
        <time>2015-07-26T07:33:58Z</time>
      </trkpt>
      <trkpt lat="46.38342" lon="6.7388">
        <ele>1399.82</ele>
        <time>2015-07-26T07:35:03Z</time>
      </trkpt>
      <trkpt lat="46.38343" lon="6.73876">
        <ele>1404.62</ele>
        <time>2015-07-26T07:36:08Z</time>
      </trkpt>
      <trkpt lat="46.38338" lon="6.73874">
        <ele>1411.35</ele>
        <time>2015-07-26T07:37:13Z</time>
      </trkpt>
      <trkpt lat="46.38326" lon="6.7386">
        <ele>1415.2</ele>
        <time>2015-07-26T07:38:18Z</time>
      </trkpt>
      <trkpt lat="46.38314" lon="6.73842">
        <ele>1420.49</ele>
        <time>2015-07-26T07:39:23Z</time>
      </trkpt>
      <trkpt lat="46.38291" lon="6.73841">
        <ele>1429.14</ele>
        <time>2015-07-26T07:40:28Z</time>
      </trkpt>
      <trkpt lat="46.38275" lon="6.73866">
        <ele>1436.35</ele>
        <time>2015-07-26T07:41:33Z</time>
      </trkpt>
      <trkpt lat="46.38255" lon="6.73884">
        <ele>1445</ele>
        <time>2015-07-26T07:42:38Z</time>
      </trkpt>
      <trkpt lat="46.38245" lon="6.73911">
        <ele>1450.77</ele>
        <time>2015-07-26T07:43:43Z</time>
      </trkpt>
      <trkpt lat="46.38264" lon="6.73944">
        <ele>1460.86</ele>
        <time>2015-07-26T07:44:48Z</time>
      </trkpt>
      <trkpt lat="46.38266" lon="6.73974">
        <ele>1467.11</ele>
        <time>2015-07-26T07:45:53Z</time>
      </trkpt>
      <trkpt lat="46.38249" lon="6.73981">
        <ele>1474.32</ele>
        <time>2015-07-26T07:46:58Z</time>
      </trkpt>
      <trkpt lat="46.38242" lon="6.74004">
        <ele>1484.89</ele>
        <time>2015-07-26T07:48:03Z</time>
      </trkpt>
      <trkpt lat="46.38209" lon="6.7399">
        <ele>1491.62</ele>
        <time>2015-07-26T07:49:08Z</time>
      </trkpt>
      <trkpt lat="46.38216" lon="6.73999">
        <ele>1497.39</ele>
        <time>2015-07-26T07:50:13Z</time>
      </trkpt>
      <trkpt lat="46.38195" lon="6.74013">
        <ele>1507.97</ele>
        <time>2015-07-26T07:51:18Z</time>
      </trkpt>
      <trkpt lat="46.3818" lon="6.74026">
        <ele>1515.18</ele>
        <time>2015-07-26T07:52:23Z</time>
      </trkpt>
      <trkpt lat="46.38156" lon="6.73996">
        <ele>1524.31</ele>
        <time>2015-07-26T07:53:28Z</time>
      </trkpt>
      <trkpt lat="46.38142" lon="6.7398">
        <ele>1531.04</ele>
        <time>2015-07-26T07:54:33Z</time>
      </trkpt>
      <trkpt lat="46.38113" lon="6.73989">
        <ele>1538.25</ele>
        <time>2015-07-26T07:55:38Z</time>
      </trkpt>
      <trkpt lat="46.38093" lon="6.73971">
        <ele>1544.5</ele>
        <time>2015-07-26T07:56:43Z</time>
      </trkpt>
    </trkseg>
  </trk>
  <trk>
    <name><![CDATA[ACTIVE LOG: 26 JUL 2015 10:10]]></name>
    <trkseg>
      <trkpt lat="46.38098" lon="6.74015">
        <ele>1569.49</ele>
        <time>2015-07-26T08:11:12Z</time>
      </trkpt>
      <trkpt lat="46.38089" lon="6.74001">
        <ele>1571.89</ele>
        <time>2015-07-26T08:12:17Z</time>
      </trkpt>
      <trkpt lat="46.38061" lon="6.73962">
        <ele>1581.51</ele>
        <time>2015-07-26T08:13:22Z</time>
      </trkpt>
      <trkpt lat="46.38027" lon="6.73951">
        <ele>1591.12</ele>
        <time>2015-07-26T08:14:27Z</time>
      </trkpt>
      <trkpt lat="46.37993" lon="6.73914">
        <ele>1599.77</ele>
        <time>2015-07-26T08:15:32Z</time>
      </trkpt>
      <trkpt lat="46.37957" lon="6.73905">
        <ele>1606.02</ele>
        <time>2015-07-26T08:16:37Z</time>
      </trkpt>
      <trkpt lat="46.37899" lon="6.73938">
        <ele>1607.94</ele>
        <time>2015-07-26T08:17:42Z</time>
      </trkpt>
      <trkpt lat="46.37847" lon="6.73957">
        <ele>1613.71</ele>
        <time>2015-07-26T08:18:47Z</time>
      </trkpt>
      <trkpt lat="46.37817" lon="6.73948">
        <ele>1618.52</ele>
        <time>2015-07-26T08:19:52Z</time>
      </trkpt>
      <trkpt lat="46.3781" lon="6.7386">
        <ele>1613.71</ele>
        <time>2015-07-26T08:20:57Z</time>
      </trkpt>
      <trkpt lat="46.37818" lon="6.73772">
        <ele>1603.62</ele>
        <time>2015-07-26T08:22:02Z</time>
      </trkpt>
      <trkpt lat="46.37786" lon="6.73687">
        <ele>1608.9</ele>
        <time>2015-07-26T08:23:07Z</time>
      </trkpt>
      <trkpt lat="46.37748" lon="6.7365">
        <ele>1621.4</ele>
        <time>2015-07-26T08:24:12Z</time>
      </trkpt>
      <trkpt lat="46.37714" lon="6.73622">
        <ele>1632.46</ele>
        <time>2015-07-26T08:25:17Z</time>
      </trkpt>
      <trkpt lat="46.37688" lon="6.736">
        <ele>1642.55</ele>
        <time>2015-07-26T08:26:22Z</time>
      </trkpt>
      <trkpt lat="46.37654" lon="6.73583">
        <ele>1652.64</ele>
        <time>2015-07-26T08:27:27Z</time>
      </trkpt>
      <trkpt lat="46.37624" lon="6.73561">
        <ele>1663.22</ele>
        <time>2015-07-26T08:28:32Z</time>
      </trkpt>
      <trkpt lat="46.37594" lon="6.73548">
        <ele>1674.27</ele>
        <time>2015-07-26T08:29:37Z</time>
      </trkpt>
      <trkpt lat="46.37557" lon="6.73537">
        <ele>1683.41</ele>
        <time>2015-07-26T08:30:42Z</time>
      </trkpt>
      <trkpt lat="46.37568" lon="6.73594">
        <ele>1693.02</ele>
        <time>2015-07-26T08:31:47Z</time>
      </trkpt>
      <trkpt lat="46.37575" lon="6.73641">
        <ele>1702.15</ele>
        <time>2015-07-26T08:32:52Z</time>
      </trkpt>
      <trkpt lat="46.3759" lon="6.737">
        <ele>1711.76</ele>
        <time>2015-07-26T08:33:57Z</time>
      </trkpt>
      <trkpt lat="46.37602" lon="6.73768">
        <ele>1717.53</ele>
        <time>2015-07-26T08:35:02Z</time>
      </trkpt>
      <trkpt lat="46.37589" lon="6.73798">
        <ele>1722.34</ele>
        <time>2015-07-26T08:36:07Z</time>
      </trkpt>
      <trkpt lat="46.37561" lon="6.73801">
        <ele>1728.59</ele>
        <time>2015-07-26T08:37:12Z</time>
      </trkpt>
      <trkpt lat="46.37531" lon="6.7383">
        <ele>1739.64</ele>
        <time>2015-07-26T08:38:17Z</time>
      </trkpt>
      <trkpt lat="46.37506" lon="6.73868">
        <ele>1749.26</ele>
        <time>2015-07-26T08:39:22Z</time>
      </trkpt>
      <trkpt lat="46.37492" lon="6.73903">
        <ele>1758.87</ele>
        <time>2015-07-26T08:40:27Z</time>
      </trkpt>
      <trkpt lat="46.37469" lon="6.73944">
        <ele>1766.56</ele>
        <time>2015-07-26T08:41:32Z</time>
      </trkpt>
      <trkpt lat="46.37448" lon="6.73971">
        <ele>1776.17</ele>
        <time>2015-07-26T08:42:37Z</time>
      </trkpt>
      <trkpt lat="46.37427" lon="6.73994">
        <ele>1779.54</ele>
        <time>2015-07-26T08:43:42Z</time>
      </trkpt>
      <trkpt lat="46.37403" lon="6.74022">
        <ele>1786.75</ele>
        <time>2015-07-26T08:44:47Z</time>
      </trkpt>
      <trkpt lat="46.37373" lon="6.74048">
        <ele>1797.32</ele>
        <time>2015-07-26T08:45:52Z</time>
      </trkpt>
      <trkpt lat="46.37352" lon="6.74071">
        <ele>1806.94</ele>
        <time>2015-07-26T08:46:57Z</time>
      </trkpt>
      <trkpt lat="46.37328" lon="6.74109">
        <ele>1817.03</ele>
        <time>2015-07-26T08:48:02Z</time>
      </trkpt>
      <trkpt lat="46.37309" lon="6.7414">
        <ele>1827.6</ele>
        <time>2015-07-26T08:49:07Z</time>
      </trkpt>
      <trkpt lat="46.37287" lon="6.74159">
        <ele>1836.26</ele>
        <time>2015-07-26T08:50:12Z</time>
      </trkpt>
      <trkpt lat="46.37263" lon="6.7418">
        <ele>1845.87</ele>
        <time>2015-07-26T08:51:17Z</time>
      </trkpt>
      <trkpt lat="46.37234" lon="6.74206">
        <ele>1855</ele>
        <time>2015-07-26T08:52:22Z</time>
      </trkpt>
      <trkpt lat="46.37197" lon="6.74245">
        <ele>1862.69</ele>
        <time>2015-07-26T08:53:27Z</time>
      </trkpt>
      <trkpt lat="46.37181" lon="6.74272">
        <ele>1864.61</ele>
        <time>2015-07-26T08:54:32Z</time>
      </trkpt>
      <trkpt lat="46.37186" lon="6.74254">
        <ele>1864.13</ele>
        <time>2015-07-26T08:55:37Z</time>
      </trkpt>
      <trkpt lat="46.37157" lon="6.74229">
        <ele>1872.3</ele>
        <time>2015-07-26T08:56:42Z</time>
      </trkpt>
      <trkpt lat="46.37125" lon="6.7425">
        <ele>1879.03</ele>
        <time>2015-07-26T08:57:47Z</time>
      </trkpt>
      <trkpt lat="46.37098" lon="6.74268">
        <ele>1892.49</ele>
        <time>2015-07-26T08:58:52Z</time>
      </trkpt>
      <trkpt lat="46.37076" lon="6.74285">
        <ele>1902.59</ele>
        <time>2015-07-26T08:59:57Z</time>
      </trkpt>
      <trkpt lat="46.37053" lon="6.74295">
        <ele>1914.6</ele>
        <time>2015-07-26T09:01:02Z</time>
      </trkpt>
      <trkpt lat="46.37043" lon="6.74301">
        <ele>1922.77</ele>
        <time>2015-07-26T09:02:07Z</time>
      </trkpt>
      <trkpt lat="46.37036" lon="6.74315">
        <ele>1932.87</ele>
        <time>2015-07-26T09:03:12Z</time>
      </trkpt>
      <trkpt lat="46.37032" lon="6.74323">
        <ele>1936.71</ele>
        <time>2015-07-26T09:04:17Z</time>
      </trkpt>
      <trkpt lat="46.3703" lon="6.74328">
        <ele>1938.16</ele>
        <time>2015-07-26T09:05:22Z</time>
      </trkpt>
      <trkpt lat="46.37038" lon="6.74326">
        <ele>1940.08</ele>
        <time>2015-07-26T09:06:27Z</time>
      </trkpt>
      <trkpt lat="46.37028" lon="6.74331">
        <ele>1940.08</ele>
        <time>2015-07-26T09:07:32Z</time>
      </trkpt>
      <trkpt lat="46.3703" lon="6.74333">
        <ele>1942</ele>
        <time>2015-07-26T09:08:37Z</time>
      </trkpt>
      <trkpt lat="46.37036" lon="6.74327">
        <ele>1941.52</ele>
        <time>2015-07-26T09:09:42Z</time>
      </trkpt>
      <trkpt lat="46.37019" lon="6.74334">
        <ele>1947.77</ele>
        <time>2015-07-26T09:10:47Z</time>
      </trkpt>
      <trkpt lat="46.37014" lon="6.74333">
        <ele>1950.17</ele>
        <time>2015-07-26T09:11:52Z</time>
      </trkpt>
      <trkpt lat="46.37012" lon="6.74303">
        <ele>1955.94</ele>
        <time>2015-07-26T09:12:57Z</time>
      </trkpt>
      <trkpt lat="46.37007" lon="6.7426">
        <ele>1965.07</ele>
        <time>2015-07-26T09:14:02Z</time>
      </trkpt>
      <trkpt lat="46.37017" lon="6.74228">
        <ele>1971.32</ele>
        <time>2015-07-26T09:15:07Z</time>
      </trkpt>
      <trkpt lat="46.36998" lon="6.742">
        <ele>1963.15</ele>
        <time>2015-07-26T09:16:12Z</time>
      </trkpt>
      <trkpt lat="46.36979" lon="6.74184">
        <ele>1950.17</ele>
        <time>2015-07-26T09:17:17Z</time>
      </trkpt>
      <trkpt lat="46.36963" lon="6.74175">
        <ele>1940.08</ele>
        <time>2015-07-26T09:18:22Z</time>
      </trkpt>
      <trkpt lat="46.36945" lon="6.74152">
        <ele>1931.43</ele>
        <time>2015-07-26T09:19:27Z</time>
      </trkpt>
      <trkpt lat="46.36926" lon="6.74124">
        <ele>1928.06</ele>
        <time>2015-07-26T09:20:32Z</time>
      </trkpt>
      <trkpt lat="46.36904" lon="6.74078">
        <ele>1917.49</ele>
        <time>2015-07-26T09:21:37Z</time>
      </trkpt>
      <trkpt lat="46.36901" lon="6.74064">
        <ele>1916.53</ele>
        <time>2015-07-26T09:21:57Z</time>
      </trkpt>
    </trkseg>
  </trk>
  <trk>
    <name><![CDATA[ACTIVE LOG: 26 JUL 2015 11:37]]></name>
    <trkseg>
      <trkpt lat="46.36902" lon="6.74064">
        <ele>1917.01</ele>
        <time>2015-07-26T09:38:37Z</time>
      </trkpt>
      <trkpt lat="46.36883" lon="6.7402">
        <ele>1914.12</ele>
        <time>2015-07-26T09:39:42Z</time>
      </trkpt>
      <trkpt lat="46.36847" lon="6.73963">
        <ele>1921.33</ele>
        <time>2015-07-26T09:40:47Z</time>
      </trkpt>
      <trkpt lat="46.36814" lon="6.73933">
        <ele>1931.43</ele>
        <time>2015-07-26T09:41:52Z</time>
      </trkpt>
      <trkpt lat="46.36794" lon="6.73898">
        <ele>1935.75</ele>
        <time>2015-07-26T09:42:57Z</time>
      </trkpt>
      <trkpt lat="46.36766" lon="6.73866">
        <ele>1939.12</ele>
        <time>2015-07-26T09:44:02Z</time>
      </trkpt>
      <trkpt lat="46.36749" lon="6.73853">
        <ele>1938.64</ele>
        <time>2015-07-26T09:45:07Z</time>
      </trkpt>
      <trkpt lat="46.36748" lon="6.73853">
        <ele>1939.12</ele>
        <time>2015-07-26T09:46:12Z</time>
      </trkpt>
      <trkpt lat="46.36747" lon="6.73851">
        <ele>1940.56</ele>
        <time>2015-07-26T09:47:17Z</time>
      </trkpt>
      <trkpt lat="46.36708" lon="6.73849">
        <ele>1926.62</ele>
        <time>2015-07-26T09:48:22Z</time>
      </trkpt>
      <trkpt lat="46.36668" lon="6.73846">
        <ele>1907.39</ele>
        <time>2015-07-26T09:49:27Z</time>
      </trkpt>
      <trkpt lat="46.36629" lon="6.73867">
        <ele>1893.45</ele>
        <time>2015-07-26T09:50:32Z</time>
      </trkpt>
      <trkpt lat="46.36595" lon="6.73878">
        <ele>1879.03</ele>
        <time>2015-07-26T09:51:37Z</time>
      </trkpt>
      <trkpt lat="46.36578" lon="6.73862">
        <ele>1866.54</ele>
        <time>2015-07-26T09:52:42Z</time>
      </trkpt>
      <trkpt lat="46.36561" lon="6.73871">
        <ele>1857.89</ele>
        <time>2015-07-26T09:53:47Z</time>
      </trkpt>
      <trkpt lat="46.36551" lon="6.73911">
        <ele>1847.79</ele>
        <time>2015-07-26T09:54:52Z</time>
      </trkpt>
      <trkpt lat="46.36534" lon="6.73959">
        <ele>1830.97</ele>
        <time>2015-07-26T09:55:57Z</time>
      </trkpt>
      <trkpt lat="46.36525" lon="6.73973">
        <ele>1820.39</ele>
        <time>2015-07-26T09:57:02Z</time>
      </trkpt>
      <trkpt lat="46.36494" lon="6.73957">
        <ele>1807.9</ele>
        <time>2015-07-26T09:58:07Z</time>
      </trkpt>
      <trkpt lat="46.36451" lon="6.73907">
        <ele>1794.92</ele>
        <time>2015-07-26T09:59:12Z</time>
      </trkpt>
      <trkpt lat="46.36423" lon="6.73875">
        <ele>1789.63</ele>
        <time>2015-07-26T10:00:17Z</time>
      </trkpt>
      <trkpt lat="46.36394" lon="6.73844">
        <ele>1785.79</ele>
        <time>2015-07-26T10:01:22Z</time>
      </trkpt>
      <trkpt lat="46.36383" lon="6.73832">
        <ele>1783.86</ele>
        <time>2015-07-26T10:02:27Z</time>
      </trkpt>
      <trkpt lat="46.36328" lon="6.73804">
        <ele>1780.98</ele>
        <time>2015-07-26T10:03:32Z</time>
      </trkpt>
      <trkpt lat="46.36308" lon="6.73768">
        <ele>1776.65</ele>
        <time>2015-07-26T10:04:37Z</time>
      </trkpt>
      <trkpt lat="46.36266" lon="6.73706">
        <ele>1774.25</ele>
        <time>2015-07-26T10:05:42Z</time>
      </trkpt>
      <trkpt lat="46.36229" lon="6.7367">
        <ele>1755.02</ele>
        <time>2015-07-26T10:06:47Z</time>
      </trkpt>
      <trkpt lat="46.36202" lon="6.73668">
        <ele>1752.62</ele>
        <time>2015-07-26T10:07:52Z</time>
      </trkpt>
      <trkpt lat="46.36153" lon="6.73633">
        <ele>1739.16</ele>
        <time>2015-07-26T10:08:57Z</time>
      </trkpt>
      <trkpt lat="46.36096" lon="6.7359">
        <ele>1730.51</ele>
        <time>2015-07-26T10:10:02Z</time>
      </trkpt>
      <trkpt lat="46.36072" lon="6.7353">
        <ele>1728.11</ele>
        <time>2015-07-26T10:11:07Z</time>
      </trkpt>
      <trkpt lat="46.36033" lon="6.73492">
        <ele>1736.28</ele>
        <time>2015-07-26T10:12:12Z</time>
      </trkpt>
      <trkpt lat="46.36031" lon="6.73473">
        <ele>1740.12</ele>
        <time>2015-07-26T10:13:17Z</time>
      </trkpt>
      <trkpt lat="46.36013" lon="6.73439">
        <ele>1750.22</ele>
        <time>2015-07-26T10:14:22Z</time>
      </trkpt>
      <trkpt lat="46.35993" lon="6.73391">
        <ele>1757.91</ele>
        <time>2015-07-26T10:15:27Z</time>
      </trkpt>
      <trkpt lat="46.35995" lon="6.73348">
        <ele>1768.96</ele>
        <time>2015-07-26T10:16:32Z</time>
      </trkpt>
      <trkpt lat="46.35974" lon="6.73355">
        <ele>1777.61</ele>
        <time>2015-07-26T10:17:37Z</time>
      </trkpt>
      <trkpt lat="46.35959" lon="6.73356">
        <ele>1787.71</ele>
        <time>2015-07-26T10:18:42Z</time>
      </trkpt>
      <trkpt lat="46.35942" lon="6.73382">
        <ele>1795.4</ele>
        <time>2015-07-26T10:19:47Z</time>
      </trkpt>
      <trkpt lat="46.35918" lon="6.73357">
        <ele>1804.53</ele>
        <time>2015-07-26T10:20:52Z</time>
      </trkpt>
      <trkpt lat="46.35896" lon="6.73316">
        <ele>1812.22</ele>
        <time>2015-07-26T10:21:57Z</time>
      </trkpt>
      <trkpt lat="46.35881" lon="6.73277">
        <ele>1816.07</ele>
        <time>2015-07-26T10:23:02Z</time>
      </trkpt>
      <trkpt lat="46.35855" lon="6.73255">
        <ele>1818.95</ele>
        <time>2015-07-26T10:24:07Z</time>
      </trkpt>
      <trkpt lat="46.35832" lon="6.73242">
        <ele>1822.32</ele>
        <time>2015-07-26T10:25:12Z</time>
      </trkpt>
      <trkpt lat="46.35777" lon="6.7323">
        <ele>1822.32</ele>
        <time>2015-07-26T10:26:17Z</time>
      </trkpt>
      <trkpt lat="46.35749" lon="6.73227">
        <ele>1825.2</ele>
        <time>2015-07-26T10:27:22Z</time>
      </trkpt>
      <trkpt lat="46.35753" lon="6.73233">
        <ele>1825.68</ele>
        <time>2015-07-26T10:28:27Z</time>
      </trkpt>
      <trkpt lat="46.35723" lon="6.7319">
        <ele>1827.6</ele>
        <time>2015-07-26T10:29:32Z</time>
      </trkpt>
      <trkpt lat="46.35682" lon="6.73162">
        <ele>1829.05</ele>
        <time>2015-07-26T10:30:37Z</time>
      </trkpt>
      <trkpt lat="46.3567" lon="6.73151">
        <ele>1830.01</ele>
        <time>2015-07-26T10:31:42Z</time>
      </trkpt>
      <trkpt lat="46.35623" lon="6.73096">
        <ele>1831.45</ele>
        <time>2015-07-26T10:32:47Z</time>
      </trkpt>
      <trkpt lat="46.35587" lon="6.73043">
        <ele>1835.77</ele>
        <time>2015-07-26T10:33:52Z</time>
      </trkpt>
      <trkpt lat="46.35558" lon="6.72982">
        <ele>1836.26</ele>
        <time>2015-07-26T10:34:57Z</time>
      </trkpt>
      <trkpt lat="46.35527" lon="6.72939">
        <ele>1835.77</ele>
        <time>2015-07-26T10:36:02Z</time>
      </trkpt>
      <trkpt lat="46.35495" lon="6.72909">
        <ele>1836.74</ele>
        <time>2015-07-26T10:37:07Z</time>
      </trkpt>
      <trkpt lat="46.35457" lon="6.72866">
        <ele>1836.74</ele>
        <time>2015-07-26T10:38:12Z</time>
      </trkpt>
      <trkpt lat="46.35437" lon="6.7279">
        <ele>1839.14</ele>
        <time>2015-07-26T10:39:17Z</time>
      </trkpt>
      <trkpt lat="46.35423" lon="6.72716">
        <ele>1842.5</ele>
        <time>2015-07-26T10:40:22Z</time>
      </trkpt>
      <trkpt lat="46.35398" lon="6.72669">
        <ele>1843.47</ele>
        <time>2015-07-26T10:41:27Z</time>
      </trkpt>
      <trkpt lat="46.35374" lon="6.7263">
        <ele>1846.35</ele>
        <time>2015-07-26T10:42:32Z</time>
      </trkpt>
      <trkpt lat="46.35375" lon="6.7262">
        <ele>1846.83</ele>
        <time>2015-07-26T10:43:37Z</time>
      </trkpt>
      <trkpt lat="46.35369" lon="6.72607">
        <ele>1849.23</ele>
        <time>2015-07-26T10:44:42Z</time>
      </trkpt>
      <trkpt lat="46.35353" lon="6.72589">
        <ele>1850.19</ele>
        <time>2015-07-26T10:45:47Z</time>
      </trkpt>
      <trkpt lat="46.35321" lon="6.72551">
        <ele>1855</ele>
        <time>2015-07-26T10:46:52Z</time>
      </trkpt>
      <trkpt lat="46.35312" lon="6.72513">
        <ele>1864.13</ele>
        <time>2015-07-26T10:47:57Z</time>
      </trkpt>
      <trkpt lat="46.35291" lon="6.72485">
        <ele>1868.46</ele>
        <time>2015-07-26T10:49:02Z</time>
      </trkpt>
      <trkpt lat="46.35258" lon="6.72464">
        <ele>1874.71</ele>
        <time>2015-07-26T10:50:07Z</time>
      </trkpt>
      <trkpt lat="46.35245" lon="6.72438">
        <ele>1880.96</ele>
        <time>2015-07-26T10:51:12Z</time>
      </trkpt>
      <trkpt lat="46.3523" lon="6.72425">
        <ele>1887.69</ele>
        <time>2015-07-26T10:52:17Z</time>
      </trkpt>
      <trkpt lat="46.35218" lon="6.72414">
        <ele>1893.45</ele>
        <time>2015-07-26T10:53:22Z</time>
      </trkpt>
      <trkpt lat="46.35207" lon="6.72421">
        <ele>1897.3</ele>
        <time>2015-07-26T10:54:27Z</time>
      </trkpt>
      <trkpt lat="46.35211" lon="6.72409">
        <ele>1898.74</ele>
        <time>2015-07-26T10:55:32Z</time>
      </trkpt>
      <trkpt lat="46.35207" lon="6.72407">
        <ele>1901.14</ele>
        <time>2015-07-26T10:56:37Z</time>
      </trkpt>
      <trkpt lat="46.35185" lon="6.72391">
        <ele>1908.83</ele>
        <time>2015-07-26T10:57:42Z</time>
      </trkpt>
      <trkpt lat="46.35192" lon="6.72381">
        <ele>1910.76</ele>
        <time>2015-07-26T10:58:47Z</time>
      </trkpt>
      <trkpt lat="46.35182" lon="6.72353">
        <ele>1919.89</ele>
        <time>2015-07-26T10:59:52Z</time>
      </trkpt>
      <trkpt lat="46.35157" lon="6.72372">
        <ele>1927.1</ele>
        <time>2015-07-26T11:00:57Z</time>
      </trkpt>
      <trkpt lat="46.35157" lon="6.72373">
        <ele>1926.14</ele>
        <time>2015-07-26T11:02:02Z</time>
      </trkpt>
      <trkpt lat="46.35137" lon="6.72427">
        <ele>1921.81</ele>
        <time>2015-07-26T11:03:07Z</time>
      </trkpt>
      <trkpt lat="46.35132" lon="6.72458">
        <ele>1921.33</ele>
        <time>2015-07-26T11:04:12Z</time>
      </trkpt>
      <trkpt lat="46.35133" lon="6.72462">
        <ele>1920.85</ele>
        <time>2015-07-26T11:05:04Z</time>
      </trkpt>
    </trkseg>
  </trk>
  <trk>
    <name><![CDATA[ACTIVE LOG: 26 JUL 2015 13:13]]></name>
    <trkseg>
      <trkpt lat="46.3513" lon="6.72464">
        <ele>1922.29</ele>
        <time>2015-07-26T11:14:35Z</time>
      </trkpt>
      <trkpt lat="46.35139" lon="6.72508">
        <ele>1932.39</ele>
        <time>2015-07-26T11:15:40Z</time>
      </trkpt>
      <trkpt lat="46.35137" lon="6.7253">
        <ele>1940.08</ele>
        <time>2015-07-26T11:16:45Z</time>
      </trkpt>
      <trkpt lat="46.35148" lon="6.72542">
        <ele>1948.73</ele>
        <time>2015-07-26T11:17:50Z</time>
      </trkpt>
      <trkpt lat="46.35157" lon="6.72564">
        <ele>1959.3</ele>
        <time>2015-07-26T11:18:55Z</time>
      </trkpt>
      <trkpt lat="46.35156" lon="6.72603">
        <ele>1970.36</ele>
        <time>2015-07-26T11:20:00Z</time>
      </trkpt>
      <trkpt lat="46.3515" lon="6.72604">
        <ele>1969.4</ele>
        <time>2015-07-26T11:21:05Z</time>
      </trkpt>
      <trkpt lat="46.35161" lon="6.72613">
        <ele>1973.72</ele>
        <time>2015-07-26T11:22:10Z</time>
      </trkpt>
      <trkpt lat="46.35161" lon="6.72601">
        <ele>1973.72</ele>
        <time>2015-07-26T11:23:15Z</time>
      </trkpt>
      <trkpt lat="46.35174" lon="6.72624">
        <ele>1985.26</ele>
        <time>2015-07-26T11:24:20Z</time>
      </trkpt>
      <trkpt lat="46.35193" lon="6.7265">
        <ele>1994.87</ele>
        <time>2015-07-26T11:25:25Z</time>
      </trkpt>
      <trkpt lat="46.35199" lon="6.72674">
        <ele>2004.49</ele>
        <time>2015-07-26T11:26:30Z</time>
      </trkpt>
      <trkpt lat="46.35205" lon="6.72678">
        <ele>2012.18</ele>
        <time>2015-07-26T11:27:35Z</time>
      </trkpt>
      <trkpt lat="46.35205" lon="6.72694">
        <ele>2022.27</ele>
        <time>2015-07-26T11:28:40Z</time>
      </trkpt>
      <trkpt lat="46.35212" lon="6.72715">
        <ele>2037.17</ele>
        <time>2015-07-26T11:29:45Z</time>
      </trkpt>
      <trkpt lat="46.35221" lon="6.72721">
        <ele>2043.9</ele>
        <time>2015-07-26T11:30:50Z</time>
      </trkpt>
      <trkpt lat="46.35218" lon="6.7274">
        <ele>2054.47</ele>
        <time>2015-07-26T11:31:55Z</time>
      </trkpt>
      <trkpt lat="46.35221" lon="6.7275">
        <ele>2059.76</ele>
        <time>2015-07-26T11:33:00Z</time>
      </trkpt>
      <trkpt lat="46.35228" lon="6.72747">
        <ele>2065.53</ele>
        <time>2015-07-26T11:34:05Z</time>
      </trkpt>
      <trkpt lat="46.35243" lon="6.72762">
        <ele>2074.18</ele>
        <time>2015-07-26T11:35:10Z</time>
      </trkpt>
      <trkpt lat="46.3525" lon="6.72766">
        <ele>2080.43</ele>
        <time>2015-07-26T11:36:15Z</time>
      </trkpt>
      <trkpt lat="46.35243" lon="6.72775">
        <ele>2086.68</ele>
        <time>2015-07-26T11:37:20Z</time>
      </trkpt>
      <trkpt lat="46.35254" lon="6.72797">
        <ele>2096.77</ele>
        <time>2015-07-26T11:38:25Z</time>
      </trkpt>
      <trkpt lat="46.35259" lon="6.72806">
        <ele>2109.75</ele>
        <time>2015-07-26T11:39:30Z</time>
      </trkpt>
      <trkpt lat="46.35259" lon="6.72813">
        <ele>2114.08</ele>
        <time>2015-07-26T11:40:35Z</time>
      </trkpt>
      <trkpt lat="46.35266" lon="6.72838">
        <ele>2118.88</ele>
        <time>2015-07-26T11:41:23Z</time>
      </trkpt>
    </trkseg>
  </trk>
  <trk>
    <name><![CDATA[ACTIVE LOG: 26 JUL 2015 14:23]]></name>
    <trkseg>
      <trkpt lat="46.35256" lon="6.72824">
        <ele>2118.4</ele>
        <time>2015-07-26T12:23:41Z</time>
      </trkpt>
      <trkpt lat="46.35271" lon="6.72872">
        <ele>2121.77</ele>
        <time>2015-07-26T12:24:46Z</time>
      </trkpt>
      <trkpt lat="46.35279" lon="6.72909">
        <ele>2130.42</ele>
        <time>2015-07-26T12:25:51Z</time>
      </trkpt>
      <trkpt lat="46.35287" lon="6.72942">
        <ele>2141.95</ele>
        <time>2015-07-26T12:26:56Z</time>
      </trkpt>
      <trkpt lat="46.35267" lon="6.72947">
        <ele>2149.65</ele>
        <time>2015-07-26T12:28:01Z</time>
      </trkpt>
      <trkpt lat="46.35276" lon="6.72966">
        <ele>2153.01</ele>
        <time>2015-07-26T12:29:06Z</time>
      </trkpt>
      <trkpt lat="46.3527" lon="6.72987">
        <ele>2160.22</ele>
        <time>2015-07-26T12:30:11Z</time>
      </trkpt>
      <trkpt lat="46.35265" lon="6.72996">
        <ele>2166.47</ele>
        <time>2015-07-26T12:31:16Z</time>
      </trkpt>
      <trkpt lat="46.35261" lon="6.72999">
        <ele>2171.76</ele>
        <time>2015-07-26T12:32:21Z</time>
      </trkpt>
      <trkpt lat="46.35249" lon="6.72987">
        <ele>2174.64</ele>
        <time>2015-07-26T12:33:26Z</time>
      </trkpt>
      <trkpt lat="46.35253" lon="6.72994">
        <ele>2178.48</ele>
        <time>2015-07-26T12:34:31Z</time>
      </trkpt>
      <trkpt lat="46.35246" lon="6.72987">
        <ele>2184.25</ele>
        <time>2015-07-26T12:35:36Z</time>
      </trkpt>
      <trkpt lat="46.35254" lon="6.73002">
        <ele>2186.66</ele>
        <time>2015-07-26T12:36:41Z</time>
      </trkpt>
      <trkpt lat="46.35258" lon="6.73003">
        <ele>2187.14</ele>
        <time>2015-07-26T12:37:46Z</time>
      </trkpt>
      <trkpt lat="46.35265" lon="6.73009">
        <ele>2193.87</ele>
        <time>2015-07-26T12:38:51Z</time>
      </trkpt>
      <trkpt lat="46.35277" lon="6.73024">
        <ele>2199.15</ele>
        <time>2015-07-26T12:39:56Z</time>
      </trkpt>
      <trkpt lat="46.3528" lon="6.73046">
        <ele>2202.52</ele>
        <time>2015-07-26T12:41:01Z</time>
      </trkpt>
      <trkpt lat="46.35283" lon="6.73084">
        <ele>2210.21</ele>
        <time>2015-07-26T12:42:06Z</time>
      </trkpt>
      <trkpt lat="46.35298" lon="6.73118">
        <ele>2209.73</ele>
        <time>2015-07-26T12:43:11Z</time>
      </trkpt>
      <trkpt lat="46.35295" lon="6.73143">
        <ele>2215.5</ele>
        <time>2015-07-26T12:44:16Z</time>
      </trkpt>
      <trkpt lat="46.35303" lon="6.73168">
        <ele>2206.84</ele>
        <time>2015-07-26T12:45:21Z</time>
      </trkpt>
      <trkpt lat="46.35308" lon="6.73207">
        <ele>2199.15</ele>
        <time>2015-07-26T12:46:26Z</time>
      </trkpt>
      <trkpt lat="46.35298" lon="6.73233">
        <ele>2200.11</ele>
        <time>2015-07-26T12:47:31Z</time>
      </trkpt>
      <trkpt lat="46.35297" lon="6.73258">
        <ele>2199.15</ele>
        <time>2015-07-26T12:48:36Z</time>
      </trkpt>
      <trkpt lat="46.35295" lon="6.7328">
        <ele>2189.06</ele>
        <time>2015-07-26T12:49:41Z</time>
      </trkpt>
      <trkpt lat="46.35292" lon="6.73284">
        <ele>2186.66</ele>
        <time>2015-07-26T12:50:46Z</time>
      </trkpt>
      <trkpt lat="46.35285" lon="6.73298">
        <ele>2182.81</ele>
        <time>2015-07-26T12:51:51Z</time>
      </trkpt>
      <trkpt lat="46.3528" lon="6.733">
        <ele>2176.56</ele>
        <time>2015-07-26T12:52:56Z</time>
      </trkpt>
      <trkpt lat="46.35276" lon="6.73303">
        <ele>2170.31</ele>
        <time>2015-07-26T12:54:01Z</time>
      </trkpt>
      <trkpt lat="46.35269" lon="6.73313">
        <ele>2161.66</ele>
        <time>2015-07-26T12:55:06Z</time>
      </trkpt>
      <trkpt lat="46.35256" lon="6.73323">
        <ele>2154.93</ele>
        <time>2015-07-26T12:56:11Z</time>
      </trkpt>
      <trkpt lat="46.35248" lon="6.73353">
        <ele>2146.76</ele>
        <time>2015-07-26T12:57:16Z</time>
      </trkpt>
      <trkpt lat="46.3523" lon="6.73397">
        <ele>2138.11</ele>
        <time>2015-07-26T12:58:21Z</time>
      </trkpt>
      <trkpt lat="46.35229" lon="6.73405">
        <ele>2134.74</ele>
        <time>2015-07-26T12:59:26Z</time>
      </trkpt>
      <trkpt lat="46.35232" lon="6.73435">
        <ele>2121.77</ele>
        <time>2015-07-26T13:00:31Z</time>
      </trkpt>
      <trkpt lat="46.35224" lon="6.73458">
        <ele>2110.71</ele>
        <time>2015-07-26T13:01:36Z</time>
      </trkpt>
      <trkpt lat="46.35218" lon="6.73468">
        <ele>2105.91</ele>
        <time>2015-07-26T13:02:41Z</time>
      </trkpt>
      <trkpt lat="46.3522" lon="6.73467">
        <ele>2109.27</ele>
        <time>2015-07-26T13:03:46Z</time>
      </trkpt>
      <trkpt lat="46.35206" lon="6.73493">
        <ele>2101.1</ele>
        <time>2015-07-26T13:04:51Z</time>
      </trkpt>
      <trkpt lat="46.35197" lon="6.73495">
        <ele>2096.29</ele>
        <time>2015-07-26T13:05:56Z</time>
      </trkpt>
      <trkpt lat="46.35193" lon="6.73511">
        <ele>2086.68</ele>
        <time>2015-07-26T13:07:01Z</time>
      </trkpt>
      <trkpt lat="46.35193" lon="6.73537">
        <ele>2073.22</ele>
        <time>2015-07-26T13:08:06Z</time>
      </trkpt>
      <trkpt lat="46.35187" lon="6.73561">
        <ele>2064.57</ele>
        <time>2015-07-26T13:09:11Z</time>
      </trkpt>
      <trkpt lat="46.35187" lon="6.73581">
        <ele>2054.96</ele>
        <time>2015-07-26T13:10:16Z</time>
      </trkpt>
      <trkpt lat="46.35182" lon="6.73602">
        <ele>2045.34</ele>
        <time>2015-07-26T13:11:21Z</time>
      </trkpt>
      <trkpt lat="46.35179" lon="6.73618">
        <ele>2041.5</ele>
        <time>2015-07-26T13:12:26Z</time>
      </trkpt>
      <trkpt lat="46.35179" lon="6.7363">
        <ele>2033.81</ele>
        <time>2015-07-26T13:13:31Z</time>
      </trkpt>
      <trkpt lat="46.35171" lon="6.73644">
        <ele>2029</ele>
        <time>2015-07-26T13:14:36Z</time>
      </trkpt>
      <trkpt lat="46.35169" lon="6.7364">
        <ele>2026.6</ele>
        <time>2015-07-26T13:15:41Z</time>
      </trkpt>
      <trkpt lat="46.35163" lon="6.73659">
        <ele>2025.15</ele>
        <time>2015-07-26T13:16:46Z</time>
      </trkpt>
      <trkpt lat="46.35166" lon="6.73671">
        <ele>2022.27</ele>
        <time>2015-07-26T13:17:51Z</time>
      </trkpt>
      <trkpt lat="46.35166" lon="6.73671">
        <ele>2019.87</ele>
        <time>2015-07-26T13:18:56Z</time>
      </trkpt>
      <trkpt lat="46.35171" lon="6.73695">
        <ele>2017.94</ele>
        <time>2015-07-26T13:20:01Z</time>
      </trkpt>
      <trkpt lat="46.35164" lon="6.73731">
        <ele>2022.27</ele>
        <time>2015-07-26T13:21:06Z</time>
      </trkpt>
      <trkpt lat="46.35147" lon="6.73739">
        <ele>2013.14</ele>
        <time>2015-07-26T13:22:11Z</time>
      </trkpt>
      <trkpt lat="46.3513" lon="6.73767">
        <ele>2003.52</ele>
        <time>2015-07-26T13:23:16Z</time>
      </trkpt>
      <trkpt lat="46.35131" lon="6.7377">
        <ele>2001.6</ele>
        <time>2015-07-26T13:24:21Z</time>
      </trkpt>
      <trkpt lat="46.35114" lon="6.73769">
        <ele>1992.95</ele>
        <time>2015-07-26T13:25:26Z</time>
      </trkpt>
      <trkpt lat="46.35112" lon="6.73786">
        <ele>1983.34</ele>
        <time>2015-07-26T13:26:31Z</time>
      </trkpt>
      <trkpt lat="46.35104" lon="6.73809">
        <ele>1981.9</ele>
        <time>2015-07-26T13:27:36Z</time>
      </trkpt>
      <trkpt lat="46.35098" lon="6.73817">
        <ele>1984.78</ele>
        <time>2015-07-26T13:28:41Z</time>
      </trkpt>
      <trkpt lat="46.35091" lon="6.73893">
        <ele>1993.43</ele>
        <time>2015-07-26T13:29:46Z</time>
      </trkpt>
      <trkpt lat="46.35068" lon="6.73932">
        <ele>1976.61</ele>
        <time>2015-07-26T13:30:51Z</time>
      </trkpt>
      <trkpt lat="46.3506" lon="6.73909">
        <ele>1967.48</ele>
        <time>2015-07-26T13:31:56Z</time>
      </trkpt>
      <trkpt lat="46.35045" lon="6.73883">
        <ele>1947.77</ele>
        <time>2015-07-26T13:33:01Z</time>
      </trkpt>
      <trkpt lat="46.35042" lon="6.7384">
        <ele>1930.95</ele>
        <time>2015-07-26T13:34:06Z</time>
      </trkpt>
      <trkpt lat="46.35014" lon="6.73826">
        <ele>1916.04</ele>
        <time>2015-07-26T13:35:11Z</time>
      </trkpt>
      <trkpt lat="46.35008" lon="6.7378">
        <ele>1904.03</ele>
        <time>2015-07-26T13:36:16Z</time>
      </trkpt>
      <trkpt lat="46.35009" lon="6.7373">
        <ele>1886.72</ele>
        <time>2015-07-26T13:37:21Z</time>
      </trkpt>
      <trkpt lat="46.34984" lon="6.73699">
        <ele>1870.38</ele>
        <time>2015-07-26T13:38:26Z</time>
      </trkpt>
      <trkpt lat="46.34963" lon="6.73691">
        <ele>1855.48</ele>
        <time>2015-07-26T13:39:31Z</time>
      </trkpt>
      <trkpt lat="46.3495" lon="6.73668">
        <ele>1846.83</ele>
        <time>2015-07-26T13:40:36Z</time>
      </trkpt>
      <trkpt lat="46.34938" lon="6.73676">
        <ele>1835.29</ele>
        <time>2015-07-26T13:41:41Z</time>
      </trkpt>
      <trkpt lat="46.34925" lon="6.73621">
        <ele>1821.35</ele>
        <time>2015-07-26T13:42:46Z</time>
      </trkpt>
      <trkpt lat="46.34916" lon="6.73569">
        <ele>1808.38</ele>
        <time>2015-07-26T13:43:51Z</time>
      </trkpt>
      <trkpt lat="46.34886" lon="6.73577">
        <ele>1795.88</ele>
        <time>2015-07-26T13:44:56Z</time>
      </trkpt>
      <trkpt lat="46.34871" lon="6.73589">
        <ele>1788.19</ele>
        <time>2015-07-26T13:46:01Z</time>
      </trkpt>
      <trkpt lat="46.34856" lon="6.73564">
        <ele>1778.1</ele>
        <time>2015-07-26T13:47:06Z</time>
      </trkpt>
      <trkpt lat="46.34834" lon="6.73561">
        <ele>1769.92</ele>
        <time>2015-07-26T13:48:11Z</time>
      </trkpt>
      <trkpt lat="46.34793" lon="6.73526">
        <ele>1769.44</ele>
        <time>2015-07-26T13:49:16Z</time>
      </trkpt>
      <trkpt lat="46.34756" lon="6.73493">
        <ele>1777.61</ele>
        <time>2015-07-26T13:50:21Z</time>
      </trkpt>
      <trkpt lat="46.34749" lon="6.73459">
        <ele>1780.98</ele>
        <time>2015-07-26T13:51:26Z</time>
      </trkpt>
      <trkpt lat="46.34719" lon="6.73458">
        <ele>1782.42</ele>
        <time>2015-07-26T13:52:31Z</time>
      </trkpt>
      <trkpt lat="46.34698" lon="6.73426">
        <ele>1787.71</ele>
        <time>2015-07-26T13:53:36Z</time>
      </trkpt>
      <trkpt lat="46.34673" lon="6.73425">
        <ele>1780.98</ele>
        <time>2015-07-26T13:54:41Z</time>
      </trkpt>
      <trkpt lat="46.34673" lon="6.73404">
        <ele>1780.5</ele>
        <time>2015-07-26T13:55:01Z</time>
      </trkpt>
    </trkseg>
  </trk>
  <trk>
    <name><![CDATA[ACTIVE LOG: 26 JUL 2015 16:03]]></name>
    <trkseg>
      <trkpt lat="46.34679" lon="6.73417">
        <ele>1783.86</ele>
        <time>2015-07-26T14:05:04Z</time>
      </trkpt>
      <trkpt lat="46.34679" lon="6.73418">
        <ele>1782.42</ele>
        <time>2015-07-26T14:06:09Z</time>
      </trkpt>
      <trkpt lat="46.34667" lon="6.73481">
        <ele>1787.23</ele>
        <time>2015-07-26T14:07:14Z</time>
      </trkpt>
      <trkpt lat="46.34661" lon="6.73545">
        <ele>1795.4</ele>
        <time>2015-07-26T14:08:19Z</time>
      </trkpt>
      <trkpt lat="46.34649" lon="6.73598">
        <ele>1805.97</ele>
        <time>2015-07-26T14:09:24Z</time>
      </trkpt>
      <trkpt lat="46.34652" lon="6.73666">
        <ele>1813.18</ele>
        <time>2015-07-26T14:10:29Z</time>
      </trkpt>
      <trkpt lat="46.34659" lon="6.73716">
        <ele>1823.76</ele>
        <time>2015-07-26T14:11:34Z</time>
      </trkpt>
      <trkpt lat="46.3467" lon="6.7375">
        <ele>1830.01</ele>
        <time>2015-07-26T14:12:39Z</time>
      </trkpt>
      <trkpt lat="46.34677" lon="6.73805">
        <ele>1832.89</ele>
        <time>2015-07-26T14:13:44Z</time>
      </trkpt>
      <trkpt lat="46.34663" lon="6.73855">
        <ele>1840.58</ele>
        <time>2015-07-26T14:14:49Z</time>
      </trkpt>
      <trkpt lat="46.34646" lon="6.73897">
        <ele>1849.71</ele>
        <time>2015-07-26T14:15:54Z</time>
      </trkpt>
      <trkpt lat="46.34651" lon="6.73914">
        <ele>1858.37</ele>
        <time>2015-07-26T14:16:59Z</time>
      </trkpt>
      <trkpt lat="46.34627" lon="6.73948">
        <ele>1867.5</ele>
        <time>2015-07-26T14:18:04Z</time>
      </trkpt>
      <trkpt lat="46.34625" lon="6.7398">
        <ele>1875.67</ele>
        <time>2015-07-26T14:19:09Z</time>
      </trkpt>
      <trkpt lat="46.34616" lon="6.74027">
        <ele>1882.88</ele>
        <time>2015-07-26T14:20:14Z</time>
      </trkpt>
      <trkpt lat="46.34622" lon="6.74055">
        <ele>1892.97</ele>
        <time>2015-07-26T14:21:19Z</time>
      </trkpt>
      <trkpt lat="46.34626" lon="6.74109">
        <ele>1900.18</ele>
        <time>2015-07-26T14:22:24Z</time>
      </trkpt>
      <trkpt lat="46.3462" lon="6.74154">
        <ele>1910.28</ele>
        <time>2015-07-26T14:23:29Z</time>
      </trkpt>
      <trkpt lat="46.34581" lon="6.74195">
        <ele>1915.08</ele>
        <time>2015-07-26T14:24:34Z</time>
      </trkpt>
      <trkpt lat="46.34581" lon="6.74246">
        <ele>1925.66</ele>
        <time>2015-07-26T14:25:39Z</time>
      </trkpt>
      <trkpt lat="46.34568" lon="6.74281">
        <ele>1931.43</ele>
        <time>2015-07-26T14:26:44Z</time>
      </trkpt>
      <trkpt lat="46.34557" lon="6.74303">
        <ele>1936.71</ele>
        <time>2015-07-26T14:27:49Z</time>
      </trkpt>
      <trkpt lat="46.34557" lon="6.74303">
        <ele>1935.75</ele>
        <time>2015-07-26T14:28:54Z</time>
      </trkpt>
      <trkpt lat="46.34562" lon="6.74333">
        <ele>1929.02</ele>
        <time>2015-07-26T14:29:59Z</time>
      </trkpt>
      <trkpt lat="46.34557" lon="6.74354">
        <ele>1920.37</ele>
        <time>2015-07-26T14:31:04Z</time>
      </trkpt>
      <trkpt lat="46.34552" lon="6.74374">
        <ele>1910.76</ele>
        <time>2015-07-26T14:32:09Z</time>
      </trkpt>
      <trkpt lat="46.34551" lon="6.74386">
        <ele>1904.51</ele>
        <time>2015-07-26T14:33:14Z</time>
      </trkpt>
      <trkpt lat="46.34545" lon="6.74412">
        <ele>1891.53</ele>
        <time>2015-07-26T14:34:19Z</time>
      </trkpt>
      <trkpt lat="46.34519" lon="6.74436">
        <ele>1877.59</ele>
        <time>2015-07-26T14:35:24Z</time>
      </trkpt>
      <trkpt lat="46.34508" lon="6.74467">
        <ele>1873.75</ele>
        <time>2015-07-26T14:36:29Z</time>
      </trkpt>
      <trkpt lat="46.34498" lon="6.74476">
        <ele>1869.42</ele>
        <time>2015-07-26T14:37:34Z</time>
      </trkpt>
      <trkpt lat="46.34474" lon="6.74514">
        <ele>1854.52</ele>
        <time>2015-07-26T14:38:39Z</time>
      </trkpt>
      <trkpt lat="46.34443" lon="6.74548">
        <ele>1842.98</ele>
        <time>2015-07-26T14:39:44Z</time>
      </trkpt>
      <trkpt lat="46.34434" lon="6.74566">
        <ele>1839.14</ele>
        <time>2015-07-26T14:40:49Z</time>
      </trkpt>
      <trkpt lat="46.34431" lon="6.74567">
        <ele>1837.22</ele>
        <time>2015-07-26T14:41:54Z</time>
      </trkpt>
      <trkpt lat="46.34428" lon="6.7458">
        <ele>1833.37</ele>
        <time>2015-07-26T14:42:59Z</time>
      </trkpt>
      <trkpt lat="46.34415" lon="6.74599">
        <ele>1827.6</ele>
        <time>2015-07-26T14:44:04Z</time>
      </trkpt>
      <trkpt lat="46.34413" lon="6.7459">
        <ele>1829.05</ele>
        <time>2015-07-26T14:45:09Z</time>
      </trkpt>
      <trkpt lat="46.34401" lon="6.74606">
        <ele>1822.32</ele>
        <time>2015-07-26T14:46:14Z</time>
      </trkpt>
      <trkpt lat="46.34377" lon="6.74621">
        <ele>1817.51</ele>
        <time>2015-07-26T14:47:19Z</time>
      </trkpt>
      <trkpt lat="46.34352" lon="6.74669">
        <ele>1817.99</ele>
        <time>2015-07-26T14:48:24Z</time>
      </trkpt>
      <trkpt lat="46.34344" lon="6.74703">
        <ele>1821.84</ele>
        <time>2015-07-26T14:49:29Z</time>
      </trkpt>
      <trkpt lat="46.34325" lon="6.74694">
        <ele>1827.12</ele>
        <time>2015-07-26T14:50:34Z</time>
      </trkpt>
      <trkpt lat="46.34309" lon="6.74698">
        <ele>1829.53</ele>
        <time>2015-07-26T14:51:39Z</time>
      </trkpt>
      <trkpt lat="46.34292" lon="6.74719">
        <ele>1832.41</ele>
        <time>2015-07-26T14:52:44Z</time>
      </trkpt>
      <trkpt lat="46.34276" lon="6.74705">
        <ele>1830.97</ele>
        <time>2015-07-26T14:53:49Z</time>
      </trkpt>
      <trkpt lat="46.34299" lon="6.74756">
        <ele>1830.49</ele>
        <time>2015-07-26T14:54:54Z</time>
      </trkpt>
      <trkpt lat="46.34295" lon="6.74784">
        <ele>1837.7</ele>
        <time>2015-07-26T14:55:59Z</time>
      </trkpt>
      <trkpt lat="46.34283" lon="6.74818">
        <ele>1847.31</ele>
        <time>2015-07-26T14:57:04Z</time>
      </trkpt>
      <trkpt lat="46.34277" lon="6.74845">
        <ele>1852.12</ele>
        <time>2015-07-26T14:58:09Z</time>
      </trkpt>
      <trkpt lat="46.34265" lon="6.7489">
        <ele>1858.37</ele>
        <time>2015-07-26T14:59:14Z</time>
      </trkpt>
      <trkpt lat="46.34229" lon="6.74873">
        <ele>1862.21</ele>
        <time>2015-07-26T15:00:19Z</time>
      </trkpt>
      <trkpt lat="46.34197" lon="6.74855">
        <ele>1870.38</ele>
        <time>2015-07-26T15:01:24Z</time>
      </trkpt>
      <trkpt lat="46.34167" lon="6.74832">
        <ele>1879.51</ele>
        <time>2015-07-26T15:02:29Z</time>
      </trkpt>
      <trkpt lat="46.34142" lon="6.74815">
        <ele>1886.72</ele>
        <time>2015-07-26T15:03:34Z</time>
      </trkpt>
      <trkpt lat="46.34115" lon="6.74804">
        <ele>1895.38</ele>
        <time>2015-07-26T15:04:39Z</time>
      </trkpt>
      <trkpt lat="46.3411" lon="6.74817">
        <ele>1902.11</ele>
        <time>2015-07-26T15:05:44Z</time>
      </trkpt>
      <trkpt lat="46.34115" lon="6.74843">
        <ele>1911.72</ele>
        <time>2015-07-26T15:06:49Z</time>
      </trkpt>
      <trkpt lat="46.3412" lon="6.7486">
        <ele>1914.12</ele>
        <time>2015-07-26T15:07:54Z</time>
      </trkpt>
      <trkpt lat="46.34126" lon="6.74909">
        <ele>1923.25</ele>
        <time>2015-07-26T15:08:59Z</time>
      </trkpt>
      <trkpt lat="46.34139" lon="6.74941">
        <ele>1929.98</ele>
        <time>2015-07-26T15:10:04Z</time>
      </trkpt>
      <trkpt lat="46.34154" lon="6.74962">
        <ele>1935.75</ele>
        <time>2015-07-26T15:11:09Z</time>
      </trkpt>
      <trkpt lat="46.34146" lon="6.74992">
        <ele>1944.4</ele>
        <time>2015-07-26T15:12:14Z</time>
      </trkpt>
      <trkpt lat="46.34106" lon="6.7498">
        <ele>1949.69</ele>
        <time>2015-07-26T15:13:19Z</time>
      </trkpt>
      <trkpt lat="46.34061" lon="6.74948">
        <ele>1953.54</ele>
        <time>2015-07-26T15:14:24Z</time>
      </trkpt>
      <trkpt lat="46.34006" lon="6.74964">
        <ele>1942</ele>
        <time>2015-07-26T15:15:29Z</time>
      </trkpt>
      <trkpt lat="46.33965" lon="6.74989">
        <ele>1926.14</ele>
        <time>2015-07-26T15:16:34Z</time>
      </trkpt>
      <trkpt lat="46.3392" lon="6.75021">
        <ele>1920.37</ele>
        <time>2015-07-26T15:17:39Z</time>
      </trkpt>
      <trkpt lat="46.33922" lon="6.75025">
        <ele>1918.45</ele>
        <time>2015-07-26T15:18:44Z</time>
      </trkpt>
      <trkpt lat="46.33934" lon="6.75056">
        <ele>1903.07</ele>
        <time>2015-07-26T15:19:49Z</time>
      </trkpt>
      <trkpt lat="46.33957" lon="6.75058">
        <ele>1892.01</ele>
        <time>2015-07-26T15:20:54Z</time>
      </trkpt>
      <trkpt lat="46.33976" lon="6.75081">
        <ele>1881.92</ele>
        <time>2015-07-26T15:21:59Z</time>
      </trkpt>
      <trkpt lat="46.33977" lon="6.75116">
        <ele>1871.34</ele>
        <time>2015-07-26T15:23:04Z</time>
      </trkpt>
      <trkpt lat="46.33972" lon="6.75168">
        <ele>1856.92</ele>
        <time>2015-07-26T15:24:09Z</time>
      </trkpt>
      <trkpt lat="46.3399" lon="6.75188">
        <ele>1852.6</ele>
        <time>2015-07-26T15:25:14Z</time>
      </trkpt>
      <trkpt lat="46.34009" lon="6.75206">
        <ele>1842.98</ele>
        <time>2015-07-26T15:26:19Z</time>
      </trkpt>
      <trkpt lat="46.34009" lon="6.75256">
        <ele>1832.41</ele>
        <time>2015-07-26T15:27:24Z</time>
      </trkpt>
      <trkpt lat="46.34021" lon="6.75324">
        <ele>1825.2</ele>
        <time>2015-07-26T15:28:29Z</time>
      </trkpt>
      <trkpt lat="46.34055" lon="6.754">
        <ele>1822.8</ele>
        <time>2015-07-26T15:29:34Z</time>
      </trkpt>
      <trkpt lat="46.34074" lon="6.75443">
        <ele>1813.18</ele>
        <time>2015-07-26T15:30:39Z</time>
      </trkpt>
      <trkpt lat="46.34085" lon="6.75474">
        <ele>1804.05</ele>
        <time>2015-07-26T15:31:44Z</time>
      </trkpt>
      <trkpt lat="46.34112" lon="6.75519">
        <ele>1792.03</ele>
        <time>2015-07-26T15:32:49Z</time>
      </trkpt>
      <trkpt lat="46.34126" lon="6.75584">
        <ele>1779.54</ele>
        <time>2015-07-26T15:33:54Z</time>
      </trkpt>
      <trkpt lat="46.3412" lon="6.75636">
        <ele>1768</ele>
        <time>2015-07-26T15:34:59Z</time>
      </trkpt>
      <trkpt lat="46.34114" lon="6.75658">
        <ele>1758.39</ele>
        <time>2015-07-26T15:36:04Z</time>
      </trkpt>
      <trkpt lat="46.34068" lon="6.75702">
        <ele>1747.33</ele>
        <time>2015-07-26T15:37:09Z</time>
      </trkpt>
      <trkpt lat="46.34039" lon="6.75716">
        <ele>1732.43</ele>
        <time>2015-07-26T15:38:14Z</time>
      </trkpt>
      <trkpt lat="46.34036" lon="6.75744">
        <ele>1722.82</ele>
        <time>2015-07-26T15:39:19Z</time>
      </trkpt>
      <trkpt lat="46.34038" lon="6.75775">
        <ele>1708.88</ele>
        <time>2015-07-26T15:40:24Z</time>
      </trkpt>
      <trkpt lat="46.34015" lon="6.75792">
        <ele>1696.86</ele>
        <time>2015-07-26T15:41:29Z</time>
      </trkpt>
      <trkpt lat="46.33986" lon="6.75807">
        <ele>1690.62</ele>
        <time>2015-07-26T15:42:34Z</time>
      </trkpt>
      <trkpt lat="46.33965" lon="6.75816">
        <ele>1684.37</ele>
        <time>2015-07-26T15:43:39Z</time>
      </trkpt>
      <trkpt lat="46.33936" lon="6.75846">
        <ele>1669.95</ele>
        <time>2015-07-26T15:44:44Z</time>
      </trkpt>
      <trkpt lat="46.33888" lon="6.75891">
        <ele>1656.97</ele>
        <time>2015-07-26T15:45:49Z</time>
      </trkpt>
      <trkpt lat="46.33832" lon="6.75916">
        <ele>1645.43</ele>
        <time>2015-07-26T15:46:54Z</time>
      </trkpt>
      <trkpt lat="46.33797" lon="6.75951">
        <ele>1633.42</ele>
        <time>2015-07-26T15:47:59Z</time>
      </trkpt>
      <trkpt lat="46.3375" lon="6.75965">
        <ele>1626.69</ele>
        <time>2015-07-26T15:49:04Z</time>
      </trkpt>
      <trkpt lat="46.33724" lon="6.76008">
        <ele>1615.15</ele>
        <time>2015-07-26T15:50:09Z</time>
      </trkpt>
      <trkpt lat="46.33703" lon="6.76058">
        <ele>1596.89</ele>
        <time>2015-07-26T15:51:14Z</time>
      </trkpt>
      <trkpt lat="46.33673" lon="6.76106">
        <ele>1594.96</ele>
        <time>2015-07-26T15:52:19Z</time>
      </trkpt>
      <trkpt lat="46.33655" lon="6.76143">
        <ele>1586.31</ele>
        <time>2015-07-26T15:53:24Z</time>
      </trkpt>
      <trkpt lat="46.33634" lon="6.76228">
        <ele>1576.22</ele>
        <time>2015-07-26T15:54:29Z</time>
      </trkpt>
      <trkpt lat="46.33609" lon="6.76302">
        <ele>1567.09</ele>
        <time>2015-07-26T15:55:34Z</time>
      </trkpt>
      <trkpt lat="46.33605" lon="6.76388">
        <ele>1560.84</ele>
        <time>2015-07-26T15:56:39Z</time>
      </trkpt>
      <trkpt lat="46.3357" lon="6.76457">
        <ele>1553.15</ele>
        <time>2015-07-26T15:57:44Z</time>
      </trkpt>
      <trkpt lat="46.33537" lon="6.7652">
        <ele>1556.03</ele>
        <time>2015-07-26T15:58:49Z</time>
      </trkpt>
      <trkpt lat="46.3348" lon="6.76566">
        <ele>1556.99</ele>
        <time>2015-07-26T15:59:54Z</time>
      </trkpt>
      <trkpt lat="46.33417" lon="6.76571">
        <ele>1556.03</ele>
        <time>2015-07-26T16:00:59Z</time>
      </trkpt>
      <trkpt lat="46.33374" lon="6.7661">
        <ele>1549.3</ele>
        <time>2015-07-26T16:02:04Z</time>
      </trkpt>
      <trkpt lat="46.33315" lon="6.76624">
        <ele>1544.5</ele>
        <time>2015-07-26T16:03:09Z</time>
      </trkpt>
      <trkpt lat="46.33263" lon="6.76634">
        <ele>1538.73</ele>
        <time>2015-07-26T16:04:14Z</time>
      </trkpt>
      <trkpt lat="46.33208" lon="6.76611">
        <ele>1529.59</ele>
        <time>2015-07-26T16:05:19Z</time>
      </trkpt>
      <trkpt lat="46.3316" lon="6.76572">
        <ele>1521.42</ele>
        <time>2015-07-26T16:06:24Z</time>
      </trkpt>
      <trkpt lat="46.33112" lon="6.76555">
        <ele>1515.66</ele>
        <time>2015-07-26T16:07:29Z</time>
      </trkpt>
      <trkpt lat="46.33076" lon="6.7656">
        <ele>1513.25</ele>
        <time>2015-07-26T16:08:34Z</time>
      </trkpt>
      <trkpt lat="46.33059" lon="6.76575">
        <ele>1512.29</ele>
        <time>2015-07-26T16:09:39Z</time>
      </trkpt>
      <trkpt lat="46.33059" lon="6.76595">
        <ele>1513.73</ele>
        <time>2015-07-26T16:10:17Z</time>
      </trkpt>
    </trkseg>
  </trk>
  <trk>
    <name><![CDATA[ACTIVE LOG: 27 JUL 2015 10:03]]></name>
    <trkseg>
      <trkpt lat="46.33086" lon="6.76594">
        <ele>1504.12</ele>
        <time>2015-07-27T08:03:59Z</time>
      </trkpt>
      <trkpt lat="46.33112" lon="6.76658">
        <ele>1507.97</ele>
        <time>2015-07-27T08:05:04Z</time>
      </trkpt>
      <trkpt lat="46.33093" lon="6.7672">
        <ele>1511.33</ele>
        <time>2015-07-27T08:06:09Z</time>
      </trkpt>
      <trkpt lat="46.33065" lon="6.76774">
        <ele>1518.54</ele>
        <time>2015-07-27T08:07:14Z</time>
      </trkpt>
      <trkpt lat="46.33037" lon="6.7682">
        <ele>1527.19</ele>
        <time>2015-07-27T08:08:19Z</time>
      </trkpt>
      <trkpt lat="46.33006" lon="6.76828">
        <ele>1534.4</ele>
        <time>2015-07-27T08:09:24Z</time>
      </trkpt>
      <trkpt lat="46.32997" lon="6.76836">
        <ele>1542.57</ele>
        <time>2015-07-27T08:10:29Z</time>
      </trkpt>
      <trkpt lat="46.32989" lon="6.76851">
        <ele>1549.78</ele>
        <time>2015-07-27T08:11:34Z</time>
      </trkpt>
      <trkpt lat="46.3298" lon="6.76896">
        <ele>1557.95</ele>
        <time>2015-07-27T08:12:39Z</time>
      </trkpt>
      <trkpt lat="46.32982" lon="6.76941">
        <ele>1564.68</ele>
        <time>2015-07-27T08:13:44Z</time>
      </trkpt>
      <trkpt lat="46.32971" lon="6.76992">
        <ele>1572.85</ele>
        <time>2015-07-27T08:14:49Z</time>
      </trkpt>
      <trkpt lat="46.32953" lon="6.77025">
        <ele>1582.47</ele>
        <time>2015-07-27T08:15:54Z</time>
      </trkpt>
      <trkpt lat="46.32943" lon="6.7705">
        <ele>1591.12</ele>
        <time>2015-07-27T08:16:59Z</time>
      </trkpt>
      <trkpt lat="46.32936" lon="6.77075">
        <ele>1600.25</ele>
        <time>2015-07-27T08:18:04Z</time>
      </trkpt>
      <trkpt lat="46.32921" lon="6.77082">
        <ele>1609.38</ele>
        <time>2015-07-27T08:19:09Z</time>
      </trkpt>
      <trkpt lat="46.32906" lon="6.77094">
        <ele>1619.96</ele>
        <time>2015-07-27T08:20:14Z</time>
      </trkpt>
      <trkpt lat="46.32889" lon="6.77111">
        <ele>1627.65</ele>
        <time>2015-07-27T08:21:19Z</time>
      </trkpt>
      <trkpt lat="46.32872" lon="6.77138">
        <ele>1635.82</ele>
        <time>2015-07-27T08:22:24Z</time>
      </trkpt>
      <trkpt lat="46.32848" lon="6.77163">
        <ele>1643.99</ele>
        <time>2015-07-27T08:23:29Z</time>
      </trkpt>
      <trkpt lat="46.32828" lon="6.77183">
        <ele>1652.64</ele>
        <time>2015-07-27T08:24:34Z</time>
      </trkpt>
      <trkpt lat="46.32808" lon="6.77199">
        <ele>1663.22</ele>
        <time>2015-07-27T08:25:39Z</time>
      </trkpt>
      <trkpt lat="46.32798" lon="6.77224">
        <ele>1671.87</ele>
        <time>2015-07-27T08:26:44Z</time>
      </trkpt>
      <trkpt lat="46.32783" lon="6.77249">
        <ele>1682.44</ele>
        <time>2015-07-27T08:27:49Z</time>
      </trkpt>
      <trkpt lat="46.32764" lon="6.77269">
        <ele>1690.14</ele>
        <time>2015-07-27T08:28:54Z</time>
      </trkpt>
      <trkpt lat="46.32757" lon="6.773">
        <ele>1699.75</ele>
        <time>2015-07-27T08:29:59Z</time>
      </trkpt>
      <trkpt lat="46.32761" lon="6.77325">
        <ele>1709.84</ele>
        <time>2015-07-27T08:31:04Z</time>
      </trkpt>
      <trkpt lat="46.32768" lon="6.77352">
        <ele>1718.49</ele>
        <time>2015-07-27T08:32:09Z</time>
      </trkpt>
      <trkpt lat="46.32778" lon="6.77377">
        <ele>1727.63</ele>
        <time>2015-07-27T08:33:14Z</time>
      </trkpt>
      <trkpt lat="46.32776" lon="6.77408">
        <ele>1735.32</ele>
        <time>2015-07-27T08:34:19Z</time>
      </trkpt>
      <trkpt lat="46.32791" lon="6.77417">
        <ele>1744.45</ele>
        <time>2015-07-27T08:35:24Z</time>
      </trkpt>
      <trkpt lat="46.32783" lon="6.77449">
        <ele>1754.06</ele>
        <time>2015-07-27T08:36:29Z</time>
      </trkpt>
      <trkpt lat="46.32763" lon="6.77452">
        <ele>1757.91</ele>
        <time>2015-07-27T08:37:34Z</time>
      </trkpt>
      <trkpt lat="46.32738" lon="6.77467">
        <ele>1771.37</ele>
        <time>2015-07-27T08:38:39Z</time>
      </trkpt>
      <trkpt lat="46.32717" lon="6.77486">
        <ele>1778.1</ele>
        <time>2015-07-27T08:39:44Z</time>
      </trkpt>
      <trkpt lat="46.32697" lon="6.77453">
        <ele>1780.5</ele>
        <time>2015-07-27T08:40:49Z</time>
      </trkpt>
      <trkpt lat="46.32663" lon="6.77429">
        <ele>1786.75</ele>
        <time>2015-07-27T08:41:54Z</time>
      </trkpt>
      <trkpt lat="46.32631" lon="6.77392">
        <ele>1794.44</ele>
        <time>2015-07-27T08:42:59Z</time>
      </trkpt>
      <trkpt lat="46.32607" lon="6.77424">
        <ele>1804.53</ele>
        <time>2015-07-27T08:44:04Z</time>
      </trkpt>
      <trkpt lat="46.32599" lon="6.77452">
        <ele>1814.63</ele>
        <time>2015-07-27T08:45:09Z</time>
      </trkpt>
      <trkpt lat="46.3259" lon="6.7747">
        <ele>1817.03</ele>
        <time>2015-07-27T08:46:14Z</time>
      </trkpt>
      <trkpt lat="46.32579" lon="6.77461">
        <ele>1815.11</ele>
        <time>2015-07-27T08:47:19Z</time>
      </trkpt>
      <trkpt lat="46.32545" lon="6.77457">
        <ele>1813.18</ele>
        <time>2015-07-27T08:48:24Z</time>
      </trkpt>
      <trkpt lat="46.32516" lon="6.77459">
        <ele>1806.94</ele>
        <time>2015-07-27T08:49:29Z</time>
      </trkpt>
      <trkpt lat="46.32482" lon="6.77466">
        <ele>1800.69</ele>
        <time>2015-07-27T08:50:34Z</time>
      </trkpt>
      <trkpt lat="46.32428" lon="6.77489">
        <ele>1792.03</ele>
        <time>2015-07-27T08:51:39Z</time>
      </trkpt>
      <trkpt lat="46.32371" lon="6.77511">
        <ele>1778.1</ele>
        <time>2015-07-27T08:52:44Z</time>
      </trkpt>
      <trkpt lat="46.32328" lon="6.77545">
        <ele>1766.08</ele>
        <time>2015-07-27T08:53:49Z</time>
      </trkpt>
      <trkpt lat="46.32303" lon="6.7756">
        <ele>1767.04</ele>
        <time>2015-07-27T08:54:54Z</time>
      </trkpt>
      <trkpt lat="46.32295" lon="6.77593">
        <ele>1754.06</ele>
        <time>2015-07-27T08:55:59Z</time>
      </trkpt>
      <trkpt lat="46.32248" lon="6.77612">
        <ele>1740.6</ele>
        <time>2015-07-27T08:57:04Z</time>
      </trkpt>
      <trkpt lat="46.32234" lon="6.77661">
        <ele>1729.55</ele>
        <time>2015-07-27T08:58:09Z</time>
      </trkpt>
      <trkpt lat="46.32235" lon="6.7766">
        <ele>1730.03</ele>
        <time>2015-07-27T08:59:14Z</time>
      </trkpt>
      <trkpt lat="46.32198" lon="6.7771">
        <ele>1715.61</ele>
        <time>2015-07-27T09:00:19Z</time>
      </trkpt>
      <trkpt lat="46.32194" lon="6.77738">
        <ele>1708.4</ele>
        <time>2015-07-27T09:01:24Z</time>
      </trkpt>
      <trkpt lat="46.32181" lon="6.77797">
        <ele>1694.94</ele>
        <time>2015-07-27T09:02:29Z</time>
      </trkpt>
      <trkpt lat="46.32156" lon="6.77794">
        <ele>1678.12</ele>
        <time>2015-07-27T09:03:34Z</time>
      </trkpt>
      <trkpt lat="46.32141" lon="6.77825">
        <ele>1668.99</ele>
        <time>2015-07-27T09:04:39Z</time>
      </trkpt>
      <trkpt lat="46.32103" lon="6.77888">
        <ele>1649.76</ele>
        <time>2015-07-27T09:05:44Z</time>
      </trkpt>
      <trkpt lat="46.32057" lon="6.77924">
        <ele>1633.9</ele>
        <time>2015-07-27T09:06:49Z</time>
      </trkpt>
      <trkpt lat="46.32015" lon="6.7795">
        <ele>1617.07</ele>
        <time>2015-07-27T09:07:54Z</time>
      </trkpt>
      <trkpt lat="46.3199" lon="6.77971">
        <ele>1608.9</ele>
        <time>2015-07-27T09:08:59Z</time>
      </trkpt>
      <trkpt lat="46.31963" lon="6.77992">
        <ele>1597.37</ele>
        <time>2015-07-27T09:10:04Z</time>
      </trkpt>
      <trkpt lat="46.31945" lon="6.7804">
        <ele>1587.75</ele>
        <time>2015-07-27T09:11:09Z</time>
      </trkpt>
      <trkpt lat="46.31938" lon="6.78027">
        <ele>1586.79</ele>
        <time>2015-07-27T09:11:41Z</time>
      </trkpt>
    </trkseg>
  </trk>
  <trk>
    <name><![CDATA[ACTIVE LOG: 27 JUL 2015 11:24]]></name>
    <trkseg>
      <trkpt lat="46.31925" lon="6.78028">
        <ele>1581.99</ele>
        <time>2015-07-27T09:24:50Z</time>
      </trkpt>
      <trkpt lat="46.31921" lon="6.78035">
        <ele>1580.06</ele>
        <time>2015-07-27T09:25:55Z</time>
      </trkpt>
      <trkpt lat="46.31906" lon="6.7808">
        <ele>1572.85</ele>
        <time>2015-07-27T09:27:00Z</time>
      </trkpt>
      <trkpt lat="46.31852" lon="6.78123">
        <ele>1555.55</ele>
        <time>2015-07-27T09:28:05Z</time>
      </trkpt>
      <trkpt lat="46.31804" lon="6.78164">
        <ele>1541.13</ele>
        <time>2015-07-27T09:29:10Z</time>
      </trkpt>
      <trkpt lat="46.31771" lon="6.7822">
        <ele>1525.75</ele>
        <time>2015-07-27T09:30:15Z</time>
      </trkpt>
      <trkpt lat="46.3176" lon="6.78277">
        <ele>1511.33</ele>
        <time>2015-07-27T09:31:20Z</time>
      </trkpt>
      <trkpt lat="46.31745" lon="6.78337">
        <ele>1498.83</ele>
        <time>2015-07-27T09:32:25Z</time>
      </trkpt>
      <trkpt lat="46.31714" lon="6.78366">
        <ele>1494.03</ele>
        <time>2015-07-27T09:33:30Z</time>
      </trkpt>
      <trkpt lat="46.31663" lon="6.78411">
        <ele>1482.01</ele>
        <time>2015-07-27T09:34:35Z</time>
      </trkpt>
      <trkpt lat="46.31718" lon="6.78464">
        <ele>1472.88</ele>
        <time>2015-07-27T09:35:40Z</time>
      </trkpt>
      <trkpt lat="46.31741" lon="6.78557">
        <ele>1461.82</ele>
        <time>2015-07-27T09:36:45Z</time>
      </trkpt>
      <trkpt lat="46.31735" lon="6.7857">
        <ele>1460.38</ele>
        <time>2015-07-27T09:37:50Z</time>
      </trkpt>
      <trkpt lat="46.31696" lon="6.78524">
        <ele>1453.65</ele>
        <time>2015-07-27T09:38:55Z</time>
      </trkpt>
      <trkpt lat="46.31671" lon="6.78551">
        <ele>1438.27</ele>
        <time>2015-07-27T09:40:00Z</time>
      </trkpt>
      <trkpt lat="46.31685" lon="6.78576">
        <ele>1432.02</ele>
        <time>2015-07-27T09:41:05Z</time>
      </trkpt>
      <trkpt lat="46.31646" lon="6.78643">
        <ele>1415.68</ele>
        <time>2015-07-27T09:42:10Z</time>
      </trkpt>
      <trkpt lat="46.31681" lon="6.78701">
        <ele>1400.78</ele>
        <time>2015-07-27T09:43:15Z</time>
      </trkpt>
      <trkpt lat="46.31658" lon="6.78752">
        <ele>1388.76</ele>
        <time>2015-07-27T09:44:20Z</time>
      </trkpt>
      <trkpt lat="46.31629" lon="6.78729">
        <ele>1379.63</ele>
        <time>2015-07-27T09:45:25Z</time>
      </trkpt>
      <trkpt lat="46.31588" lon="6.78697">
        <ele>1364.25</ele>
        <time>2015-07-27T09:46:30Z</time>
      </trkpt>
      <trkpt lat="46.31543" lon="6.78667">
        <ele>1351.75</ele>
        <time>2015-07-27T09:47:35Z</time>
      </trkpt>
      <trkpt lat="46.31495" lon="6.78638">
        <ele>1339.25</ele>
        <time>2015-07-27T09:48:40Z</time>
      </trkpt>
      <trkpt lat="46.31438" lon="6.78631">
        <ele>1326.28</ele>
        <time>2015-07-27T09:49:45Z</time>
      </trkpt>
      <trkpt lat="46.31403" lon="6.78609">
        <ele>1318.59</ele>
        <time>2015-07-27T09:50:50Z</time>
      </trkpt>
      <trkpt lat="46.31337" lon="6.78603">
        <ele>1302.72</ele>
        <time>2015-07-27T09:51:55Z</time>
      </trkpt>
      <trkpt lat="46.31282" lon="6.7861">
        <ele>1292.63</ele>
        <time>2015-07-27T09:53:00Z</time>
      </trkpt>
      <trkpt lat="46.31291" lon="6.78597">
        <ele>1293.11</ele>
        <time>2015-07-27T09:54:05Z</time>
      </trkpt>
      <trkpt lat="46.31289" lon="6.78594">
        <ele>1293.11</ele>
        <time>2015-07-27T09:55:10Z</time>
      </trkpt>
      <trkpt lat="46.31238" lon="6.7859">
        <ele>1283.98</ele>
        <time>2015-07-27T09:56:15Z</time>
      </trkpt>
      <trkpt lat="46.3118" lon="6.78572">
        <ele>1271.48</ele>
        <time>2015-07-27T09:57:20Z</time>
      </trkpt>
      <trkpt lat="46.31123" lon="6.78584">
        <ele>1257.06</ele>
        <time>2015-07-27T09:58:25Z</time>
      </trkpt>
      <trkpt lat="46.31043" lon="6.78594">
        <ele>1242.64</ele>
        <time>2015-07-27T09:59:30Z</time>
      </trkpt>
      <trkpt lat="46.30999" lon="6.78595">
        <ele>1236.87</ele>
        <time>2015-07-27T10:00:35Z</time>
      </trkpt>
      <trkpt lat="46.31" lon="6.78552">
        <ele>1236.87</ele>
        <time>2015-07-27T10:01:40Z</time>
      </trkpt>
      <trkpt lat="46.30989" lon="6.78503">
        <ele>1233.51</ele>
        <time>2015-07-27T10:02:45Z</time>
      </trkpt>
      <trkpt lat="46.30955" lon="6.78554">
        <ele>1227.26</ele>
        <time>2015-07-27T10:03:50Z</time>
      </trkpt>
      <trkpt lat="46.30913" lon="6.78604">
        <ele>1216.21</ele>
        <time>2015-07-27T10:04:55Z</time>
      </trkpt>
      <trkpt lat="46.30889" lon="6.78644">
        <ele>1206.59</ele>
        <time>2015-07-27T10:06:00Z</time>
      </trkpt>
      <trkpt lat="46.30863" lon="6.78669">
        <ele>1200.34</ele>
        <time>2015-07-27T10:07:05Z</time>
      </trkpt>
      <trkpt lat="46.30812" lon="6.78719">
        <ele>1190.73</ele>
        <time>2015-07-27T10:08:10Z</time>
      </trkpt>
      <trkpt lat="46.30771" lon="6.78774">
        <ele>1184</ele>
        <time>2015-07-27T10:09:15Z</time>
      </trkpt>
      <trkpt lat="46.30714" lon="6.78792">
        <ele>1178.71</ele>
        <time>2015-07-27T10:10:20Z</time>
      </trkpt>
      <trkpt lat="46.30651" lon="6.78819">
        <ele>1173.91</ele>
        <time>2015-07-27T10:11:25Z</time>
      </trkpt>
      <trkpt lat="46.30598" lon="6.78862">
        <ele>1164.29</ele>
        <time>2015-07-27T10:12:30Z</time>
      </trkpt>
      <trkpt lat="46.30535" lon="6.78903">
        <ele>1158.53</ele>
        <time>2015-07-27T10:13:35Z</time>
      </trkpt>
      <trkpt lat="46.30455" lon="6.78912">
        <ele>1152.76</ele>
        <time>2015-07-27T10:14:40Z</time>
      </trkpt>
      <trkpt lat="46.3041" lon="6.78931">
        <ele>1146.99</ele>
        <time>2015-07-27T10:15:45Z</time>
      </trkpt>
      <trkpt lat="46.30368" lon="6.78955">
        <ele>1140.74</ele>
        <time>2015-07-27T10:16:50Z</time>
      </trkpt>
      <trkpt lat="46.30312" lon="6.78952">
        <ele>1133.53</ele>
        <time>2015-07-27T10:17:55Z</time>
      </trkpt>
      <trkpt lat="46.30244" lon="6.78958">
        <ele>1124.88</ele>
        <time>2015-07-27T10:19:00Z</time>
      </trkpt>
      <trkpt lat="46.30172" lon="6.78963">
        <ele>1114.31</ele>
        <time>2015-07-27T10:20:05Z</time>
      </trkpt>
      <trkpt lat="46.30111" lon="6.78995">
        <ele>1102.77</ele>
        <time>2015-07-27T10:21:10Z</time>
      </trkpt>
      <trkpt lat="46.30013" lon="6.79023">
        <ele>1094.6</ele>
        <time>2015-07-27T10:22:15Z</time>
      </trkpt>
      <trkpt lat="46.29947" lon="6.78995">
        <ele>1084.5</ele>
        <time>2015-07-27T10:23:20Z</time>
      </trkpt>
      <trkpt lat="46.29868" lon="6.78977">
        <ele>1075.85</ele>
        <time>2015-07-27T10:24:25Z</time>
      </trkpt>
      <trkpt lat="46.29852" lon="6.78964">
        <ele>1072.97</ele>
        <time>2015-07-27T10:25:30Z</time>
      </trkpt>
      <trkpt lat="46.29818" lon="6.78959">
        <ele>1070.08</ele>
        <time>2015-07-27T10:26:35Z</time>
      </trkpt>
      <trkpt lat="46.29749" lon="6.78974">
        <ele>1059.99</ele>
        <time>2015-07-27T10:27:40Z</time>
      </trkpt>
      <trkpt lat="46.29692" lon="6.78912">
        <ele>1052.78</ele>
        <time>2015-07-27T10:28:45Z</time>
      </trkpt>
      <trkpt lat="46.29685" lon="6.78911">
        <ele>1051.82</ele>
        <time>2015-07-27T10:29:50Z</time>
      </trkpt>
      <trkpt lat="46.29636" lon="6.78904">
        <ele>1046.05</ele>
        <time>2015-07-27T10:30:55Z</time>
      </trkpt>
      <trkpt lat="46.29568" lon="6.78862">
        <ele>1039.8</ele>
        <time>2015-07-27T10:32:00Z</time>
      </trkpt>
      <trkpt lat="46.29533" lon="6.78839">
        <ele>1035.96</ele>
        <time>2015-07-27T10:33:05Z</time>
      </trkpt>
      <trkpt lat="46.2953" lon="6.78897">
        <ele>1035.48</ele>
        <time>2015-07-27T10:34:10Z</time>
      </trkpt>
      <trkpt lat="46.2952" lon="6.78991">
        <ele>1036.44</ele>
        <time>2015-07-27T10:35:15Z</time>
      </trkpt>
      <trkpt lat="46.29504" lon="6.79084">
        <ele>1035</ele>
        <time>2015-07-27T10:36:20Z</time>
      </trkpt>
      <trkpt lat="46.29503" lon="6.7902">
        <ele>1035.96</ele>
        <time>2015-07-27T10:37:25Z</time>
      </trkpt>
      <trkpt lat="46.29516" lon="6.78955">
        <ele>1033.55</ele>
        <time>2015-07-27T10:38:30Z</time>
      </trkpt>
      <trkpt lat="46.29519" lon="6.78966">
        <ele>1034.04</ele>
        <time>2015-07-27T10:39:35Z</time>
      </trkpt>
      <trkpt lat="46.29525" lon="6.78897">
        <ele>1032.59</ele>
        <time>2015-07-27T10:40:40Z</time>
      </trkpt>
      <trkpt lat="46.29548" lon="6.78797">
        <ele>1033.55</ele>
        <time>2015-07-27T10:41:45Z</time>
      </trkpt>
      <trkpt lat="46.29566" lon="6.78692">
        <ele>1029.71</ele>
        <time>2015-07-27T10:42:50Z</time>
      </trkpt>
      <trkpt lat="46.29558" lon="6.78585">
        <ele>1025.38</ele>
        <time>2015-07-27T10:43:55Z</time>
      </trkpt>
      <trkpt lat="46.29524" lon="6.7852">
        <ele>1019.13</ele>
        <time>2015-07-27T10:45:00Z</time>
      </trkpt>
      <trkpt lat="46.29552" lon="6.78503">
        <ele>1021.54</ele>
        <time>2015-07-27T10:46:05Z</time>
      </trkpt>
      <trkpt lat="46.29556" lon="6.78515">
        <ele>1022.02</ele>
        <time>2015-07-27T10:47:10Z</time>
      </trkpt>
      <trkpt lat="46.29561" lon="6.78612">
        <ele>1025.86</ele>
        <time>2015-07-27T10:48:15Z</time>
      </trkpt>
      <trkpt lat="46.29522" lon="6.7865">
        <ele>1024.9</ele>
        <time>2015-07-27T10:49:20Z</time>
      </trkpt>
      <trkpt lat="46.29461" lon="6.78623">
        <ele>1019.62</ele>
        <time>2015-07-27T10:50:25Z</time>
      </trkpt>
      <trkpt lat="46.2939" lon="6.78589">
        <ele>1017.21</ele>
        <time>2015-07-27T10:51:30Z</time>
      </trkpt>
      <trkpt lat="46.2932" lon="6.78558">
        <ele>1012.89</ele>
        <time>2015-07-27T10:52:35Z</time>
      </trkpt>
      <trkpt lat="46.2926" lon="6.78499">
        <ele>1008.08</ele>
        <time>2015-07-27T10:53:40Z</time>
      </trkpt>
      <trkpt lat="46.29227" lon="6.78402">
        <ele>1003.75</ele>
        <time>2015-07-27T10:54:45Z</time>
      </trkpt>
      <trkpt lat="46.29268" lon="6.78333">
        <ele>1002.31</ele>
        <time>2015-07-27T10:55:50Z</time>
      </trkpt>
      <trkpt lat="46.29305" lon="6.78316">
        <ele>1002.31</ele>
        <time>2015-07-27T10:56:31Z</time>
      </trkpt>
    </trkseg>
  </trk>
  <trk>
    <name><![CDATA[ACTIVE LOG: 27 JUL 2015 13:58]]></name>
    <trkseg>
      <trkpt lat="46.29307" lon="6.78314">
        <ele>1006.16</ele>
        <time>2015-07-27T11:58:45Z</time>
      </trkpt>
      <trkpt lat="46.29293" lon="6.78317">
        <ele>995.1</ele>
        <time>2015-07-27T11:59:50Z</time>
      </trkpt>
      <trkpt lat="46.29293" lon="6.78317">
        <ele>995.1</ele>
        <time>2015-07-27T12:00:55Z</time>
      </trkpt>
      <trkpt lat="46.29281" lon="6.78325">
        <ele>995.1</ele>
        <time>2015-07-27T12:02:00Z</time>
      </trkpt>
      <trkpt lat="46.29225" lon="6.78354">
        <ele>996.54</ele>
        <time>2015-07-27T12:03:05Z</time>
      </trkpt>
      <trkpt lat="46.29195" lon="6.78346">
        <ele>997.51</ele>
        <time>2015-07-27T12:04:10Z</time>
      </trkpt>
      <trkpt lat="46.29141" lon="6.78369">
        <ele>1001.35</ele>
        <time>2015-07-27T12:05:15Z</time>
      </trkpt>
      <trkpt lat="46.29117" lon="6.78375">
        <ele>1011.44</ele>
        <time>2015-07-27T12:06:20Z</time>
      </trkpt>
      <trkpt lat="46.29097" lon="6.78394">
        <ele>1020.58</ele>
        <time>2015-07-27T12:07:25Z</time>
      </trkpt>
      <trkpt lat="46.29084" lon="6.78428">
        <ele>1030.19</ele>
        <time>2015-07-27T12:08:30Z</time>
      </trkpt>
      <trkpt lat="46.29067" lon="6.78468">
        <ele>1036.44</ele>
        <time>2015-07-27T12:09:35Z</time>
      </trkpt>
      <trkpt lat="46.29046" lon="6.785">
        <ele>1047.49</ele>
        <time>2015-07-27T12:10:40Z</time>
      </trkpt>
      <trkpt lat="46.29029" lon="6.78536">
        <ele>1056.15</ele>
        <time>2015-07-27T12:11:45Z</time>
      </trkpt>
      <trkpt lat="46.29013" lon="6.78557">
        <ele>1066.24</ele>
        <time>2015-07-27T12:12:50Z</time>
      </trkpt>
      <trkpt lat="46.29006" lon="6.78549">
        <ele>1070.57</ele>
        <time>2015-07-27T12:13:55Z</time>
      </trkpt>
      <trkpt lat="46.28993" lon="6.78587">
        <ele>1080.18</ele>
        <time>2015-07-27T12:15:00Z</time>
      </trkpt>
      <trkpt lat="46.28972" lon="6.78613">
        <ele>1090.75</ele>
        <time>2015-07-27T12:16:05Z</time>
      </trkpt>
      <trkpt lat="46.28953" lon="6.7864">
        <ele>1100.37</ele>
        <time>2015-07-27T12:17:10Z</time>
      </trkpt>
      <trkpt lat="46.28947" lon="6.78646">
        <ele>1108.54</ele>
        <time>2015-07-27T12:18:15Z</time>
      </trkpt>
      <trkpt lat="46.28914" lon="6.78683">
        <ele>1119.11</ele>
        <time>2015-07-27T12:19:20Z</time>
      </trkpt>
      <trkpt lat="46.28902" lon="6.78702">
        <ele>1127.28</ele>
        <time>2015-07-27T12:20:25Z</time>
      </trkpt>
      <trkpt lat="46.28886" lon="6.78662">
        <ele>1131.13</ele>
        <time>2015-07-27T12:21:30Z</time>
      </trkpt>
      <trkpt lat="46.28876" lon="6.78607">
        <ele>1139.3</ele>
        <time>2015-07-27T12:22:35Z</time>
      </trkpt>
      <trkpt lat="46.28879" lon="6.78551">
        <ele>1146.99</ele>
        <time>2015-07-27T12:23:40Z</time>
      </trkpt>
      <trkpt lat="46.28864" lon="6.78487">
        <ele>1154.2</ele>
        <time>2015-07-27T12:24:45Z</time>
      </trkpt>
      <trkpt lat="46.28854" lon="6.78434">
        <ele>1161.41</ele>
        <time>2015-07-27T12:25:50Z</time>
      </trkpt>
      <trkpt lat="46.2883" lon="6.78396">
        <ele>1169.58</ele>
        <time>2015-07-27T12:26:55Z</time>
      </trkpt>
      <trkpt lat="46.28804" lon="6.78351">
        <ele>1179.19</ele>
        <time>2015-07-27T12:28:00Z</time>
      </trkpt>
      <trkpt lat="46.28785" lon="6.78312">
        <ele>1187.37</ele>
        <time>2015-07-27T12:29:05Z</time>
      </trkpt>
      <trkpt lat="46.28757" lon="6.78292">
        <ele>1196.98</ele>
        <time>2015-07-27T12:30:10Z</time>
      </trkpt>
      <trkpt lat="46.28742" lon="6.78308">
        <ele>1206.11</ele>
        <time>2015-07-27T12:31:15Z</time>
      </trkpt>
      <trkpt lat="46.28705" lon="6.78309">
        <ele>1211.4</ele>
        <time>2015-07-27T12:32:20Z</time>
      </trkpt>
      <trkpt lat="46.28681" lon="6.78309">
        <ele>1219.09</ele>
        <time>2015-07-27T12:33:25Z</time>
      </trkpt>
      <trkpt lat="46.28643" lon="6.78304">
        <ele>1224.38</ele>
        <time>2015-07-27T12:34:30Z</time>
      </trkpt>
      <trkpt lat="46.28602" lon="6.78306">
        <ele>1232.55</ele>
        <time>2015-07-27T12:35:35Z</time>
      </trkpt>
      <trkpt lat="46.28563" lon="6.78273">
        <ele>1240.72</ele>
        <time>2015-07-27T12:36:40Z</time>
      </trkpt>
      <trkpt lat="46.28544" lon="6.78241">
        <ele>1249.85</ele>
        <time>2015-07-27T12:37:45Z</time>
      </trkpt>
      <trkpt lat="46.28512" lon="6.78245">
        <ele>1257.54</ele>
        <time>2015-07-27T12:38:50Z</time>
      </trkpt>
      <trkpt lat="46.28508" lon="6.78265">
        <ele>1262.35</ele>
        <time>2015-07-27T12:39:55Z</time>
      </trkpt>
      <trkpt lat="46.28518" lon="6.78323">
        <ele>1264.27</ele>
        <time>2015-07-27T12:41:00Z</time>
      </trkpt>
      <trkpt lat="46.28559" lon="6.78389">
        <ele>1267.64</ele>
        <time>2015-07-27T12:42:05Z</time>
      </trkpt>
      <trkpt lat="46.28606" lon="6.78467">
        <ele>1270.04</ele>
        <time>2015-07-27T12:43:10Z</time>
      </trkpt>
      <trkpt lat="46.2862" lon="6.78552">
        <ele>1273.88</ele>
        <time>2015-07-27T12:44:15Z</time>
      </trkpt>
      <trkpt lat="46.2862" lon="6.78655">
        <ele>1274.85</ele>
        <time>2015-07-27T12:45:20Z</time>
      </trkpt>
      <trkpt lat="46.28604" lon="6.78755">
        <ele>1273.88</ele>
        <time>2015-07-27T12:46:25Z</time>
      </trkpt>
      <trkpt lat="46.28591" lon="6.78846">
        <ele>1273.88</ele>
        <time>2015-07-27T12:47:30Z</time>
      </trkpt>
      <trkpt lat="46.2858" lon="6.78943">
        <ele>1275.33</ele>
        <time>2015-07-27T12:48:35Z</time>
      </trkpt>
      <trkpt lat="46.2856" lon="6.79044">
        <ele>1273.88</ele>
        <time>2015-07-27T12:49:40Z</time>
      </trkpt>
      <trkpt lat="46.28537" lon="6.79141">
        <ele>1273.88</ele>
        <time>2015-07-27T12:50:45Z</time>
      </trkpt>
      <trkpt lat="46.28527" lon="6.79172">
        <ele>1273.4</ele>
        <time>2015-07-27T12:51:50Z</time>
      </trkpt>
      <trkpt lat="46.2852" lon="6.79192">
        <ele>1272.92</ele>
        <time>2015-07-27T12:52:55Z</time>
      </trkpt>
      <trkpt lat="46.28502" lon="6.79259">
        <ele>1271.48</ele>
        <time>2015-07-27T12:54:00Z</time>
      </trkpt>
      <trkpt lat="46.28478" lon="6.79349">
        <ele>1268.6</ele>
        <time>2015-07-27T12:55:05Z</time>
      </trkpt>
      <trkpt lat="46.28449" lon="6.79439">
        <ele>1266.67</ele>
        <time>2015-07-27T12:56:10Z</time>
      </trkpt>
      <trkpt lat="46.28421" lon="6.79539">
        <ele>1264.27</ele>
        <time>2015-07-27T12:57:15Z</time>
      </trkpt>
      <trkpt lat="46.2839" lon="6.7964">
        <ele>1263.79</ele>
        <time>2015-07-27T12:58:20Z</time>
      </trkpt>
      <trkpt lat="46.28341" lon="6.79721">
        <ele>1265.71</ele>
        <time>2015-07-27T12:59:25Z</time>
      </trkpt>
      <trkpt lat="46.28291" lon="6.79805">
        <ele>1264.27</ele>
        <time>2015-07-27T13:00:30Z</time>
      </trkpt>
      <trkpt lat="46.2824" lon="6.7987">
        <ele>1264.75</ele>
        <time>2015-07-27T13:01:35Z</time>
      </trkpt>
      <trkpt lat="46.28196" lon="6.79956">
        <ele>1263.79</ele>
        <time>2015-07-27T13:02:40Z</time>
      </trkpt>
      <trkpt lat="46.28118" lon="6.79968">
        <ele>1263.79</ele>
        <time>2015-07-27T13:03:45Z</time>
      </trkpt>
      <trkpt lat="46.28039" lon="6.79928">
        <ele>1267.64</ele>
        <time>2015-07-27T13:04:50Z</time>
      </trkpt>
      <trkpt lat="46.27996" lon="6.79899">
        <ele>1273.4</ele>
        <time>2015-07-27T13:05:55Z</time>
      </trkpt>
      <trkpt lat="46.27934" lon="6.79906">
        <ele>1278.21</ele>
        <time>2015-07-27T13:07:00Z</time>
      </trkpt>
      <trkpt lat="46.27855" lon="6.79887">
        <ele>1283.02</ele>
        <time>2015-07-27T13:08:05Z</time>
      </trkpt>
      <trkpt lat="46.27793" lon="6.79864">
        <ele>1288.78</ele>
        <time>2015-07-27T13:09:10Z</time>
      </trkpt>
      <trkpt lat="46.27736" lon="6.79869">
        <ele>1293.11</ele>
        <time>2015-07-27T13:10:15Z</time>
      </trkpt>
      <trkpt lat="46.27674" lon="6.79908">
        <ele>1300.8</ele>
        <time>2015-07-27T13:11:20Z</time>
      </trkpt>
      <trkpt lat="46.27604" lon="6.79918">
        <ele>1306.09</ele>
        <time>2015-07-27T13:12:23Z</time>
      </trkpt>
    </trkseg>
  </trk>
  <trk>
    <name><![CDATA[ACTIVE LOG: 27 JUL 2015 15:25]]></name>
    <trkseg>
      <trkpt lat="46.27642" lon="6.79923">
        <ele>1307.53</ele>
        <time>2015-07-27T13:26:30Z</time>
      </trkpt>
      <trkpt lat="46.27616" lon="6.79953">
        <ele>1312.34</ele>
        <time>2015-07-27T13:27:35Z</time>
      </trkpt>
      <trkpt lat="46.27585" lon="6.79986">
        <ele>1322.43</ele>
        <time>2015-07-27T13:28:40Z</time>
      </trkpt>
      <trkpt lat="46.27542" lon="6.79997">
        <ele>1333.01</ele>
        <time>2015-07-27T13:29:45Z</time>
      </trkpt>
      <trkpt lat="46.27521" lon="6.80009">
        <ele>1344.06</ele>
        <time>2015-07-27T13:30:50Z</time>
      </trkpt>
      <trkpt lat="46.27487" lon="6.80013">
        <ele>1356.56</ele>
        <time>2015-07-27T13:31:55Z</time>
      </trkpt>
      <trkpt lat="46.27438" lon="6.80011">
        <ele>1367.13</ele>
        <time>2015-07-27T13:33:00Z</time>
      </trkpt>
      <trkpt lat="46.27357" lon="6.79996">
        <ele>1380.11</ele>
        <time>2015-07-27T13:34:05Z</time>
      </trkpt>
      <trkpt lat="46.27303" lon="6.79983">
        <ele>1389.24</ele>
        <time>2015-07-27T13:35:10Z</time>
      </trkpt>
      <trkpt lat="46.27261" lon="6.79964">
        <ele>1398.37</ele>
        <time>2015-07-27T13:36:15Z</time>
      </trkpt>
      <trkpt lat="46.27227" lon="6.79924">
        <ele>1409.43</ele>
        <time>2015-07-27T13:37:20Z</time>
      </trkpt>
      <trkpt lat="46.27221" lon="6.79967">
        <ele>1419.52</ele>
        <time>2015-07-27T13:38:25Z</time>
      </trkpt>
      <trkpt lat="46.27195" lon="6.80001">
        <ele>1428.66</ele>
        <time>2015-07-27T13:39:30Z</time>
      </trkpt>
      <trkpt lat="46.27173" lon="6.79992">
        <ele>1435.39</ele>
        <time>2015-07-27T13:40:35Z</time>
      </trkpt>
      <trkpt lat="46.27141" lon="6.79975">
        <ele>1446.44</ele>
        <time>2015-07-27T13:41:40Z</time>
      </trkpt>
      <trkpt lat="46.27116" lon="6.79954">
        <ele>1451.73</ele>
        <time>2015-07-27T13:42:45Z</time>
      </trkpt>
      <trkpt lat="46.2708" lon="6.79921">
        <ele>1461.34</ele>
        <time>2015-07-27T13:43:50Z</time>
      </trkpt>
      <trkpt lat="46.27038" lon="6.79921">
        <ele>1470.95</ele>
        <time>2015-07-27T13:44:55Z</time>
      </trkpt>
      <trkpt lat="46.26995" lon="6.79917">
        <ele>1482.01</ele>
        <time>2015-07-27T13:46:00Z</time>
      </trkpt>
      <trkpt lat="46.2696" lon="6.79913">
        <ele>1489.7</ele>
        <time>2015-07-27T13:47:05Z</time>
      </trkpt>
      <trkpt lat="46.26935" lon="6.79896">
        <ele>1497.87</ele>
        <time>2015-07-27T13:48:10Z</time>
      </trkpt>
      <trkpt lat="46.26922" lon="6.79915">
        <ele>1502.2</ele>
        <time>2015-07-27T13:49:15Z</time>
      </trkpt>
      <trkpt lat="46.26914" lon="6.79958">
        <ele>1512.77</ele>
        <time>2015-07-27T13:50:20Z</time>
      </trkpt>
      <trkpt lat="46.26927" lon="6.80008">
        <ele>1516.62</ele>
        <time>2015-07-27T13:51:25Z</time>
      </trkpt>
      <trkpt lat="46.26941" lon="6.80027">
        <ele>1516.14</ele>
        <time>2015-07-27T13:52:30Z</time>
      </trkpt>
      <trkpt lat="46.2694" lon="6.80087">
        <ele>1516.62</ele>
        <time>2015-07-27T13:53:35Z</time>
      </trkpt>
      <trkpt lat="46.26932" lon="6.80092">
        <ele>1519.98</ele>
        <time>2015-07-27T13:54:40Z</time>
      </trkpt>
      <trkpt lat="46.26915" lon="6.80045">
        <ele>1530.56</ele>
        <time>2015-07-27T13:55:45Z</time>
      </trkpt>
      <trkpt lat="46.26867" lon="6.8005">
        <ele>1540.65</ele>
        <time>2015-07-27T13:56:50Z</time>
      </trkpt>
      <trkpt lat="46.26867" lon="6.80054">
        <ele>1549.3</ele>
        <time>2015-07-27T13:57:55Z</time>
      </trkpt>
      <trkpt lat="46.26851" lon="6.80106">
        <ele>1558.43</ele>
        <time>2015-07-27T13:59:00Z</time>
      </trkpt>
      <trkpt lat="46.26836" lon="6.80119">
        <ele>1568.05</ele>
        <time>2015-07-27T14:00:05Z</time>
      </trkpt>
      <trkpt lat="46.26835" lon="6.80108">
        <ele>1569.01</ele>
        <time>2015-07-27T14:01:10Z</time>
      </trkpt>
      <trkpt lat="46.26816" lon="6.80103">
        <ele>1574.78</ele>
        <time>2015-07-27T14:02:15Z</time>
      </trkpt>
      <trkpt lat="46.26801" lon="6.80073">
        <ele>1584.87</ele>
        <time>2015-07-27T14:03:20Z</time>
      </trkpt>
      <trkpt lat="46.26797" lon="6.80058">
        <ele>1587.27</ele>
        <time>2015-07-27T14:04:09Z</time>
      </trkpt>
      <trkpt lat="46.26798" lon="6.80056">
        <ele>1586.79</ele>
        <time>2015-07-27T14:07:32Z</time>
      </trkpt>
      <trkpt lat="46.26765" lon="6.80063">
        <ele>1596.41</ele>
        <time>2015-07-27T14:08:37Z</time>
      </trkpt>
      <trkpt lat="46.26759" lon="6.80109">
        <ele>1605.06</ele>
        <time>2015-07-27T14:09:42Z</time>
      </trkpt>
      <trkpt lat="46.26741" lon="6.80115">
        <ele>1615.63</ele>
        <time>2015-07-27T14:10:47Z</time>
      </trkpt>
      <trkpt lat="46.26713" lon="6.80089">
        <ele>1624.28</ele>
        <time>2015-07-27T14:11:52Z</time>
      </trkpt>
      <trkpt lat="46.26694" lon="6.80056">
        <ele>1633.9</ele>
        <time>2015-07-27T14:12:57Z</time>
      </trkpt>
      <trkpt lat="46.26681" lon="6.8004">
        <ele>1642.55</ele>
        <time>2015-07-27T14:14:02Z</time>
      </trkpt>
      <trkpt lat="46.26665" lon="6.80021">
        <ele>1652.64</ele>
        <time>2015-07-27T14:15:07Z</time>
      </trkpt>
      <trkpt lat="46.26646" lon="6.79995">
        <ele>1661.78</ele>
        <time>2015-07-27T14:16:12Z</time>
      </trkpt>
      <trkpt lat="46.26641" lon="6.79974">
        <ele>1665.14</ele>
        <time>2015-07-27T14:17:17Z</time>
      </trkpt>
      <trkpt lat="46.26633" lon="6.79965">
        <ele>1668.51</ele>
        <time>2015-07-27T14:18:22Z</time>
      </trkpt>
      <trkpt lat="46.26617" lon="6.79963">
        <ele>1678.6</ele>
        <time>2015-07-27T14:19:27Z</time>
      </trkpt>
      <trkpt lat="46.266" lon="6.79934">
        <ele>1690.14</ele>
        <time>2015-07-27T14:20:32Z</time>
      </trkpt>
      <trkpt lat="46.26581" lon="6.79904">
        <ele>1698.31</ele>
        <time>2015-07-27T14:21:37Z</time>
      </trkpt>
      <trkpt lat="46.26577" lon="6.79896">
        <ele>1699.75</ele>
        <time>2015-07-27T14:22:42Z</time>
      </trkpt>
      <trkpt lat="46.26571" lon="6.79883">
        <ele>1703.59</ele>
        <time>2015-07-27T14:23:47Z</time>
      </trkpt>
      <trkpt lat="46.26555" lon="6.7983">
        <ele>1710.8</ele>
        <time>2015-07-27T14:24:52Z</time>
      </trkpt>
      <trkpt lat="46.26555" lon="6.79775">
        <ele>1720.42</ele>
        <time>2015-07-27T14:25:57Z</time>
      </trkpt>
      <trkpt lat="46.26551" lon="6.79735">
        <ele>1730.51</ele>
        <time>2015-07-27T14:27:02Z</time>
      </trkpt>
      <trkpt lat="46.26557" lon="6.79677">
        <ele>1734.36</ele>
        <time>2015-07-27T14:28:07Z</time>
      </trkpt>
      <trkpt lat="46.26567" lon="6.79625">
        <ele>1738.68</ele>
        <time>2015-07-27T14:29:12Z</time>
      </trkpt>
      <trkpt lat="46.26581" lon="6.79567">
        <ele>1746.37</ele>
        <time>2015-07-27T14:30:17Z</time>
      </trkpt>
      <trkpt lat="46.26581" lon="6.79521">
        <ele>1751.66</ele>
        <time>2015-07-27T14:31:22Z</time>
      </trkpt>
      <trkpt lat="46.26597" lon="6.79453">
        <ele>1758.87</ele>
        <time>2015-07-27T14:32:27Z</time>
      </trkpt>
      <trkpt lat="46.26635" lon="6.79438">
        <ele>1767.04</ele>
        <time>2015-07-27T14:33:32Z</time>
      </trkpt>
      <trkpt lat="46.2667" lon="6.79451">
        <ele>1774.25</ele>
        <time>2015-07-27T14:34:37Z</time>
      </trkpt>
      <trkpt lat="46.26695" lon="6.79414">
        <ele>1781.94</ele>
        <time>2015-07-27T14:35:42Z</time>
      </trkpt>
      <trkpt lat="46.26715" lon="6.7938">
        <ele>1793.48</ele>
        <time>2015-07-27T14:36:47Z</time>
      </trkpt>
      <trkpt lat="46.26718" lon="6.79358">
        <ele>1801.17</ele>
        <time>2015-07-27T14:37:52Z</time>
      </trkpt>
      <trkpt lat="46.2671" lon="6.79313">
        <ele>1811.74</ele>
        <time>2015-07-27T14:38:57Z</time>
      </trkpt>
      <trkpt lat="46.26691" lon="6.79272">
        <ele>1821.84</ele>
        <time>2015-07-27T14:40:02Z</time>
      </trkpt>
      <trkpt lat="46.26668" lon="6.79243">
        <ele>1830.01</ele>
        <time>2015-07-27T14:41:07Z</time>
      </trkpt>
      <trkpt lat="46.2666" lon="6.79218">
        <ele>1837.7</ele>
        <time>2015-07-27T14:42:12Z</time>
      </trkpt>
      <trkpt lat="46.26684" lon="6.79198">
        <ele>1846.83</ele>
        <time>2015-07-27T14:43:17Z</time>
      </trkpt>
      <trkpt lat="46.267" lon="6.79177">
        <ele>1857.4</ele>
        <time>2015-07-27T14:44:22Z</time>
      </trkpt>
      <trkpt lat="46.26728" lon="6.79185">
        <ele>1868.94</ele>
        <time>2015-07-27T14:45:27Z</time>
      </trkpt>
      <trkpt lat="46.26742" lon="6.79182">
        <ele>1873.27</ele>
        <time>2015-07-27T14:46:32Z</time>
      </trkpt>
      <trkpt lat="46.26742" lon="6.79183">
        <ele>1871.34</ele>
        <time>2015-07-27T14:47:03Z</time>
      </trkpt>
    </trkseg>
  </trk>
  <trk>
    <name><![CDATA[ACTIVE LOG: 28 JUL 2015 08:07]]></name>
    <trkseg>
      <trkpt lat="46.2673" lon="6.79172">
        <ele>1872.3</ele>
        <time>2015-07-28T06:07:10Z</time>
      </trkpt>
      <trkpt lat="46.26707" lon="6.79138">
        <ele>1876.63</ele>
        <time>2015-07-28T06:08:15Z</time>
      </trkpt>
      <trkpt lat="46.26656" lon="6.79131">
        <ele>1871.34</ele>
        <time>2015-07-28T06:09:20Z</time>
      </trkpt>
      <trkpt lat="46.26601" lon="6.79131">
        <ele>1872.79</ele>
        <time>2015-07-28T06:10:25Z</time>
      </trkpt>
      <trkpt lat="46.26576" lon="6.79137">
        <ele>1871.34</ele>
        <time>2015-07-28T06:11:30Z</time>
      </trkpt>
      <trkpt lat="46.26524" lon="6.7917">
        <ele>1873.75</ele>
        <time>2015-07-28T06:12:35Z</time>
      </trkpt>
      <trkpt lat="46.26473" lon="6.79228">
        <ele>1876.15</ele>
        <time>2015-07-28T06:13:40Z</time>
      </trkpt>
      <trkpt lat="46.26436" lon="6.7929">
        <ele>1878.55</ele>
        <time>2015-07-28T06:14:45Z</time>
      </trkpt>
      <trkpt lat="46.26397" lon="6.79347">
        <ele>1885.76</ele>
        <time>2015-07-28T06:15:50Z</time>
      </trkpt>
      <trkpt lat="46.26381" lon="6.7937">
        <ele>1892.01</ele>
        <time>2015-07-28T06:16:55Z</time>
      </trkpt>
      <trkpt lat="46.26371" lon="6.79395">
        <ele>1896.34</ele>
        <time>2015-07-28T06:18:00Z</time>
      </trkpt>
      <trkpt lat="46.26352" lon="6.79418">
        <ele>1905.95</ele>
        <time>2015-07-28T06:19:05Z</time>
      </trkpt>
      <trkpt lat="46.26339" lon="6.79397">
        <ele>1917.97</ele>
        <time>2015-07-28T06:20:10Z</time>
      </trkpt>
      <trkpt lat="46.26338" lon="6.7937">
        <ele>1929.02</ele>
        <time>2015-07-28T06:21:15Z</time>
      </trkpt>
      <trkpt lat="46.26323" lon="6.7937">
        <ele>1937.67</ele>
        <time>2015-07-28T06:22:20Z</time>
      </trkpt>
      <trkpt lat="46.26312" lon="6.79363">
        <ele>1947.29</ele>
        <time>2015-07-28T06:23:25Z</time>
      </trkpt>
      <trkpt lat="46.26315" lon="6.79332">
        <ele>1959.3</ele>
        <time>2015-07-28T06:24:30Z</time>
      </trkpt>
      <trkpt lat="46.26306" lon="6.7933">
        <ele>1970.84</ele>
        <time>2015-07-28T06:25:35Z</time>
      </trkpt>
      <trkpt lat="46.26302" lon="6.79316">
        <ele>1977.09</ele>
        <time>2015-07-28T06:26:40Z</time>
      </trkpt>
      <trkpt lat="46.26291" lon="6.79318">
        <ele>1974.69</ele>
        <time>2015-07-28T06:27:45Z</time>
      </trkpt>
      <trkpt lat="46.26284" lon="6.79318">
        <ele>1971.8</ele>
        <time>2015-07-28T06:28:50Z</time>
      </trkpt>
      <trkpt lat="46.26259" lon="6.79342">
        <ele>1970.36</ele>
        <time>2015-07-28T06:29:55Z</time>
      </trkpt>
      <trkpt lat="46.26246" lon="6.79388">
        <ele>1966.51</ele>
        <time>2015-07-28T06:31:00Z</time>
      </trkpt>
      <trkpt lat="46.26232" lon="6.79488">
        <ele>1958.34</ele>
        <time>2015-07-28T06:32:05Z</time>
      </trkpt>
      <trkpt lat="46.26185" lon="6.79572">
        <ele>1948.25</ele>
        <time>2015-07-28T06:33:10Z</time>
      </trkpt>
      <trkpt lat="46.26139" lon="6.7955">
        <ele>1938.16</ele>
        <time>2015-07-28T06:34:15Z</time>
      </trkpt>
      <trkpt lat="46.26088" lon="6.79576">
        <ele>1925.18</ele>
        <time>2015-07-28T06:35:20Z</time>
      </trkpt>
      <trkpt lat="46.26037" lon="6.79597">
        <ele>1909.32</ele>
        <time>2015-07-28T06:36:25Z</time>
      </trkpt>
      <trkpt lat="46.26031" lon="6.79557">
        <ele>1901.14</ele>
        <time>2015-07-28T06:37:30Z</time>
      </trkpt>
      <trkpt lat="46.26058" lon="6.79494">
        <ele>1897.3</ele>
        <time>2015-07-28T06:38:35Z</time>
      </trkpt>
      <trkpt lat="46.26085" lon="6.79405">
        <ele>1891.53</ele>
        <time>2015-07-28T06:39:40Z</time>
      </trkpt>
      <trkpt lat="46.26101" lon="6.79309">
        <ele>1888.17</ele>
        <time>2015-07-28T06:40:45Z</time>
      </trkpt>
      <trkpt lat="46.2607" lon="6.79281">
        <ele>1880.48</ele>
        <time>2015-07-28T06:41:50Z</time>
      </trkpt>
      <trkpt lat="46.26068" lon="6.79327">
        <ele>1867.02</ele>
        <time>2015-07-28T06:42:55Z</time>
      </trkpt>
      <trkpt lat="46.26049" lon="6.79371">
        <ele>1859.81</ele>
        <time>2015-07-28T06:44:00Z</time>
      </trkpt>
      <trkpt lat="46.25996" lon="6.79433">
        <ele>1858.85</ele>
        <time>2015-07-28T06:45:05Z</time>
      </trkpt>
      <trkpt lat="46.25931" lon="6.79449">
        <ele>1850.19</ele>
        <time>2015-07-28T06:46:10Z</time>
      </trkpt>
      <trkpt lat="46.2592" lon="6.79501">
        <ele>1839.14</ele>
        <time>2015-07-28T06:47:15Z</time>
      </trkpt>
      <trkpt lat="46.25901" lon="6.79522">
        <ele>1828.56</ele>
        <time>2015-07-28T06:48:20Z</time>
      </trkpt>
      <trkpt lat="46.2588" lon="6.795">
        <ele>1814.15</ele>
        <time>2015-07-28T06:49:25Z</time>
      </trkpt>
      <trkpt lat="46.25857" lon="6.7945">
        <ele>1801.65</ele>
        <time>2015-07-28T06:50:30Z</time>
      </trkpt>
      <trkpt lat="46.25818" lon="6.79454">
        <ele>1786.27</ele>
        <time>2015-07-28T06:51:35Z</time>
      </trkpt>
      <trkpt lat="46.258" lon="6.79417">
        <ele>1777.61</ele>
        <time>2015-07-28T06:52:40Z</time>
      </trkpt>
      <trkpt lat="46.25792" lon="6.79475">
        <ele>1768.96</ele>
        <time>2015-07-28T06:53:45Z</time>
      </trkpt>
      <trkpt lat="46.25768" lon="6.79492">
        <ele>1759.83</ele>
        <time>2015-07-28T06:54:50Z</time>
      </trkpt>
      <trkpt lat="46.25735" lon="6.79425">
        <ele>1744.45</ele>
        <time>2015-07-28T06:55:55Z</time>
      </trkpt>
      <trkpt lat="46.25701" lon="6.79417">
        <ele>1728.59</ele>
        <time>2015-07-28T06:57:00Z</time>
      </trkpt>
      <trkpt lat="46.25713" lon="6.79358">
        <ele>1718.49</ele>
        <time>2015-07-28T06:58:05Z</time>
      </trkpt>
      <trkpt lat="46.25736" lon="6.79276">
        <ele>1712.25</ele>
        <time>2015-07-28T06:59:10Z</time>
      </trkpt>
      <trkpt lat="46.25746" lon="6.79196">
        <ele>1710.8</ele>
        <time>2015-07-28T07:00:15Z</time>
      </trkpt>
      <trkpt lat="46.25711" lon="6.79185">
        <ele>1701.19</ele>
        <time>2015-07-28T07:01:20Z</time>
      </trkpt>
      <trkpt lat="46.25675" lon="6.79217">
        <ele>1686.77</ele>
        <time>2015-07-28T07:02:25Z</time>
      </trkpt>
      <trkpt lat="46.25625" lon="6.79229">
        <ele>1673.31</ele>
        <time>2015-07-28T07:03:30Z</time>
      </trkpt>
      <trkpt lat="46.25606" lon="6.79215">
        <ele>1670.43</ele>
        <time>2015-07-28T07:04:35Z</time>
      </trkpt>
      <trkpt lat="46.25571" lon="6.79168">
        <ele>1673.31</ele>
        <time>2015-07-28T07:05:40Z</time>
      </trkpt>
      <trkpt lat="46.25522" lon="6.79112">
        <ele>1679.56</ele>
        <time>2015-07-28T07:06:45Z</time>
      </trkpt>
      <trkpt lat="46.25483" lon="6.79064">
        <ele>1689.65</ele>
        <time>2015-07-28T07:07:50Z</time>
      </trkpt>
      <trkpt lat="46.25465" lon="6.791">
        <ele>1695.9</ele>
        <time>2015-07-28T07:08:55Z</time>
      </trkpt>
      <trkpt lat="46.25417" lon="6.79144">
        <ele>1703.11</ele>
        <time>2015-07-28T07:10:00Z</time>
      </trkpt>
      <trkpt lat="46.25415" lon="6.79143">
        <ele>1702.15</ele>
        <time>2015-07-28T07:11:05Z</time>
      </trkpt>
      <trkpt lat="46.25385" lon="6.79159">
        <ele>1701.19</ele>
        <time>2015-07-28T07:12:10Z</time>
      </trkpt>
      <trkpt lat="46.25325" lon="6.79169">
        <ele>1706</ele>
        <time>2015-07-28T07:13:15Z</time>
      </trkpt>
      <trkpt lat="46.25271" lon="6.79155">
        <ele>1714.65</ele>
        <time>2015-07-28T07:14:20Z</time>
      </trkpt>
      <trkpt lat="46.25224" lon="6.7914">
        <ele>1723.3</ele>
        <time>2015-07-28T07:15:25Z</time>
      </trkpt>
      <trkpt lat="46.25173" lon="6.79129">
        <ele>1730.99</ele>
        <time>2015-07-28T07:16:30Z</time>
      </trkpt>
      <trkpt lat="46.25125" lon="6.79095">
        <ele>1738.68</ele>
        <time>2015-07-28T07:17:35Z</time>
      </trkpt>
      <trkpt lat="46.25074" lon="6.79082">
        <ele>1746.85</ele>
        <time>2015-07-28T07:18:40Z</time>
      </trkpt>
      <trkpt lat="46.25026" lon="6.79068">
        <ele>1756.47</ele>
        <time>2015-07-28T07:19:45Z</time>
      </trkpt>
      <trkpt lat="46.24973" lon="6.79048">
        <ele>1763.2</ele>
        <time>2015-07-28T07:20:50Z</time>
      </trkpt>
      <trkpt lat="46.24919" lon="6.79038">
        <ele>1771.37</ele>
        <time>2015-07-28T07:21:55Z</time>
      </trkpt>
      <trkpt lat="46.24883" lon="6.79041">
        <ele>1775.69</ele>
        <time>2015-07-28T07:23:00Z</time>
      </trkpt>
      <trkpt lat="46.24829" lon="6.79028">
        <ele>1782.9</ele>
        <time>2015-07-28T07:24:05Z</time>
      </trkpt>
      <trkpt lat="46.24807" lon="6.78976">
        <ele>1791.55</ele>
        <time>2015-07-28T07:25:10Z</time>
      </trkpt>
      <trkpt lat="46.24835" lon="6.78979">
        <ele>1800.69</ele>
        <time>2015-07-28T07:26:15Z</time>
      </trkpt>
      <trkpt lat="46.24798" lon="6.78936">
        <ele>1809.82</ele>
        <time>2015-07-28T07:27:20Z</time>
      </trkpt>
      <trkpt lat="46.24801" lon="6.78912">
        <ele>1816.55</ele>
        <time>2015-07-28T07:28:25Z</time>
      </trkpt>
      <trkpt lat="46.24844" lon="6.78923">
        <ele>1825.2</ele>
        <time>2015-07-28T07:29:30Z</time>
      </trkpt>
      <trkpt lat="46.24804" lon="6.78885">
        <ele>1833.37</ele>
        <time>2015-07-28T07:30:35Z</time>
      </trkpt>
      <trkpt lat="46.2477" lon="6.78836">
        <ele>1842.98</ele>
        <time>2015-07-28T07:31:40Z</time>
      </trkpt>
      <trkpt lat="46.24755" lon="6.78806">
        <ele>1844.43</ele>
        <time>2015-07-28T07:32:45Z</time>
      </trkpt>
      <trkpt lat="46.2474" lon="6.78735">
        <ele>1841.54</ele>
        <time>2015-07-28T07:33:50Z</time>
      </trkpt>
      <trkpt lat="46.24749" lon="6.78632">
        <ele>1832.89</ele>
        <time>2015-07-28T07:34:55Z</time>
      </trkpt>
      <trkpt lat="46.24777" lon="6.78534">
        <ele>1825.2</ele>
        <time>2015-07-28T07:36:00Z</time>
      </trkpt>
      <trkpt lat="46.24794" lon="6.7845">
        <ele>1817.03</ele>
        <time>2015-07-28T07:37:05Z</time>
      </trkpt>
      <trkpt lat="46.24803" lon="6.78357">
        <ele>1807.9</ele>
        <time>2015-07-28T07:38:10Z</time>
      </trkpt>
      <trkpt lat="46.2482" lon="6.7825">
        <ele>1798.28</ele>
        <time>2015-07-28T07:39:15Z</time>
      </trkpt>
      <trkpt lat="46.24844" lon="6.78145">
        <ele>1790.59</ele>
        <time>2015-07-28T07:40:20Z</time>
      </trkpt>
      <trkpt lat="46.24848" lon="6.78055">
        <ele>1781.46</ele>
        <time>2015-07-28T07:41:25Z</time>
      </trkpt>
      <trkpt lat="46.24852" lon="6.77957">
        <ele>1769.44</ele>
        <time>2015-07-28T07:42:30Z</time>
      </trkpt>
      <trkpt lat="46.24836" lon="6.77882">
        <ele>1757.43</ele>
        <time>2015-07-28T07:43:35Z</time>
      </trkpt>
      <trkpt lat="46.24806" lon="6.77837">
        <ele>1745.89</ele>
        <time>2015-07-28T07:44:40Z</time>
      </trkpt>
      <trkpt lat="46.24769" lon="6.77765">
        <ele>1738.2</ele>
        <time>2015-07-28T07:45:45Z</time>
      </trkpt>
      <trkpt lat="46.2474" lon="6.77704">
        <ele>1741.08</ele>
        <time>2015-07-28T07:46:50Z</time>
      </trkpt>
      <trkpt lat="46.2469" lon="6.77661">
        <ele>1740.6</ele>
        <time>2015-07-28T07:47:55Z</time>
      </trkpt>
      <trkpt lat="46.24641" lon="6.7769">
        <ele>1742.05</ele>
        <time>2015-07-28T07:49:00Z</time>
      </trkpt>
      <trkpt lat="46.24574" lon="6.77734">
        <ele>1733.88</ele>
        <time>2015-07-28T07:50:05Z</time>
      </trkpt>
      <trkpt lat="46.2454" lon="6.77741">
        <ele>1731.47</ele>
        <time>2015-07-28T07:50:59Z</time>
      </trkpt>
    </trkseg>
  </trk>
  <trk>
    <name><![CDATA[ACTIVE LOG: 28 JUL 2015 10:01]]></name>
    <trkseg>
      <trkpt lat="46.24543" lon="6.7774">
        <ele>1732.43</ele>
        <time>2015-07-28T08:02:49Z</time>
      </trkpt>
      <trkpt lat="46.24541" lon="6.77753">
        <ele>1733.88</ele>
        <time>2015-07-28T08:03:54Z</time>
      </trkpt>
      <trkpt lat="46.24485" lon="6.77803">
        <ele>1734.84</ele>
        <time>2015-07-28T08:04:59Z</time>
      </trkpt>
      <trkpt lat="46.24429" lon="6.77832">
        <ele>1732.91</ele>
        <time>2015-07-28T08:06:04Z</time>
      </trkpt>
      <trkpt lat="46.24359" lon="6.77885">
        <ele>1730.51</ele>
        <time>2015-07-28T08:07:09Z</time>
      </trkpt>
      <trkpt lat="46.24285" lon="6.77928">
        <ele>1727.63</ele>
        <time>2015-07-28T08:08:14Z</time>
      </trkpt>
      <trkpt lat="46.24209" lon="6.77976">
        <ele>1726.67</ele>
        <time>2015-07-28T08:09:19Z</time>
      </trkpt>
      <trkpt lat="46.24139" lon="6.78041">
        <ele>1723.3</ele>
        <time>2015-07-28T08:10:24Z</time>
      </trkpt>
      <trkpt lat="46.24063" lon="6.7809">
        <ele>1720.42</ele>
        <time>2015-07-28T08:11:29Z</time>
      </trkpt>
      <trkpt lat="46.23998" lon="6.7809">
        <ele>1719.46</ele>
        <time>2015-07-28T08:12:34Z</time>
      </trkpt>
      <trkpt lat="46.23927" lon="6.78055">
        <ele>1719.46</ele>
        <time>2015-07-28T08:13:39Z</time>
      </trkpt>
      <trkpt lat="46.2385" lon="6.78022">
        <ele>1716.09</ele>
        <time>2015-07-28T08:14:44Z</time>
      </trkpt>
      <trkpt lat="46.23772" lon="6.77999">
        <ele>1715.13</ele>
        <time>2015-07-28T08:15:49Z</time>
      </trkpt>
      <trkpt lat="46.23695" lon="6.77967">
        <ele>1711.28</ele>
        <time>2015-07-28T08:16:54Z</time>
      </trkpt>
      <trkpt lat="46.23617" lon="6.77935">
        <ele>1709.84</ele>
        <time>2015-07-28T08:17:59Z</time>
      </trkpt>
      <trkpt lat="46.23542" lon="6.77889">
        <ele>1709.84</ele>
        <time>2015-07-28T08:19:04Z</time>
      </trkpt>
      <trkpt lat="46.235" lon="6.77797">
        <ele>1706.48</ele>
        <time>2015-07-28T08:20:09Z</time>
      </trkpt>
      <trkpt lat="46.2345" lon="6.77765">
        <ele>1706.48</ele>
        <time>2015-07-28T08:21:14Z</time>
      </trkpt>
      <trkpt lat="46.23383" lon="6.77744">
        <ele>1695.9</ele>
        <time>2015-07-28T08:22:19Z</time>
      </trkpt>
      <trkpt lat="46.23312" lon="6.77711">
        <ele>1693.5</ele>
        <time>2015-07-28T08:23:24Z</time>
      </trkpt>
      <trkpt lat="46.23236" lon="6.77739">
        <ele>1692.06</ele>
        <time>2015-07-28T08:24:29Z</time>
      </trkpt>
      <trkpt lat="46.23158" lon="6.77691">
        <ele>1695.42</ele>
        <time>2015-07-28T08:25:34Z</time>
      </trkpt>
      <trkpt lat="46.23106" lon="6.77603">
        <ele>1691.1</ele>
        <time>2015-07-28T08:26:39Z</time>
      </trkpt>
      <trkpt lat="46.23069" lon="6.77492">
        <ele>1683.41</ele>
        <time>2015-07-28T08:27:44Z</time>
      </trkpt>
      <trkpt lat="46.23003" lon="6.77422">
        <ele>1678.12</ele>
        <time>2015-07-28T08:28:49Z</time>
      </trkpt>
      <trkpt lat="46.22946" lon="6.77356">
        <ele>1675.23</ele>
        <time>2015-07-28T08:29:54Z</time>
      </trkpt>
      <trkpt lat="46.22917" lon="6.77314">
        <ele>1678.12</ele>
        <time>2015-07-28T08:30:59Z</time>
      </trkpt>
      <trkpt lat="46.22889" lon="6.77296">
        <ele>1681</ele>
        <time>2015-07-28T08:32:04Z</time>
      </trkpt>
      <trkpt lat="46.22823" lon="6.77287">
        <ele>1684.85</ele>
        <time>2015-07-28T08:33:09Z</time>
      </trkpt>
      <trkpt lat="46.2279" lon="6.7728">
        <ele>1685.81</ele>
        <time>2015-07-28T08:34:14Z</time>
      </trkpt>
      <trkpt lat="46.22738" lon="6.77304">
        <ele>1691.58</ele>
        <time>2015-07-28T08:35:19Z</time>
      </trkpt>
      <trkpt lat="46.22709" lon="6.77313">
        <ele>1692.54</ele>
        <time>2015-07-28T08:36:24Z</time>
      </trkpt>
      <trkpt lat="46.22658" lon="6.77352">
        <ele>1695.42</ele>
        <time>2015-07-28T08:37:29Z</time>
      </trkpt>
      <trkpt lat="46.22601" lon="6.77398">
        <ele>1686.77</ele>
        <time>2015-07-28T08:38:34Z</time>
      </trkpt>
      <trkpt lat="46.22556" lon="6.77419">
        <ele>1692.54</ele>
        <time>2015-07-28T08:39:39Z</time>
      </trkpt>
      <trkpt lat="46.22515" lon="6.77417">
        <ele>1698.31</ele>
        <time>2015-07-28T08:40:44Z</time>
      </trkpt>
      <trkpt lat="46.22473" lon="6.77402">
        <ele>1707.92</ele>
        <time>2015-07-28T08:41:49Z</time>
      </trkpt>
      <trkpt lat="46.22441" lon="6.7741">
        <ele>1719.94</ele>
        <time>2015-07-28T08:42:54Z</time>
      </trkpt>
      <trkpt lat="46.22388" lon="6.77415">
        <ele>1723.3</ele>
        <time>2015-07-28T08:43:59Z</time>
      </trkpt>
      <trkpt lat="46.22336" lon="6.77446">
        <ele>1729.07</ele>
        <time>2015-07-28T08:45:04Z</time>
      </trkpt>
      <trkpt lat="46.22298" lon="6.77473">
        <ele>1739.64</ele>
        <time>2015-07-28T08:46:09Z</time>
      </trkpt>
      <trkpt lat="46.22258" lon="6.77475">
        <ele>1750.22</ele>
        <time>2015-07-28T08:47:14Z</time>
      </trkpt>
      <trkpt lat="46.22224" lon="6.77462">
        <ele>1758.39</ele>
        <time>2015-07-28T08:48:19Z</time>
      </trkpt>
      <trkpt lat="46.22185" lon="6.77452">
        <ele>1768.96</ele>
        <time>2015-07-28T08:49:24Z</time>
      </trkpt>
      <trkpt lat="46.22148" lon="6.77435">
        <ele>1780.5</ele>
        <time>2015-07-28T08:50:29Z</time>
      </trkpt>
      <trkpt lat="46.22147" lon="6.77386">
        <ele>1789.63</ele>
        <time>2015-07-28T08:51:34Z</time>
      </trkpt>
      <trkpt lat="46.22159" lon="6.77336">
        <ele>1796.36</ele>
        <time>2015-07-28T08:52:39Z</time>
      </trkpt>
      <trkpt lat="46.22167" lon="6.77314">
        <ele>1799.24</ele>
        <time>2015-07-28T08:53:44Z</time>
      </trkpt>
      <trkpt lat="46.22166" lon="6.77313">
        <ele>1799.24</ele>
        <time>2015-07-28T08:54:49Z</time>
      </trkpt>
      <trkpt lat="46.22166" lon="6.77314">
        <ele>1799.73</ele>
        <time>2015-07-28T08:55:54Z</time>
      </trkpt>
      <trkpt lat="46.22159" lon="6.77293">
        <ele>1798.76</ele>
        <time>2015-07-28T08:56:59Z</time>
      </trkpt>
      <trkpt lat="46.22123" lon="6.77277">
        <ele>1795.88</ele>
        <time>2015-07-28T08:58:04Z</time>
      </trkpt>
      <trkpt lat="46.22115" lon="6.77291">
        <ele>1796.84</ele>
        <time>2015-07-28T08:59:09Z</time>
      </trkpt>
      <trkpt lat="46.22084" lon="6.77309">
        <ele>1797.32</ele>
        <time>2015-07-28T09:00:14Z</time>
      </trkpt>
      <trkpt lat="46.22017" lon="6.77365">
        <ele>1798.28</ele>
        <time>2015-07-28T09:01:19Z</time>
      </trkpt>
      <trkpt lat="46.21953" lon="6.77428">
        <ele>1803.57</ele>
        <time>2015-07-28T09:02:24Z</time>
      </trkpt>
      <trkpt lat="46.21913" lon="6.77496">
        <ele>1808.86</ele>
        <time>2015-07-28T09:03:29Z</time>
      </trkpt>
      <trkpt lat="46.2188" lon="6.7758">
        <ele>1815.59</ele>
        <time>2015-07-28T09:04:34Z</time>
      </trkpt>
      <trkpt lat="46.21839" lon="6.77671">
        <ele>1816.07</ele>
        <time>2015-07-28T09:05:39Z</time>
      </trkpt>
      <trkpt lat="46.21792" lon="6.77753">
        <ele>1817.99</ele>
        <time>2015-07-28T09:06:44Z</time>
      </trkpt>
      <trkpt lat="46.21725" lon="6.77816">
        <ele>1819.91</ele>
        <time>2015-07-28T09:07:49Z</time>
      </trkpt>
      <trkpt lat="46.21657" lon="6.77857">
        <ele>1823.28</ele>
        <time>2015-07-28T09:08:54Z</time>
      </trkpt>
      <trkpt lat="46.21599" lon="6.77915">
        <ele>1827.6</ele>
        <time>2015-07-28T09:09:59Z</time>
      </trkpt>
      <trkpt lat="46.2156" lon="6.78006">
        <ele>1826.16</ele>
        <time>2015-07-28T09:11:04Z</time>
      </trkpt>
      <trkpt lat="46.21536" lon="6.78108">
        <ele>1828.56</ele>
        <time>2015-07-28T09:12:09Z</time>
      </trkpt>
      <trkpt lat="46.2152" lon="6.7821">
        <ele>1828.08</ele>
        <time>2015-07-28T09:13:14Z</time>
      </trkpt>
      <trkpt lat="46.21481" lon="6.78289">
        <ele>1827.6</ele>
        <time>2015-07-28T09:14:19Z</time>
      </trkpt>
      <trkpt lat="46.21419" lon="6.78363">
        <ele>1828.56</ele>
        <time>2015-07-28T09:15:24Z</time>
      </trkpt>
      <trkpt lat="46.21348" lon="6.78431">
        <ele>1828.08</ele>
        <time>2015-07-28T09:16:29Z</time>
      </trkpt>
      <trkpt lat="46.21277" lon="6.78485">
        <ele>1827.6</ele>
        <time>2015-07-28T09:17:34Z</time>
      </trkpt>
      <trkpt lat="46.2124" lon="6.78564">
        <ele>1835.29</ele>
        <time>2015-07-28T09:18:39Z</time>
      </trkpt>
      <trkpt lat="46.2128" lon="6.78546">
        <ele>1836.74</ele>
        <time>2015-07-28T09:19:36Z</time>
      </trkpt>
    </trkseg>
  </trk>
  <trk>
    <name><![CDATA[ACTIVE LOG: 28 JUL 2015 11:27]]></name>
    <trkseg>
      <trkpt lat="46.21262" lon="6.78586">
        <ele>1838.18</ele>
        <time>2015-07-28T09:27:08Z</time>
      </trkpt>
      <trkpt lat="46.21238" lon="6.78544">
        <ele>1832.89</ele>
        <time>2015-07-28T09:28:13Z</time>
      </trkpt>
      <trkpt lat="46.21241" lon="6.78503">
        <ele>1827.6</ele>
        <time>2015-07-28T09:29:18Z</time>
      </trkpt>
      <trkpt lat="46.21182" lon="6.78551">
        <ele>1825.2</ele>
        <time>2015-07-28T09:30:23Z</time>
      </trkpt>
      <trkpt lat="46.2116" lon="6.78646">
        <ele>1819.91</ele>
        <time>2015-07-28T09:31:28Z</time>
      </trkpt>
      <trkpt lat="46.21107" lon="6.78726">
        <ele>1818.95</ele>
        <time>2015-07-28T09:32:33Z</time>
      </trkpt>
      <trkpt lat="46.21042" lon="6.78775">
        <ele>1818.47</ele>
        <time>2015-07-28T09:33:38Z</time>
      </trkpt>
      <trkpt lat="46.20977" lon="6.78833">
        <ele>1814.63</ele>
        <time>2015-07-28T09:34:43Z</time>
      </trkpt>
      <trkpt lat="46.20916" lon="6.78813">
        <ele>1814.15</ele>
        <time>2015-07-28T09:35:48Z</time>
      </trkpt>
      <trkpt lat="46.20849" lon="6.78821">
        <ele>1815.11</ele>
        <time>2015-07-28T09:36:53Z</time>
      </trkpt>
      <trkpt lat="46.20804" lon="6.7882">
        <ele>1811.74</ele>
        <time>2015-07-28T09:37:58Z</time>
      </trkpt>
      <trkpt lat="46.20791" lon="6.78821">
        <ele>1811.26</ele>
        <time>2015-07-28T09:39:03Z</time>
      </trkpt>
      <trkpt lat="46.20754" lon="6.78823">
        <ele>1810.3</ele>
        <time>2015-07-28T09:40:08Z</time>
      </trkpt>
      <trkpt lat="46.20722" lon="6.78858">
        <ele>1807.9</ele>
        <time>2015-07-28T09:41:13Z</time>
      </trkpt>
      <trkpt lat="46.20701" lon="6.78937">
        <ele>1815.59</ele>
        <time>2015-07-28T09:42:18Z</time>
      </trkpt>
      <trkpt lat="46.20665" lon="6.78994">
        <ele>1822.32</ele>
        <time>2015-07-28T09:43:23Z</time>
      </trkpt>
      <trkpt lat="46.20627" lon="6.79037">
        <ele>1832.89</ele>
        <time>2015-07-28T09:44:28Z</time>
      </trkpt>
      <trkpt lat="46.20589" lon="6.79099">
        <ele>1838.66</ele>
        <time>2015-07-28T09:45:33Z</time>
      </trkpt>
      <trkpt lat="46.20545" lon="6.79159">
        <ele>1843.95</ele>
        <time>2015-07-28T09:46:38Z</time>
      </trkpt>
      <trkpt lat="46.20494" lon="6.79205">
        <ele>1847.31</ele>
        <time>2015-07-28T09:47:43Z</time>
      </trkpt>
      <trkpt lat="46.20445" lon="6.79233">
        <ele>1855.48</ele>
        <time>2015-07-28T09:48:48Z</time>
      </trkpt>
      <trkpt lat="46.2039" lon="6.79259">
        <ele>1864.13</ele>
        <time>2015-07-28T09:49:53Z</time>
      </trkpt>
      <trkpt lat="46.20334" lon="6.79289">
        <ele>1865.58</ele>
        <time>2015-07-28T09:50:58Z</time>
      </trkpt>
      <trkpt lat="46.20296" lon="6.79353">
        <ele>1870.86</ele>
        <time>2015-07-28T09:52:03Z</time>
      </trkpt>
      <trkpt lat="46.20262" lon="6.7941">
        <ele>1876.63</ele>
        <time>2015-07-28T09:53:08Z</time>
      </trkpt>
      <trkpt lat="46.20216" lon="6.79467">
        <ele>1880.48</ele>
        <time>2015-07-28T09:54:13Z</time>
      </trkpt>
      <trkpt lat="46.20179" lon="6.79521">
        <ele>1888.65</ele>
        <time>2015-07-28T09:55:18Z</time>
      </trkpt>
      <trkpt lat="46.20146" lon="6.79585">
        <ele>1893.45</ele>
        <time>2015-07-28T09:56:23Z</time>
      </trkpt>
      <trkpt lat="46.20106" lon="6.79623">
        <ele>1899.7</ele>
        <time>2015-07-28T09:57:28Z</time>
      </trkpt>
      <trkpt lat="46.20071" lon="6.79648">
        <ele>1905.47</ele>
        <time>2015-07-28T09:58:33Z</time>
      </trkpt>
      <trkpt lat="46.2003" lon="6.79656">
        <ele>1913.64</ele>
        <time>2015-07-28T09:59:38Z</time>
      </trkpt>
      <trkpt lat="46.2001" lon="6.79713">
        <ele>1920.37</ele>
        <time>2015-07-28T10:00:43Z</time>
      </trkpt>
      <trkpt lat="46.19977" lon="6.79749">
        <ele>1929.02</ele>
        <time>2015-07-28T10:01:48Z</time>
      </trkpt>
      <trkpt lat="46.19968" lon="6.79767">
        <ele>1931.43</ele>
        <time>2015-07-28T10:02:53Z</time>
      </trkpt>
      <trkpt lat="46.19945" lon="6.7978">
        <ele>1931.91</ele>
        <time>2015-07-28T10:03:58Z</time>
      </trkpt>
      <trkpt lat="46.19894" lon="6.79831">
        <ele>1937.19</ele>
        <time>2015-07-28T10:05:03Z</time>
      </trkpt>
      <trkpt lat="46.19868" lon="6.79905">
        <ele>1944.4</ele>
        <time>2015-07-28T10:06:08Z</time>
      </trkpt>
      <trkpt lat="46.19842" lon="6.79982">
        <ele>1950.65</ele>
        <time>2015-07-28T10:07:13Z</time>
      </trkpt>
      <trkpt lat="46.19811" lon="6.80056">
        <ele>1957.38</ele>
        <time>2015-07-28T10:08:18Z</time>
      </trkpt>
      <trkpt lat="46.19807" lon="6.80136">
        <ele>1960.27</ele>
        <time>2015-07-28T10:09:23Z</time>
      </trkpt>
      <trkpt lat="46.19797" lon="6.80205">
        <ele>1966.03</ele>
        <time>2015-07-28T10:10:28Z</time>
      </trkpt>
      <trkpt lat="46.19776" lon="6.80283">
        <ele>1972.76</ele>
        <time>2015-07-28T10:11:33Z</time>
      </trkpt>
      <trkpt lat="46.19756" lon="6.80331">
        <ele>1978.05</ele>
        <time>2015-07-28T10:12:38Z</time>
      </trkpt>
      <trkpt lat="46.1973" lon="6.80411">
        <ele>1983.82</ele>
        <time>2015-07-28T10:13:43Z</time>
      </trkpt>
      <trkpt lat="46.19707" lon="6.80481">
        <ele>1995.35</ele>
        <time>2015-07-28T10:14:48Z</time>
      </trkpt>
      <trkpt lat="46.1968" lon="6.80568">
        <ele>1996.8</ele>
        <time>2015-07-28T10:15:53Z</time>
      </trkpt>
      <trkpt lat="46.19681" lon="6.80571">
        <ele>1995.35</ele>
        <time>2015-07-28T10:16:58Z</time>
      </trkpt>
      <trkpt lat="46.19681" lon="6.80571">
        <ele>1994.87</ele>
        <time>2015-07-28T10:18:03Z</time>
      </trkpt>
      <trkpt lat="46.19678" lon="6.80571">
        <ele>1995.35</ele>
        <time>2015-07-28T10:19:08Z</time>
      </trkpt>
      <trkpt lat="46.19656" lon="6.80545">
        <ele>1993.43</ele>
        <time>2015-07-28T10:20:13Z</time>
      </trkpt>
      <trkpt lat="46.19646" lon="6.80482">
        <ele>1979.49</ele>
        <time>2015-07-28T10:21:18Z</time>
      </trkpt>
      <trkpt lat="46.19619" lon="6.80487">
        <ele>1965.55</ele>
        <time>2015-07-28T10:22:23Z</time>
      </trkpt>
      <trkpt lat="46.19574" lon="6.80493">
        <ele>1954.5</ele>
        <time>2015-07-28T10:23:28Z</time>
      </trkpt>
      <trkpt lat="46.19532" lon="6.80496">
        <ele>1947.77</ele>
        <time>2015-07-28T10:24:33Z</time>
      </trkpt>
      <trkpt lat="46.195" lon="6.80499">
        <ele>1935.27</ele>
        <time>2015-07-28T10:25:38Z</time>
      </trkpt>
      <trkpt lat="46.19498" lon="6.80458">
        <ele>1921.33</ele>
        <time>2015-07-28T10:26:43Z</time>
      </trkpt>
      <trkpt lat="46.19497" lon="6.80447">
        <ele>1918.45</ele>
        <time>2015-07-28T10:27:18Z</time>
      </trkpt>
    </trkseg>
  </trk>
  <trk>
    <name><![CDATA[ACTIVE LOG: 28 JUL 2015 12:41]]></name>
    <trkseg>
      <trkpt lat="46.19496" lon="6.80444">
        <ele>1917.97</ele>
        <time>2015-07-28T10:42:21Z</time>
      </trkpt>
      <trkpt lat="46.19516" lon="6.80412">
        <ele>1904.51</ele>
        <time>2015-07-28T10:43:26Z</time>
      </trkpt>
      <trkpt lat="46.19537" lon="6.80353">
        <ele>1889.61</ele>
        <time>2015-07-28T10:44:31Z</time>
      </trkpt>
      <trkpt lat="46.19544" lon="6.80305">
        <ele>1875.67</ele>
        <time>2015-07-28T10:45:36Z</time>
      </trkpt>
      <trkpt lat="46.1956" lon="6.80264">
        <ele>1861.73</ele>
        <time>2015-07-28T10:46:41Z</time>
      </trkpt>
      <trkpt lat="46.1955" lon="6.80227">
        <ele>1846.83</ele>
        <time>2015-07-28T10:47:46Z</time>
      </trkpt>
      <trkpt lat="46.19565" lon="6.80147">
        <ele>1837.22</ele>
        <time>2015-07-28T10:48:51Z</time>
      </trkpt>
      <trkpt lat="46.19558" lon="6.80097">
        <ele>1826.64</ele>
        <time>2015-07-28T10:49:56Z</time>
      </trkpt>
      <trkpt lat="46.19536" lon="6.80072">
        <ele>1816.55</ele>
        <time>2015-07-28T10:51:01Z</time>
      </trkpt>
      <trkpt lat="46.19513" lon="6.80068">
        <ele>1811.26</ele>
        <time>2015-07-28T10:52:06Z</time>
      </trkpt>
      <trkpt lat="46.19505" lon="6.80076">
        <ele>1813.66</ele>
        <time>2015-07-28T10:53:11Z</time>
      </trkpt>
      <trkpt lat="46.19484" lon="6.80116">
        <ele>1816.55</ele>
        <time>2015-07-28T10:54:16Z</time>
      </trkpt>
      <trkpt lat="46.19471" lon="6.80179">
        <ele>1823.76</ele>
        <time>2015-07-28T10:55:21Z</time>
      </trkpt>
      <trkpt lat="46.19452" lon="6.80234">
        <ele>1836.26</ele>
        <time>2015-07-28T10:56:26Z</time>
      </trkpt>
      <trkpt lat="46.19425" lon="6.80276">
        <ele>1845.87</ele>
        <time>2015-07-28T10:57:31Z</time>
      </trkpt>
      <trkpt lat="46.1939" lon="6.80307">
        <ele>1854.52</ele>
        <time>2015-07-28T10:58:36Z</time>
      </trkpt>
      <trkpt lat="46.19375" lon="6.80332">
        <ele>1860.77</ele>
        <time>2015-07-28T10:59:41Z</time>
      </trkpt>
      <trkpt lat="46.1934" lon="6.80376">
        <ele>1871.34</ele>
        <time>2015-07-28T11:00:46Z</time>
      </trkpt>
      <trkpt lat="46.19307" lon="6.80394">
        <ele>1878.55</ele>
        <time>2015-07-28T11:01:51Z</time>
      </trkpt>
      <trkpt lat="46.1927" lon="6.80403">
        <ele>1887.69</ele>
        <time>2015-07-28T11:02:56Z</time>
      </trkpt>
      <trkpt lat="46.19228" lon="6.804">
        <ele>1896.82</ele>
        <time>2015-07-28T11:04:01Z</time>
      </trkpt>
      <trkpt lat="46.19209" lon="6.80399">
        <ele>1897.3</ele>
        <time>2015-07-28T11:05:06Z</time>
      </trkpt>
      <trkpt lat="46.19153" lon="6.80425">
        <ele>1898.26</ele>
        <time>2015-07-28T11:06:11Z</time>
      </trkpt>
      <trkpt lat="46.19101" lon="6.8048">
        <ele>1898.74</ele>
        <time>2015-07-28T11:07:16Z</time>
      </trkpt>
      <trkpt lat="46.19045" lon="6.80507">
        <ele>1903.07</ele>
        <time>2015-07-28T11:08:21Z</time>
      </trkpt>
      <trkpt lat="46.18979" lon="6.80502">
        <ele>1912.68</ele>
        <time>2015-07-28T11:09:26Z</time>
      </trkpt>
      <trkpt lat="46.18943" lon="6.80524">
        <ele>1920.85</ele>
        <time>2015-07-28T11:10:31Z</time>
      </trkpt>
      <trkpt lat="46.18893" lon="6.80535">
        <ele>1927.58</ele>
        <time>2015-07-28T11:11:36Z</time>
      </trkpt>
      <trkpt lat="46.18882" lon="6.80533">
        <ele>1929.98</ele>
        <time>2015-07-28T11:12:41Z</time>
      </trkpt>
      <trkpt lat="46.18867" lon="6.80535">
        <ele>1933.35</ele>
        <time>2015-07-28T11:13:46Z</time>
      </trkpt>
      <trkpt lat="46.18826" lon="6.80533">
        <ele>1945.36</ele>
        <time>2015-07-28T11:14:51Z</time>
      </trkpt>
      <trkpt lat="46.18783" lon="6.80532">
        <ele>1953.54</ele>
        <time>2015-07-28T11:15:56Z</time>
      </trkpt>
      <trkpt lat="46.18737" lon="6.80558">
        <ele>1953.54</ele>
        <time>2015-07-28T11:17:01Z</time>
      </trkpt>
      <trkpt lat="46.18691" lon="6.80613">
        <ele>1956.42</ele>
        <time>2015-07-28T11:18:06Z</time>
      </trkpt>
      <trkpt lat="46.18656" lon="6.80683">
        <ele>1964.59</ele>
        <time>2015-07-28T11:19:11Z</time>
      </trkpt>
      <trkpt lat="46.18604" lon="6.80741">
        <ele>1966.03</ele>
        <time>2015-07-28T11:20:16Z</time>
      </trkpt>
      <trkpt lat="46.18546" lon="6.80781">
        <ele>1972.28</ele>
        <time>2015-07-28T11:21:21Z</time>
      </trkpt>
      <trkpt lat="46.18509" lon="6.80806">
        <ele>1979.49</ele>
        <time>2015-07-28T11:22:26Z</time>
      </trkpt>
      <trkpt lat="46.18474" lon="6.80827">
        <ele>1989.59</ele>
        <time>2015-07-28T11:23:31Z</time>
      </trkpt>
      <trkpt lat="46.18443" lon="6.80787">
        <ele>1999.2</ele>
        <time>2015-07-28T11:24:36Z</time>
      </trkpt>
      <trkpt lat="46.18417" lon="6.80775">
        <ele>2008.81</ele>
        <time>2015-07-28T11:25:41Z</time>
      </trkpt>
      <trkpt lat="46.18381" lon="6.80834">
        <ele>2015.54</ele>
        <time>2015-07-28T11:26:46Z</time>
      </trkpt>
      <trkpt lat="46.1835" lon="6.80865">
        <ele>2021.31</ele>
        <time>2015-07-28T11:27:51Z</time>
      </trkpt>
      <trkpt lat="46.18303" lon="6.80898">
        <ele>2031.4</ele>
        <time>2015-07-28T11:28:56Z</time>
      </trkpt>
      <trkpt lat="46.18261" lon="6.80847">
        <ele>2038.61</ele>
        <time>2015-07-28T11:30:01Z</time>
      </trkpt>
      <trkpt lat="46.1822" lon="6.80872">
        <ele>2041.98</ele>
        <time>2015-07-28T11:31:06Z</time>
      </trkpt>
      <trkpt lat="46.182" lon="6.80897">
        <ele>2045.34</ele>
        <time>2015-07-28T11:32:11Z</time>
      </trkpt>
      <trkpt lat="46.18155" lon="6.80932">
        <ele>2053.51</ele>
        <time>2015-07-28T11:33:16Z</time>
      </trkpt>
      <trkpt lat="46.18124" lon="6.80954">
        <ele>2063.61</ele>
        <time>2015-07-28T11:34:21Z</time>
      </trkpt>
      <trkpt lat="46.18094" lon="6.80993">
        <ele>2071.3</ele>
        <time>2015-07-28T11:35:26Z</time>
      </trkpt>
      <trkpt lat="46.18107" lon="6.81022">
        <ele>2075.14</ele>
        <time>2015-07-28T11:36:31Z</time>
      </trkpt>
      <trkpt lat="46.18106" lon="6.81022">
        <ele>2074.18</ele>
        <time>2015-07-28T11:37:36Z</time>
      </trkpt>
      <trkpt lat="46.18119" lon="6.8104">
        <ele>2075.62</ele>
        <time>2015-07-28T11:38:41Z</time>
      </trkpt>
      <trkpt lat="46.18154" lon="6.81107">
        <ele>2077.07</ele>
        <time>2015-07-28T11:39:46Z</time>
      </trkpt>
      <trkpt lat="46.18198" lon="6.81173">
        <ele>2081.39</ele>
        <time>2015-07-28T11:40:51Z</time>
      </trkpt>
      <trkpt lat="46.18207" lon="6.81199">
        <ele>2084.28</ele>
        <time>2015-07-28T11:41:56Z</time>
      </trkpt>
      <trkpt lat="46.18187" lon="6.8116">
        <ele>2079.47</ele>
        <time>2015-07-28T11:43:01Z</time>
      </trkpt>
      <trkpt lat="46.1814" lon="6.81095">
        <ele>2076.1</ele>
        <time>2015-07-28T11:44:06Z</time>
      </trkpt>
      <trkpt lat="46.18096" lon="6.81002">
        <ele>2072.26</ele>
        <time>2015-07-28T11:45:11Z</time>
      </trkpt>
      <trkpt lat="46.18086" lon="6.8093">
        <ele>2073.7</ele>
        <time>2015-07-28T11:46:16Z</time>
      </trkpt>
      <trkpt lat="46.18086" lon="6.80866">
        <ele>2081.39</ele>
        <time>2015-07-28T11:47:21Z</time>
      </trkpt>
      <trkpt lat="46.18091" lon="6.80782">
        <ele>2085.72</ele>
        <time>2015-07-28T11:48:26Z</time>
      </trkpt>
      <trkpt lat="46.18117" lon="6.80702">
        <ele>2079.95</ele>
        <time>2015-07-28T11:49:31Z</time>
      </trkpt>
      <trkpt lat="46.18147" lon="6.80613">
        <ele>2078.99</ele>
        <time>2015-07-28T11:50:36Z</time>
      </trkpt>
      <trkpt lat="46.18131" lon="6.80565">
        <ele>2089.08</ele>
        <time>2015-07-28T11:51:41Z</time>
      </trkpt>
      <trkpt lat="46.18141" lon="6.80509">
        <ele>2102.06</ele>
        <time>2015-07-28T11:52:46Z</time>
      </trkpt>
      <trkpt lat="46.18167" lon="6.80447">
        <ele>2113.12</ele>
        <time>2015-07-28T11:53:51Z</time>
      </trkpt>
      <trkpt lat="46.18191" lon="6.804">
        <ele>2124.65</ele>
        <time>2015-07-28T11:54:56Z</time>
      </trkpt>
      <trkpt lat="46.18147" lon="6.80408">
        <ele>2135.71</ele>
        <time>2015-07-28T11:56:01Z</time>
      </trkpt>
      <trkpt lat="46.181" lon="6.80424">
        <ele>2148.2</ele>
        <time>2015-07-28T11:57:06Z</time>
      </trkpt>
      <trkpt lat="46.18054" lon="6.80445">
        <ele>2158.78</ele>
        <time>2015-07-28T11:58:11Z</time>
      </trkpt>
      <trkpt lat="46.18013" lon="6.80466">
        <ele>2169.35</ele>
        <time>2015-07-28T11:59:16Z</time>
      </trkpt>
      <trkpt lat="46.17974" lon="6.805">
        <ele>2179.45</ele>
        <time>2015-07-28T12:00:21Z</time>
      </trkpt>
      <trkpt lat="46.17922" lon="6.80539">
        <ele>2187.14</ele>
        <time>2015-07-28T12:01:26Z</time>
      </trkpt>
      <trkpt lat="46.17891" lon="6.80558">
        <ele>2194.35</ele>
        <time>2015-07-28T12:02:31Z</time>
      </trkpt>
      <trkpt lat="46.1785" lon="6.8054">
        <ele>2200.11</ele>
        <time>2015-07-28T12:03:36Z</time>
      </trkpt>
      <trkpt lat="46.17804" lon="6.80592">
        <ele>2192.42</ele>
        <time>2015-07-28T12:04:41Z</time>
      </trkpt>
      <trkpt lat="46.17748" lon="6.80652">
        <ele>2181.37</ele>
        <time>2015-07-28T12:05:46Z</time>
      </trkpt>
      <trkpt lat="46.1768" lon="6.80657">
        <ele>2168.39</ele>
        <time>2015-07-28T12:06:51Z</time>
      </trkpt>
      <trkpt lat="46.17625" lon="6.80597">
        <ele>2161.66</ele>
        <time>2015-07-28T12:07:56Z</time>
      </trkpt>
      <trkpt lat="46.17592" lon="6.8057">
        <ele>2163.1</ele>
        <time>2015-07-28T12:09:01Z</time>
      </trkpt>
      <trkpt lat="46.17578" lon="6.8057">
        <ele>2162.62</ele>
        <time>2015-07-28T12:10:06Z</time>
      </trkpt>
      <trkpt lat="46.17534" lon="6.80598">
        <ele>2151.09</ele>
        <time>2015-07-28T12:11:11Z</time>
      </trkpt>
      <trkpt lat="46.17475" lon="6.80578">
        <ele>2147.24</ele>
        <time>2015-07-28T12:12:16Z</time>
      </trkpt>
      <trkpt lat="46.17413" lon="6.80558">
        <ele>2152.05</ele>
        <time>2015-07-28T12:13:21Z</time>
      </trkpt>
      <trkpt lat="46.17391" lon="6.80554">
        <ele>2153.01</ele>
        <time>2015-07-28T12:14:26Z</time>
      </trkpt>
      <trkpt lat="46.17387" lon="6.80554">
        <ele>2153.49</ele>
        <time>2015-07-28T12:15:01Z</time>
      </trkpt>
    </trkseg>
  </trk>
  <trk>
    <name><![CDATA[ACTIVE LOG: 28 JUL 2015 14:19]]></name>
    <trkseg>
      <trkpt lat="46.17384" lon="6.80549">
        <ele>2104.94</ele>
        <time>2015-07-28T12:19:21Z</time>
      </trkpt>
      <trkpt lat="46.17415" lon="6.80544">
        <ele>2104.94</ele>
        <time>2015-07-28T12:20:26Z</time>
      </trkpt>
      <trkpt lat="46.17376" lon="6.80498">
        <ele>2100.14</ele>
        <time>2015-07-28T12:21:31Z</time>
      </trkpt>
      <trkpt lat="46.17321" lon="6.80451">
        <ele>2105.91</ele>
        <time>2015-07-28T12:22:36Z</time>
      </trkpt>
      <trkpt lat="46.17276" lon="6.80369">
        <ele>2107.83</ele>
        <time>2015-07-28T12:23:41Z</time>
      </trkpt>
      <trkpt lat="46.17235" lon="6.80276">
        <ele>2113.12</ele>
        <time>2015-07-28T12:24:46Z</time>
      </trkpt>
      <trkpt lat="46.17172" lon="6.80219">
        <ele>2122.25</ele>
        <time>2015-07-28T12:25:51Z</time>
      </trkpt>
      <trkpt lat="46.17161" lon="6.80201">
        <ele>2122.73</ele>
        <time>2015-07-28T12:26:56Z</time>
      </trkpt>
      <trkpt lat="46.17094" lon="6.80173">
        <ele>2117.44</ele>
        <time>2015-07-28T12:28:01Z</time>
      </trkpt>
      <trkpt lat="46.17027" lon="6.80169">
        <ele>2114.56</ele>
        <time>2015-07-28T12:29:06Z</time>
      </trkpt>
      <trkpt lat="46.17" lon="6.80154">
        <ele>2111.67</ele>
        <time>2015-07-28T12:30:11Z</time>
      </trkpt>
      <trkpt lat="46.16964" lon="6.80101">
        <ele>2105.91</ele>
        <time>2015-07-28T12:31:16Z</time>
      </trkpt>
      <trkpt lat="46.16944" lon="6.80068">
        <ele>2096.29</ele>
        <time>2015-07-28T12:32:21Z</time>
      </trkpt>
      <trkpt lat="46.16908" lon="6.80035">
        <ele>2084.28</ele>
        <time>2015-07-28T12:33:26Z</time>
      </trkpt>
      <trkpt lat="46.16847" lon="6.79969">
        <ele>2080.43</ele>
        <time>2015-07-28T12:34:31Z</time>
      </trkpt>
      <trkpt lat="46.16829" lon="6.79869">
        <ele>2076.1</ele>
        <time>2015-07-28T12:35:36Z</time>
      </trkpt>
      <trkpt lat="46.16811" lon="6.79777">
        <ele>2077.55</ele>
        <time>2015-07-28T12:36:41Z</time>
      </trkpt>
      <trkpt lat="46.16789" lon="6.797">
        <ele>2081.39</ele>
        <time>2015-07-28T12:37:46Z</time>
      </trkpt>
      <trkpt lat="46.16762" lon="6.79621">
        <ele>2092.93</ele>
        <time>2015-07-28T12:38:51Z</time>
      </trkpt>
      <trkpt lat="46.16743" lon="6.79553">
        <ele>2104.46</ele>
        <time>2015-07-28T12:39:56Z</time>
      </trkpt>
      <trkpt lat="46.16727" lon="6.79477">
        <ele>2113.12</ele>
        <time>2015-07-28T12:41:01Z</time>
      </trkpt>
      <trkpt lat="46.16699" lon="6.79429">
        <ele>2124.17</ele>
        <time>2015-07-28T12:42:06Z</time>
      </trkpt>
      <trkpt lat="46.16681" lon="6.79368">
        <ele>2133.78</ele>
        <time>2015-07-28T12:43:11Z</time>
      </trkpt>
      <trkpt lat="46.16685" lon="6.79321">
        <ele>2140.03</ele>
        <time>2015-07-28T12:44:16Z</time>
      </trkpt>
      <trkpt lat="46.16645" lon="6.79279">
        <ele>2151.09</ele>
        <time>2015-07-28T12:45:21Z</time>
      </trkpt>
      <trkpt lat="46.16629" lon="6.79217">
        <ele>2157.34</ele>
        <time>2015-07-28T12:46:26Z</time>
      </trkpt>
      <trkpt lat="46.16603" lon="6.79231">
        <ele>2165.51</ele>
        <time>2015-07-28T12:47:31Z</time>
      </trkpt>
      <trkpt lat="46.16599" lon="6.79318">
        <ele>2174.16</ele>
        <time>2015-07-28T12:48:36Z</time>
      </trkpt>
      <trkpt lat="46.16543" lon="6.79304">
        <ele>2184.25</ele>
        <time>2015-07-28T12:49:41Z</time>
      </trkpt>
      <trkpt lat="46.16512" lon="6.79264">
        <ele>2195.79</ele>
        <time>2015-07-28T12:50:46Z</time>
      </trkpt>
      <trkpt lat="46.16485" lon="6.79184">
        <ele>2197.71</ele>
        <time>2015-07-28T12:51:51Z</time>
      </trkpt>
      <trkpt lat="46.16458" lon="6.79119">
        <ele>2205.88</ele>
        <time>2015-07-28T12:52:56Z</time>
      </trkpt>
      <trkpt lat="46.16451" lon="6.79098">
        <ele>2206.84</ele>
        <time>2015-07-28T12:54:01Z</time>
      </trkpt>
      <trkpt lat="46.1645" lon="6.79095">
        <ele>2206.36</ele>
        <time>2015-07-28T12:54:32Z</time>
      </trkpt>
    </trkseg>
  </trk>
  <trk>
    <name><![CDATA[ACTIVE LOG: 28 JUL 2015 15:17]]></name>
    <trkseg>
      <trkpt lat="46.16457" lon="6.79095">
        <ele>2205.88</ele>
        <time>2015-07-28T13:17:02Z</time>
      </trkpt>
      <trkpt lat="46.16453" lon="6.79088">
        <ele>2207.32</ele>
        <time>2015-07-28T13:18:07Z</time>
      </trkpt>
      <trkpt lat="46.16432" lon="6.79055">
        <ele>2217.42</ele>
        <time>2015-07-28T13:19:12Z</time>
      </trkpt>
      <trkpt lat="46.16387" lon="6.7902">
        <ele>2202.04</ele>
        <time>2015-07-28T13:20:17Z</time>
      </trkpt>
      <trkpt lat="46.16332" lon="6.78999">
        <ele>2191.46</ele>
        <time>2015-07-28T13:21:22Z</time>
      </trkpt>
      <trkpt lat="46.16291" lon="6.78949">
        <ele>2180.89</ele>
        <time>2015-07-28T13:22:27Z</time>
      </trkpt>
      <trkpt lat="46.16269" lon="6.78891">
        <ele>2164.06</ele>
        <time>2015-07-28T13:23:32Z</time>
      </trkpt>
      <trkpt lat="46.1625" lon="6.78849">
        <ele>2150.13</ele>
        <time>2015-07-28T13:24:37Z</time>
      </trkpt>
      <trkpt lat="46.16202" lon="6.78794">
        <ele>2136.19</ele>
        <time>2015-07-28T13:25:42Z</time>
      </trkpt>
      <trkpt lat="46.16173" lon="6.78737">
        <ele>2120.32</ele>
        <time>2015-07-28T13:26:47Z</time>
      </trkpt>
      <trkpt lat="46.16187" lon="6.78685">
        <ele>2106.87</ele>
        <time>2015-07-28T13:27:52Z</time>
      </trkpt>
      <trkpt lat="46.16221" lon="6.78662">
        <ele>2090.52</ele>
        <time>2015-07-28T13:28:57Z</time>
      </trkpt>
      <trkpt lat="46.1625" lon="6.78591">
        <ele>2078.51</ele>
        <time>2015-07-28T13:30:02Z</time>
      </trkpt>
      <trkpt lat="46.16236" lon="6.78564">
        <ele>2068.89</ele>
        <time>2015-07-28T13:31:07Z</time>
      </trkpt>
      <trkpt lat="46.16237" lon="6.78474">
        <ele>2048.71</ele>
        <time>2015-07-28T13:32:12Z</time>
      </trkpt>
      <trkpt lat="46.1621" lon="6.78403">
        <ele>2032.36</ele>
        <time>2015-07-28T13:33:17Z</time>
      </trkpt>
      <trkpt lat="46.16147" lon="6.78353">
        <ele>2020.35</ele>
        <time>2015-07-28T13:34:22Z</time>
      </trkpt>
      <trkpt lat="46.16086" lon="6.78372">
        <ele>2012.66</ele>
        <time>2015-07-28T13:35:27Z</time>
      </trkpt>
      <trkpt lat="46.16045" lon="6.78434">
        <ele>1993.43</ele>
        <time>2015-07-28T13:36:32Z</time>
      </trkpt>
      <trkpt lat="46.16011" lon="6.78511">
        <ele>1977.57</ele>
        <time>2015-07-28T13:37:37Z</time>
      </trkpt>
      <trkpt lat="46.15962" lon="6.78541">
        <ele>1960.75</ele>
        <time>2015-07-28T13:38:42Z</time>
      </trkpt>
      <trkpt lat="46.15948" lon="6.78453">
        <ele>1948.73</ele>
        <time>2015-07-28T13:39:47Z</time>
      </trkpt>
      <trkpt lat="46.15935" lon="6.78447">
        <ele>1942.96</ele>
        <time>2015-07-28T13:40:52Z</time>
      </trkpt>
      <trkpt lat="46.15935" lon="6.78439">
        <ele>1941.04</ele>
        <time>2015-07-28T13:41:57Z</time>
      </trkpt>
      <trkpt lat="46.15902" lon="6.78409">
        <ele>1926.62</ele>
        <time>2015-07-28T13:43:02Z</time>
      </trkpt>
      <trkpt lat="46.15852" lon="6.78463">
        <ele>1908.83</ele>
        <time>2015-07-28T13:44:07Z</time>
      </trkpt>
      <trkpt lat="46.15819" lon="6.78403">
        <ele>1891.05</ele>
        <time>2015-07-28T13:45:12Z</time>
      </trkpt>
      <trkpt lat="46.15799" lon="6.78378">
        <ele>1880.96</ele>
        <time>2015-07-28T13:46:17Z</time>
      </trkpt>
      <trkpt lat="46.15776" lon="6.7832">
        <ele>1869.42</ele>
        <time>2015-07-28T13:47:22Z</time>
      </trkpt>
      <trkpt lat="46.15806" lon="6.7824">
        <ele>1855</ele>
        <time>2015-07-28T13:48:27Z</time>
      </trkpt>
      <trkpt lat="46.15811" lon="6.78131">
        <ele>1841.06</ele>
        <time>2015-07-28T13:49:32Z</time>
      </trkpt>
      <trkpt lat="46.15811" lon="6.7804">
        <ele>1829.53</ele>
        <time>2015-07-28T13:50:37Z</time>
      </trkpt>
      <trkpt lat="46.15782" lon="6.77974">
        <ele>1815.11</ele>
        <time>2015-07-28T13:51:42Z</time>
      </trkpt>
      <trkpt lat="46.15794" lon="6.77878">
        <ele>1793.96</ele>
        <time>2015-07-28T13:52:47Z</time>
      </trkpt>
      <trkpt lat="46.15783" lon="6.77852">
        <ele>1789.15</ele>
        <time>2015-07-28T13:53:52Z</time>
      </trkpt>
      <trkpt lat="46.15769" lon="6.77807">
        <ele>1770.89</ele>
        <time>2015-07-28T13:54:57Z</time>
      </trkpt>
      <trkpt lat="46.15729" lon="6.77878">
        <ele>1753.1</ele>
        <time>2015-07-28T13:56:02Z</time>
      </trkpt>
      <trkpt lat="46.15673" lon="6.77924">
        <ele>1746.85</ele>
        <time>2015-07-28T13:57:07Z</time>
      </trkpt>
      <trkpt lat="46.15625" lon="6.77863">
        <ele>1733.39</ele>
        <time>2015-07-28T13:58:12Z</time>
      </trkpt>
      <trkpt lat="46.15571" lon="6.77817">
        <ele>1722.34</ele>
        <time>2015-07-28T13:59:17Z</time>
      </trkpt>
      <trkpt lat="46.15559" lon="6.77764">
        <ele>1718.49</ele>
        <time>2015-07-28T14:00:22Z</time>
      </trkpt>
      <trkpt lat="46.15521" lon="6.77726">
        <ele>1706</ele>
        <time>2015-07-28T14:01:27Z</time>
      </trkpt>
      <trkpt lat="46.15577" lon="6.77694">
        <ele>1691.58</ele>
        <time>2015-07-28T14:02:32Z</time>
      </trkpt>
      <trkpt lat="46.1556" lon="6.77643">
        <ele>1674.75</ele>
        <time>2015-07-28T14:03:37Z</time>
      </trkpt>
      <trkpt lat="46.15549" lon="6.77604">
        <ele>1661.3</ele>
        <time>2015-07-28T14:04:42Z</time>
      </trkpt>
      <trkpt lat="46.15563" lon="6.77552">
        <ele>1644.47</ele>
        <time>2015-07-28T14:05:47Z</time>
      </trkpt>
      <trkpt lat="46.15551" lon="6.77475">
        <ele>1626.21</ele>
        <time>2015-07-28T14:06:52Z</time>
      </trkpt>
      <trkpt lat="46.15567" lon="6.77466">
        <ele>1618.52</ele>
        <time>2015-07-28T14:07:57Z</time>
      </trkpt>
      <trkpt lat="46.15585" lon="6.77422">
        <ele>1601.69</ele>
        <time>2015-07-28T14:09:02Z</time>
      </trkpt>
      <trkpt lat="46.1554" lon="6.77383">
        <ele>1593.52</ele>
        <time>2015-07-28T14:10:07Z</time>
      </trkpt>
      <trkpt lat="46.15467" lon="6.77358">
        <ele>1584.87</ele>
        <time>2015-07-28T14:11:12Z</time>
      </trkpt>
      <trkpt lat="46.154" lon="6.77309">
        <ele>1574.3</ele>
        <time>2015-07-28T14:12:17Z</time>
      </trkpt>
      <trkpt lat="46.15348" lon="6.77235">
        <ele>1558.92</ele>
        <time>2015-07-28T14:13:22Z</time>
      </trkpt>
      <trkpt lat="46.15299" lon="6.77149">
        <ele>1548.34</ele>
        <time>2015-07-28T14:14:27Z</time>
      </trkpt>
      <trkpt lat="46.1525" lon="6.77071">
        <ele>1537.29</ele>
        <time>2015-07-28T14:15:32Z</time>
      </trkpt>
      <trkpt lat="46.15204" lon="6.76997">
        <ele>1525.27</ele>
        <time>2015-07-28T14:16:37Z</time>
      </trkpt>
      <trkpt lat="46.15156" lon="6.7704">
        <ele>1519.5</ele>
        <time>2015-07-28T14:17:42Z</time>
      </trkpt>
      <trkpt lat="46.15123" lon="6.77126">
        <ele>1518.54</ele>
        <time>2015-07-28T14:18:47Z</time>
      </trkpt>
      <trkpt lat="46.15118" lon="6.77138">
        <ele>1518.06</ele>
        <time>2015-07-28T14:18:58Z</time>
      </trkpt>
    </trkseg>
  </trk>
  <trk>
    <name><![CDATA[ACTIVE LOG: 28 JUL 2015 16:33]]></name>
    <trkseg>
      <trkpt lat="46.15112" lon="6.77154">
        <ele>1518.06</ele>
        <time>2015-07-28T14:33:26Z</time>
      </trkpt>
      <trkpt lat="46.15124" lon="6.77201">
        <ele>1512.29</ele>
        <time>2015-07-28T14:34:31Z</time>
      </trkpt>
      <trkpt lat="46.15087" lon="6.7722">
        <ele>1498.35</ele>
        <time>2015-07-28T14:35:36Z</time>
      </trkpt>
      <trkpt lat="46.15061" lon="6.77142">
        <ele>1488.26</ele>
        <time>2015-07-28T14:36:41Z</time>
      </trkpt>
      <trkpt lat="46.15041" lon="6.77048">
        <ele>1478.16</ele>
        <time>2015-07-28T14:37:46Z</time>
      </trkpt>
      <trkpt lat="46.15044" lon="6.76929">
        <ele>1470.47</ele>
        <time>2015-07-28T14:38:51Z</time>
      </trkpt>
      <trkpt lat="46.15062" lon="6.76826">
        <ele>1459.42</ele>
        <time>2015-07-28T14:39:56Z</time>
      </trkpt>
      <trkpt lat="46.15085" lon="6.76736">
        <ele>1446.44</ele>
        <time>2015-07-28T14:41:01Z</time>
      </trkpt>
      <trkpt lat="46.15072" lon="6.76648">
        <ele>1432.98</ele>
        <time>2015-07-28T14:42:06Z</time>
      </trkpt>
      <trkpt lat="46.1505" lon="6.76573">
        <ele>1421.93</ele>
        <time>2015-07-28T14:43:11Z</time>
      </trkpt>
      <trkpt lat="46.15026" lon="6.76518">
        <ele>1413.28</ele>
        <time>2015-07-28T14:44:16Z</time>
      </trkpt>
      <trkpt lat="46.14991" lon="6.76526">
        <ele>1407.99</ele>
        <time>2015-07-28T14:45:21Z</time>
      </trkpt>
      <trkpt lat="46.14923" lon="6.7653">
        <ele>1401.74</ele>
        <time>2015-07-28T14:46:26Z</time>
      </trkpt>
      <trkpt lat="46.14859" lon="6.7656">
        <ele>1396.93</ele>
        <time>2015-07-28T14:47:31Z</time>
      </trkpt>
      <trkpt lat="46.14818" lon="6.76547">
        <ele>1389.72</ele>
        <time>2015-07-28T14:48:36Z</time>
      </trkpt>
      <trkpt lat="46.14794" lon="6.76509">
        <ele>1374.82</ele>
        <time>2015-07-28T14:49:41Z</time>
      </trkpt>
      <trkpt lat="46.14737" lon="6.76505">
        <ele>1366.65</ele>
        <time>2015-07-28T14:50:46Z</time>
      </trkpt>
      <trkpt lat="46.14692" lon="6.76496">
        <ele>1357.04</ele>
        <time>2015-07-28T14:51:51Z</time>
      </trkpt>
      <trkpt lat="46.14677" lon="6.76443">
        <ele>1342.62</ele>
        <time>2015-07-28T14:52:56Z</time>
      </trkpt>
      <trkpt lat="46.1467" lon="6.76397">
        <ele>1329.16</ele>
        <time>2015-07-28T14:54:01Z</time>
      </trkpt>
      <trkpt lat="46.14678" lon="6.76326">
        <ele>1318.59</ele>
        <time>2015-07-28T14:55:06Z</time>
      </trkpt>
      <trkpt lat="46.14635" lon="6.76392">
        <ele>1313.3</ele>
        <time>2015-07-28T14:56:11Z</time>
      </trkpt>
      <trkpt lat="46.14592" lon="6.76462">
        <ele>1317.62</ele>
        <time>2015-07-28T14:57:16Z</time>
      </trkpt>
      <trkpt lat="46.14581" lon="6.76556">
        <ele>1322.91</ele>
        <time>2015-07-28T14:58:21Z</time>
      </trkpt>
      <trkpt lat="46.14525" lon="6.76581">
        <ele>1328.68</ele>
        <time>2015-07-28T14:59:26Z</time>
      </trkpt>
      <trkpt lat="46.14473" lon="6.76608">
        <ele>1332.52</ele>
        <time>2015-07-28T15:00:31Z</time>
      </trkpt>
      <trkpt lat="46.14442" lon="6.76692">
        <ele>1331.08</ele>
        <time>2015-07-28T15:01:36Z</time>
      </trkpt>
      <trkpt lat="46.14408" lon="6.76792">
        <ele>1324.35</ele>
        <time>2015-07-28T15:02:42Z</time>
      </trkpt>
      <trkpt lat="46.1434" lon="6.76823">
        <ele>1319.55</ele>
        <time>2015-07-28T15:03:47Z</time>
      </trkpt>
      <trkpt lat="46.14316" lon="6.76826">
        <ele>1320.03</ele>
        <time>2015-07-28T15:04:52Z</time>
      </trkpt>
      <trkpt lat="46.14296" lon="6.76825">
        <ele>1318.59</ele>
        <time>2015-07-28T15:05:57Z</time>
      </trkpt>
      <trkpt lat="46.14258" lon="6.76875">
        <ele>1323.39</ele>
        <time>2015-07-28T15:07:02Z</time>
      </trkpt>
      <trkpt lat="46.14232" lon="6.76962">
        <ele>1329.16</ele>
        <time>2015-07-28T15:08:07Z</time>
      </trkpt>
      <trkpt lat="46.14223" lon="6.77053">
        <ele>1335.41</ele>
        <time>2015-07-28T15:09:12Z</time>
      </trkpt>
      <trkpt lat="46.14211" lon="6.77147">
        <ele>1338.77</ele>
        <time>2015-07-28T15:10:17Z</time>
      </trkpt>
      <trkpt lat="46.14211" lon="6.77243">
        <ele>1342.62</ele>
        <time>2015-07-28T15:11:22Z</time>
      </trkpt>
      <trkpt lat="46.14214" lon="6.77295">
        <ele>1343.58</ele>
        <time>2015-07-28T15:12:27Z</time>
      </trkpt>
      <trkpt lat="46.14184" lon="6.77297">
        <ele>1343.58</ele>
        <time>2015-07-28T15:13:32Z</time>
      </trkpt>
      <trkpt lat="46.14154" lon="6.77289">
        <ele>1346.46</ele>
        <time>2015-07-28T15:14:37Z</time>
      </trkpt>
      <trkpt lat="46.14092" lon="6.77318">
        <ele>1352.23</ele>
        <time>2015-07-28T15:15:42Z</time>
      </trkpt>
      <trkpt lat="46.14066" lon="6.77361">
        <ele>1356.56</ele>
        <time>2015-07-28T15:16:47Z</time>
      </trkpt>
      <trkpt lat="46.14056" lon="6.77381">
        <ele>1356.08</ele>
        <time>2015-07-28T15:17:15Z</time>
      </trkpt>
    </trkseg>
  </trk>
  <trk>
    <name><![CDATA[ACTIVE LOG: 29 JUL 2015 07:45]]></name>
    <trkseg>
      <trkpt lat="46.14053" lon="6.77413">
        <ele>1348.87</ele>
        <time>2015-07-29T05:47:31Z</time>
      </trkpt>
      <trkpt lat="46.14001" lon="6.77422">
        <ele>1345.98</ele>
        <time>2015-07-29T05:48:36Z</time>
      </trkpt>
      <trkpt lat="46.1395" lon="6.77402">
        <ele>1346.94</ele>
        <time>2015-07-29T05:49:41Z</time>
      </trkpt>
      <trkpt lat="46.1392" lon="6.77471">
        <ele>1354.15</ele>
        <time>2015-07-29T05:50:46Z</time>
      </trkpt>
      <trkpt lat="46.13888" lon="6.77518">
        <ele>1361.36</ele>
        <time>2015-07-29T05:51:51Z</time>
      </trkpt>
      <trkpt lat="46.13848" lon="6.77554">
        <ele>1368.57</ele>
        <time>2015-07-29T05:52:56Z</time>
      </trkpt>
      <trkpt lat="46.13813" lon="6.77561">
        <ele>1376.75</ele>
        <time>2015-07-29T05:54:01Z</time>
      </trkpt>
      <trkpt lat="46.13783" lon="6.77519">
        <ele>1380.11</ele>
        <time>2015-07-29T05:55:06Z</time>
      </trkpt>
      <trkpt lat="46.13766" lon="6.77474">
        <ele>1389.72</ele>
        <time>2015-07-29T05:56:11Z</time>
      </trkpt>
      <trkpt lat="46.13757" lon="6.77413">
        <ele>1395.01</ele>
        <time>2015-07-29T05:57:16Z</time>
      </trkpt>
      <trkpt lat="46.13746" lon="6.77403">
        <ele>1401.74</ele>
        <time>2015-07-29T05:58:21Z</time>
      </trkpt>
      <trkpt lat="46.13729" lon="6.77432">
        <ele>1407.99</ele>
        <time>2015-07-29T05:59:26Z</time>
      </trkpt>
      <trkpt lat="46.13704" lon="6.77391">
        <ele>1417.6</ele>
        <time>2015-07-29T06:00:31Z</time>
      </trkpt>
      <trkpt lat="46.13687" lon="6.77344">
        <ele>1419.04</ele>
        <time>2015-07-29T06:01:36Z</time>
      </trkpt>
      <trkpt lat="46.13647" lon="6.77305">
        <ele>1427.7</ele>
        <time>2015-07-29T06:02:41Z</time>
      </trkpt>
      <trkpt lat="46.1363" lon="6.77234">
        <ele>1434.42</ele>
        <time>2015-07-29T06:03:46Z</time>
      </trkpt>
      <trkpt lat="46.13637" lon="6.77171">
        <ele>1438.75</ele>
        <time>2015-07-29T06:04:51Z</time>
      </trkpt>
      <trkpt lat="46.13644" lon="6.77112">
        <ele>1446.92</ele>
        <time>2015-07-29T06:05:56Z</time>
      </trkpt>
      <trkpt lat="46.13652" lon="6.77056">
        <ele>1453.17</ele>
        <time>2015-07-29T06:07:01Z</time>
      </trkpt>
      <trkpt lat="46.13668" lon="6.77008">
        <ele>1461.34</ele>
        <time>2015-07-29T06:08:06Z</time>
      </trkpt>
      <trkpt lat="46.13679" lon="6.76956">
        <ele>1469.51</ele>
        <time>2015-07-29T06:09:11Z</time>
      </trkpt>
      <trkpt lat="46.13657" lon="6.76914">
        <ele>1473.36</ele>
        <time>2015-07-29T06:10:16Z</time>
      </trkpt>
      <trkpt lat="46.13633" lon="6.76866">
        <ele>1474.32</ele>
        <time>2015-07-29T06:11:21Z</time>
      </trkpt>
      <trkpt lat="46.13604" lon="6.76803">
        <ele>1478.65</ele>
        <time>2015-07-29T06:12:26Z</time>
      </trkpt>
      <trkpt lat="46.1361" lon="6.76749">
        <ele>1483.93</ele>
        <time>2015-07-29T06:13:31Z</time>
      </trkpt>
      <trkpt lat="46.13647" lon="6.76722">
        <ele>1491.14</ele>
        <time>2015-07-29T06:14:36Z</time>
      </trkpt>
      <trkpt lat="46.13694" lon="6.76716">
        <ele>1499.31</ele>
        <time>2015-07-29T06:15:41Z</time>
      </trkpt>
      <trkpt lat="46.13699" lon="6.7668">
        <ele>1505.08</ele>
        <time>2015-07-29T06:16:46Z</time>
      </trkpt>
      <trkpt lat="46.13658" lon="6.76666">
        <ele>1513.25</ele>
        <time>2015-07-29T06:17:51Z</time>
      </trkpt>
      <trkpt lat="46.13614" lon="6.76624">
        <ele>1519.98</ele>
        <time>2015-07-29T06:18:56Z</time>
      </trkpt>
      <trkpt lat="46.13596" lon="6.76619">
        <ele>1525.75</ele>
        <time>2015-07-29T06:20:01Z</time>
      </trkpt>
      <trkpt lat="46.13568" lon="6.76647">
        <ele>1531.52</ele>
        <time>2015-07-29T06:21:06Z</time>
      </trkpt>
      <trkpt lat="46.13526" lon="6.76593">
        <ele>1537.77</ele>
        <time>2015-07-29T06:22:11Z</time>
      </trkpt>
      <trkpt lat="46.135" lon="6.7653">
        <ele>1545.46</ele>
        <time>2015-07-29T06:23:16Z</time>
      </trkpt>
      <trkpt lat="46.1347" lon="6.76512">
        <ele>1551.71</ele>
        <time>2015-07-29T06:24:21Z</time>
      </trkpt>
      <trkpt lat="46.13426" lon="6.76482">
        <ele>1559.4</ele>
        <time>2015-07-29T06:25:26Z</time>
      </trkpt>
      <trkpt lat="46.13393" lon="6.76433">
        <ele>1565.16</ele>
        <time>2015-07-29T06:26:31Z</time>
      </trkpt>
      <trkpt lat="46.1336" lon="6.76444">
        <ele>1569.97</ele>
        <time>2015-07-29T06:27:36Z</time>
      </trkpt>
      <trkpt lat="46.13314" lon="6.76447">
        <ele>1579.58</ele>
        <time>2015-07-29T06:28:41Z</time>
      </trkpt>
      <trkpt lat="46.13268" lon="6.76437">
        <ele>1587.75</ele>
        <time>2015-07-29T06:29:46Z</time>
      </trkpt>
      <trkpt lat="46.13225" lon="6.76436">
        <ele>1597.85</ele>
        <time>2015-07-29T06:30:51Z</time>
      </trkpt>
      <trkpt lat="46.1319" lon="6.76423">
        <ele>1605.54</ele>
        <time>2015-07-29T06:31:56Z</time>
      </trkpt>
      <trkpt lat="46.13153" lon="6.76396">
        <ele>1614.67</ele>
        <time>2015-07-29T06:33:01Z</time>
      </trkpt>
      <trkpt lat="46.13146" lon="6.76355">
        <ele>1618.52</ele>
        <time>2015-07-29T06:34:06Z</time>
      </trkpt>
      <trkpt lat="46.13142" lon="6.76291">
        <ele>1625.25</ele>
        <time>2015-07-29T06:35:11Z</time>
      </trkpt>
      <trkpt lat="46.13143" lon="6.76225">
        <ele>1634.86</ele>
        <time>2015-07-29T06:36:16Z</time>
      </trkpt>
      <trkpt lat="46.13164" lon="6.76168">
        <ele>1643.03</ele>
        <time>2015-07-29T06:37:21Z</time>
      </trkpt>
      <trkpt lat="46.13148" lon="6.76129">
        <ele>1649.76</ele>
        <time>2015-07-29T06:38:26Z</time>
      </trkpt>
      <trkpt lat="46.13113" lon="6.76101">
        <ele>1658.89</ele>
        <time>2015-07-29T06:39:31Z</time>
      </trkpt>
      <trkpt lat="46.1306" lon="6.76097">
        <ele>1662.26</ele>
        <time>2015-07-29T06:40:36Z</time>
      </trkpt>
      <trkpt lat="46.13036" lon="6.76088">
        <ele>1660.81</ele>
        <time>2015-07-29T06:41:41Z</time>
      </trkpt>
      <trkpt lat="46.13037" lon="6.76087">
        <ele>1660.81</ele>
        <time>2015-07-29T06:42:46Z</time>
      </trkpt>
      <trkpt lat="46.13005" lon="6.76104">
        <ele>1658.89</ele>
        <time>2015-07-29T06:43:51Z</time>
      </trkpt>
      <trkpt lat="46.12933" lon="6.76086">
        <ele>1652.16</ele>
        <time>2015-07-29T06:44:56Z</time>
      </trkpt>
      <trkpt lat="46.12892" lon="6.76043">
        <ele>1646.88</ele>
        <time>2015-07-29T06:46:01Z</time>
      </trkpt>
      <trkpt lat="46.12841" lon="6.75978">
        <ele>1639.67</ele>
        <time>2015-07-29T06:47:06Z</time>
      </trkpt>
      <trkpt lat="46.12783" lon="6.75923">
        <ele>1631.49</ele>
        <time>2015-07-29T06:48:11Z</time>
      </trkpt>
      <trkpt lat="46.12739" lon="6.75852">
        <ele>1622.84</ele>
        <time>2015-07-29T06:49:16Z</time>
      </trkpt>
      <trkpt lat="46.12688" lon="6.758">
        <ele>1614.19</ele>
        <time>2015-07-29T06:50:21Z</time>
      </trkpt>
      <trkpt lat="46.12638" lon="6.7575">
        <ele>1603.62</ele>
        <time>2015-07-29T06:51:26Z</time>
      </trkpt>
      <trkpt lat="46.12612" lon="6.75679">
        <ele>1594.48</ele>
        <time>2015-07-29T06:52:31Z</time>
      </trkpt>
      <trkpt lat="46.12575" lon="6.7559">
        <ele>1583.43</ele>
        <time>2015-07-29T06:53:36Z</time>
      </trkpt>
      <trkpt lat="46.12537" lon="6.75556">
        <ele>1575.26</ele>
        <time>2015-07-29T06:54:41Z</time>
      </trkpt>
      <trkpt lat="46.125" lon="6.75521">
        <ele>1567.09</ele>
        <time>2015-07-29T06:55:46Z</time>
      </trkpt>
      <trkpt lat="46.12446" lon="6.75465">
        <ele>1555.07</ele>
        <time>2015-07-29T06:56:51Z</time>
      </trkpt>
      <trkpt lat="46.12394" lon="6.7543">
        <ele>1546.9</ele>
        <time>2015-07-29T06:57:56Z</time>
      </trkpt>
      <trkpt lat="46.1234" lon="6.75368">
        <ele>1536.32</ele>
        <time>2015-07-29T06:59:01Z</time>
      </trkpt>
      <trkpt lat="46.12292" lon="6.75339">
        <ele>1527.19</ele>
        <time>2015-07-29T07:00:06Z</time>
      </trkpt>
      <trkpt lat="46.12252" lon="6.75308">
        <ele>1523.83</ele>
        <time>2015-07-29T07:00:49Z</time>
      </trkpt>
    </trkseg>
  </trk>
  <trk>
    <name><![CDATA[ACTIVE LOG: 29 JUL 2015 09:14]]></name>
    <trkseg>
      <trkpt lat="46.12254" lon="6.75306">
        <ele>1520.94</ele>
        <time>2015-07-29T07:15:32Z</time>
      </trkpt>
      <trkpt lat="46.12213" lon="6.75267">
        <ele>1510.37</ele>
        <time>2015-07-29T07:16:37Z</time>
      </trkpt>
      <trkpt lat="46.12174" lon="6.75233">
        <ele>1501.72</ele>
        <time>2015-07-29T07:17:42Z</time>
      </trkpt>
      <trkpt lat="46.12129" lon="6.75171">
        <ele>1490.18</ele>
        <time>2015-07-29T07:18:47Z</time>
      </trkpt>
      <trkpt lat="46.121" lon="6.75118">
        <ele>1475.76</ele>
        <time>2015-07-29T07:19:52Z</time>
      </trkpt>
      <trkpt lat="46.12081" lon="6.75042">
        <ele>1461.34</ele>
        <time>2015-07-29T07:20:57Z</time>
      </trkpt>
      <trkpt lat="46.12087" lon="6.74958">
        <ele>1452.21</ele>
        <time>2015-07-29T07:22:02Z</time>
      </trkpt>
      <trkpt lat="46.12066" lon="6.7488">
        <ele>1438.75</ele>
        <time>2015-07-29T07:23:07Z</time>
      </trkpt>
      <trkpt lat="46.12046" lon="6.7483">
        <ele>1425.29</ele>
        <time>2015-07-29T07:24:12Z</time>
      </trkpt>
      <trkpt lat="46.11995" lon="6.74831">
        <ele>1411.35</ele>
        <time>2015-07-29T07:25:17Z</time>
      </trkpt>
      <trkpt lat="46.11982" lon="6.74764">
        <ele>1399.82</ele>
        <time>2015-07-29T07:26:22Z</time>
      </trkpt>
      <trkpt lat="46.11979" lon="6.74733">
        <ele>1396.45</ele>
        <time>2015-07-29T07:27:27Z</time>
      </trkpt>
      <trkpt lat="46.11951" lon="6.74679">
        <ele>1384.92</ele>
        <time>2015-07-29T07:28:32Z</time>
      </trkpt>
      <trkpt lat="46.1195" lon="6.746">
        <ele>1373.86</ele>
        <time>2015-07-29T07:29:37Z</time>
      </trkpt>
      <trkpt lat="46.11958" lon="6.74527">
        <ele>1363.29</ele>
        <time>2015-07-29T07:30:42Z</time>
      </trkpt>
      <trkpt lat="46.1194" lon="6.7445">
        <ele>1354.15</ele>
        <time>2015-07-29T07:31:47Z</time>
      </trkpt>
      <trkpt lat="46.11901" lon="6.74393">
        <ele>1343.58</ele>
        <time>2015-07-29T07:32:52Z</time>
      </trkpt>
      <trkpt lat="46.11903" lon="6.74326">
        <ele>1333.01</ele>
        <time>2015-07-29T07:33:57Z</time>
      </trkpt>
      <trkpt lat="46.11917" lon="6.74277">
        <ele>1324.83</ele>
        <time>2015-07-29T07:35:02Z</time>
      </trkpt>
      <trkpt lat="46.11923" lon="6.74217">
        <ele>1318.1</ele>
        <time>2015-07-29T07:36:07Z</time>
      </trkpt>
      <trkpt lat="46.11902" lon="6.7415">
        <ele>1304.17</ele>
        <time>2015-07-29T07:37:12Z</time>
      </trkpt>
      <trkpt lat="46.11886" lon="6.74086">
        <ele>1293.11</ele>
        <time>2015-07-29T07:38:17Z</time>
      </trkpt>
      <trkpt lat="46.1189" lon="6.74022">
        <ele>1283.5</ele>
        <time>2015-07-29T07:39:22Z</time>
      </trkpt>
      <trkpt lat="46.11854" lon="6.74034">
        <ele>1275.81</ele>
        <time>2015-07-29T07:40:27Z</time>
      </trkpt>
      <trkpt lat="46.11791" lon="6.74081">
        <ele>1266.19</ele>
        <time>2015-07-29T07:41:32Z</time>
      </trkpt>
      <trkpt lat="46.11737" lon="6.74102">
        <ele>1258.02</ele>
        <time>2015-07-29T07:42:37Z</time>
      </trkpt>
      <trkpt lat="46.11701" lon="6.74177">
        <ele>1250.33</ele>
        <time>2015-07-29T07:43:42Z</time>
      </trkpt>
      <trkpt lat="46.11661" lon="6.74214">
        <ele>1238.8</ele>
        <time>2015-07-29T07:44:47Z</time>
      </trkpt>
      <trkpt lat="46.11602" lon="6.7423">
        <ele>1230.14</ele>
        <time>2015-07-29T07:45:52Z</time>
      </trkpt>
      <trkpt lat="46.11574" lon="6.74272">
        <ele>1225.82</ele>
        <time>2015-07-29T07:46:57Z</time>
      </trkpt>
      <trkpt lat="46.11575" lon="6.74279">
        <ele>1225.82</ele>
        <time>2015-07-29T07:48:02Z</time>
      </trkpt>
      <trkpt lat="46.11575" lon="6.74264">
        <ele>1224.86</ele>
        <time>2015-07-29T07:49:07Z</time>
      </trkpt>
      <trkpt lat="46.11528" lon="6.74289">
        <ele>1217.65</ele>
        <time>2015-07-29T07:50:12Z</time>
      </trkpt>
      <trkpt lat="46.11467" lon="6.7429">
        <ele>1206.11</ele>
        <time>2015-07-29T07:51:17Z</time>
      </trkpt>
      <trkpt lat="46.11436" lon="6.74223">
        <ele>1192.17</ele>
        <time>2015-07-29T07:52:22Z</time>
      </trkpt>
      <trkpt lat="46.114" lon="6.74219">
        <ele>1180.16</ele>
        <time>2015-07-29T07:53:27Z</time>
      </trkpt>
      <trkpt lat="46.11342" lon="6.74216">
        <ele>1166.22</ele>
        <time>2015-07-29T07:54:32Z</time>
      </trkpt>
      <trkpt lat="46.1131" lon="6.74236">
        <ele>1155.16</ele>
        <time>2015-07-29T07:55:37Z</time>
      </trkpt>
      <trkpt lat="46.11278" lon="6.74267">
        <ele>1140.26</ele>
        <time>2015-07-29T07:56:42Z</time>
      </trkpt>
      <trkpt lat="46.11242" lon="6.74278">
        <ele>1124.4</ele>
        <time>2015-07-29T07:57:47Z</time>
      </trkpt>
      <trkpt lat="46.11209" lon="6.74299">
        <ele>1114.79</ele>
        <time>2015-07-29T07:58:52Z</time>
      </trkpt>
      <trkpt lat="46.11196" lon="6.74367">
        <ele>1105.17</ele>
        <time>2015-07-29T07:59:57Z</time>
      </trkpt>
      <trkpt lat="46.11152" lon="6.74324">
        <ele>1094.6</ele>
        <time>2015-07-29T08:01:02Z</time>
      </trkpt>
      <trkpt lat="46.11126" lon="6.74242">
        <ele>1081.62</ele>
        <time>2015-07-29T08:02:07Z</time>
      </trkpt>
      <trkpt lat="46.11089" lon="6.74203">
        <ele>1069.6</ele>
        <time>2015-07-29T08:03:12Z</time>
      </trkpt>
      <trkpt lat="46.1105" lon="6.74212">
        <ele>1060.95</ele>
        <time>2015-07-29T08:04:17Z</time>
      </trkpt>
      <trkpt lat="46.11016" lon="6.74266">
        <ele>1053.26</ele>
        <time>2015-07-29T08:05:22Z</time>
      </trkpt>
      <trkpt lat="46.10961" lon="6.74322">
        <ele>1043.17</ele>
        <time>2015-07-29T08:06:27Z</time>
      </trkpt>
      <trkpt lat="46.10902" lon="6.74359">
        <ele>1032.11</ele>
        <time>2015-07-29T08:07:32Z</time>
      </trkpt>
      <trkpt lat="46.10852" lon="6.74384">
        <ele>1023.46</ele>
        <time>2015-07-29T08:08:37Z</time>
      </trkpt>
      <trkpt lat="46.10852" lon="6.74377">
        <ele>1022.02</ele>
        <time>2015-07-29T08:09:42Z</time>
      </trkpt>
      <trkpt lat="46.10851" lon="6.7438">
        <ele>1021.54</ele>
        <time>2015-07-29T08:10:47Z</time>
      </trkpt>
      <trkpt lat="46.1084" lon="6.7445">
        <ele>1016.25</ele>
        <time>2015-07-29T08:11:52Z</time>
      </trkpt>
      <trkpt lat="46.10794" lon="6.74473">
        <ele>1016.73</ele>
        <time>2015-07-29T08:12:57Z</time>
      </trkpt>
      <trkpt lat="46.10739" lon="6.74471">
        <ele>1015.29</ele>
        <time>2015-07-29T08:14:02Z</time>
      </trkpt>
      <trkpt lat="46.10715" lon="6.74448">
        <ele>1013.37</ele>
        <time>2015-07-29T08:15:07Z</time>
      </trkpt>
      <trkpt lat="46.10643" lon="6.74422">
        <ele>1008.08</ele>
        <time>2015-07-29T08:16:12Z</time>
      </trkpt>
      <trkpt lat="46.10603" lon="6.74404">
        <ele>1004.23</ele>
        <time>2015-07-29T08:17:17Z</time>
      </trkpt>
      <trkpt lat="46.10597" lon="6.74392">
        <ele>1000.87</ele>
        <time>2015-07-29T08:18:22Z</time>
      </trkpt>
      <trkpt lat="46.10526" lon="6.74389">
        <ele>993.66</ele>
        <time>2015-07-29T08:19:27Z</time>
      </trkpt>
      <trkpt lat="46.10471" lon="6.74409">
        <ele>987.41</ele>
        <time>2015-07-29T08:20:32Z</time>
      </trkpt>
      <trkpt lat="46.10405" lon="6.74445">
        <ele>981.16</ele>
        <time>2015-07-29T08:21:37Z</time>
      </trkpt>
      <trkpt lat="46.10341" lon="6.74493">
        <ele>974.43</ele>
        <time>2015-07-29T08:22:42Z</time>
      </trkpt>
      <trkpt lat="46.10312" lon="6.74534">
        <ele>972.03</ele>
        <time>2015-07-29T08:23:47Z</time>
      </trkpt>
      <trkpt lat="46.10301" lon="6.74491">
        <ele>965.78</ele>
        <time>2015-07-29T08:24:52Z</time>
      </trkpt>
      <trkpt lat="46.10332" lon="6.74398">
        <ele>960.98</ele>
        <time>2015-07-29T08:25:57Z</time>
      </trkpt>
      <trkpt lat="46.10353" lon="6.74318">
        <ele>956.65</ele>
        <time>2015-07-29T08:27:02Z</time>
      </trkpt>
      <trkpt lat="46.10329" lon="6.74268">
        <ele>951.84</ele>
        <time>2015-07-29T08:28:07Z</time>
      </trkpt>
      <trkpt lat="46.10326" lon="6.74356">
        <ele>947.04</ele>
        <time>2015-07-29T08:29:12Z</time>
      </trkpt>
      <trkpt lat="46.10307" lon="6.74313">
        <ele>938.86</ele>
        <time>2015-07-29T08:30:17Z</time>
      </trkpt>
      <trkpt lat="46.103" lon="6.74255">
        <ele>933.1</ele>
        <time>2015-07-29T08:31:22Z</time>
      </trkpt>
      <trkpt lat="46.10255" lon="6.74267">
        <ele>930.69</ele>
        <time>2015-07-29T08:32:27Z</time>
      </trkpt>
      <trkpt lat="46.10205" lon="6.74253">
        <ele>921.56</ele>
        <time>2015-07-29T08:33:32Z</time>
      </trkpt>
      <trkpt lat="46.10136" lon="6.74232">
        <ele>914.35</ele>
        <time>2015-07-29T08:34:37Z</time>
      </trkpt>
      <trkpt lat="46.10108" lon="6.7426">
        <ele>905.22</ele>
        <time>2015-07-29T08:35:42Z</time>
      </trkpt>
      <trkpt lat="46.10055" lon="6.74246">
        <ele>899.93</ele>
        <time>2015-07-29T08:36:47Z</time>
      </trkpt>
      <trkpt lat="46.09989" lon="6.74221">
        <ele>894.16</ele>
        <time>2015-07-29T08:37:52Z</time>
      </trkpt>
      <trkpt lat="46.09962" lon="6.74209">
        <ele>892.72</ele>
        <time>2015-07-29T08:38:57Z</time>
      </trkpt>
      <trkpt lat="46.09887" lon="6.74187">
        <ele>885.03</ele>
        <time>2015-07-29T08:40:02Z</time>
      </trkpt>
      <trkpt lat="46.09886" lon="6.74235">
        <ele>885.51</ele>
        <time>2015-07-29T08:41:07Z</time>
      </trkpt>
      <trkpt lat="46.09883" lon="6.74237">
        <ele>885.99</ele>
        <time>2015-07-29T08:42:12Z</time>
      </trkpt>
      <trkpt lat="46.09824" lon="6.74244">
        <ele>880.22</ele>
        <time>2015-07-29T08:43:17Z</time>
      </trkpt>
      <trkpt lat="46.09774" lon="6.74193">
        <ele>875.9</ele>
        <time>2015-07-29T08:44:22Z</time>
      </trkpt>
      <trkpt lat="46.09732" lon="6.74241">
        <ele>870.61</ele>
        <time>2015-07-29T08:45:27Z</time>
      </trkpt>
      <trkpt lat="46.09687" lon="6.74278">
        <ele>866.77</ele>
        <time>2015-07-29T08:46:32Z</time>
      </trkpt>
      <trkpt lat="46.0963" lon="6.74251">
        <ele>860.04</ele>
        <time>2015-07-29T08:47:37Z</time>
      </trkpt>
      <trkpt lat="46.09594" lon="6.74178">
        <ele>856.67</ele>
        <time>2015-07-29T08:48:42Z</time>
      </trkpt>
      <trkpt lat="46.09536" lon="6.74169">
        <ele>853.79</ele>
        <time>2015-07-29T08:49:47Z</time>
      </trkpt>
      <trkpt lat="46.09504" lon="6.74141">
        <ele>850.9</ele>
        <time>2015-07-29T08:50:52Z</time>
      </trkpt>
      <trkpt lat="46.0946" lon="6.74116">
        <ele>846.1</ele>
        <time>2015-07-29T08:51:57Z</time>
      </trkpt>
      <trkpt lat="46.09434" lon="6.74138">
        <ele>847.06</ele>
        <time>2015-07-29T08:53:02Z</time>
      </trkpt>
      <trkpt lat="46.09413" lon="6.74141">
        <ele>845.14</ele>
        <time>2015-07-29T08:54:07Z</time>
      </trkpt>
      <trkpt lat="46.09366" lon="6.74125">
        <ele>841.77</ele>
        <time>2015-07-29T08:55:12Z</time>
      </trkpt>
      <trkpt lat="46.09324" lon="6.74099">
        <ele>838.89</ele>
        <time>2015-07-29T08:56:05Z</time>
      </trkpt>
    </trkseg>
  </trk>
  <trk>
    <name><![CDATA[ACTIVE LOG: 29 JUL 2015 10:58]]></name>
    <trkseg>
      <trkpt lat="46.09315" lon="6.74119">
        <ele>822.06</ele>
        <time>2015-07-29T09:00:13Z</time>
      </trkpt>
      <trkpt lat="46.09236" lon="6.74047">
        <ele>812.45</ele>
        <time>2015-07-29T09:01:18Z</time>
      </trkpt>
      <trkpt lat="46.09166" lon="6.7397">
        <ele>805.24</ele>
        <time>2015-07-29T09:02:23Z</time>
      </trkpt>
      <trkpt lat="46.09108" lon="6.73965">
        <ele>798.99</ele>
        <time>2015-07-29T09:03:28Z</time>
      </trkpt>
    </trkseg>
  </trk>
  <trk>
    <name><![CDATA[ACTIVE LOG: 29 JUL 2015 11:24]]></name>
    <trkseg>
      <trkpt lat="46.09121" lon="6.73969">
        <ele>758.62</ele>
        <time>2015-07-29T09:26:46Z</time>
      </trkpt>
      <trkpt lat="46.09067" lon="6.73937">
        <ele>756.21</ele>
        <time>2015-07-29T09:27:51Z</time>
      </trkpt>
      <trkpt lat="46.09018" lon="6.73859">
        <ele>754.77</ele>
        <time>2015-07-29T09:28:56Z</time>
      </trkpt>
      <trkpt lat="46.08948" lon="6.73841">
        <ele>755.73</ele>
        <time>2015-07-29T09:30:01Z</time>
      </trkpt>
      <trkpt lat="46.08895" lon="6.73837">
        <ele>755.25</ele>
        <time>2015-07-29T09:31:06Z</time>
      </trkpt>
      <trkpt lat="46.08824" lon="6.73792">
        <ele>753.33</ele>
        <time>2015-07-29T09:32:11Z</time>
      </trkpt>
      <trkpt lat="46.08758" lon="6.73741">
        <ele>749.97</ele>
        <time>2015-07-29T09:33:16Z</time>
      </trkpt>
      <trkpt lat="46.08711" lon="6.73711">
        <ele>749.49</ele>
        <time>2015-07-29T09:34:21Z</time>
      </trkpt>
      <trkpt lat="46.08693" lon="6.73634">
        <ele>746.6</ele>
        <time>2015-07-29T09:35:26Z</time>
      </trkpt>
      <trkpt lat="46.08651" lon="6.73556">
        <ele>747.56</ele>
        <time>2015-07-29T09:36:31Z</time>
      </trkpt>
      <trkpt lat="46.086" lon="6.73483">
        <ele>745.64</ele>
        <time>2015-07-29T09:37:36Z</time>
      </trkpt>
      <trkpt lat="46.08552" lon="6.73437">
        <ele>742.76</ele>
        <time>2015-07-29T09:38:41Z</time>
      </trkpt>
      <trkpt lat="46.08499" lon="6.73418">
        <ele>736.99</ele>
        <time>2015-07-29T09:39:46Z</time>
      </trkpt>
      <trkpt lat="46.08453" lon="6.73394">
        <ele>727.37</ele>
        <time>2015-07-29T09:40:51Z</time>
      </trkpt>
      <trkpt lat="46.0841" lon="6.73403">
        <ele>721.13</ele>
        <time>2015-07-29T09:41:56Z</time>
      </trkpt>
      <trkpt lat="46.08375" lon="6.73364">
        <ele>717.28</ele>
        <time>2015-07-29T09:43:01Z</time>
      </trkpt>
      <trkpt lat="46.08346" lon="6.73282">
        <ele>715.84</ele>
        <time>2015-07-29T09:44:06Z</time>
      </trkpt>
      <trkpt lat="46.08333" lon="6.73224">
        <ele>713.44</ele>
        <time>2015-07-29T09:45:11Z</time>
      </trkpt>
      <trkpt lat="46.08335" lon="6.7316">
        <ele>711.51</ele>
        <time>2015-07-29T09:46:16Z</time>
      </trkpt>
      <trkpt lat="46.08312" lon="6.73063">
        <ele>708.15</ele>
        <time>2015-07-29T09:47:21Z</time>
      </trkpt>
      <trkpt lat="46.0832" lon="6.72982">
        <ele>705.75</ele>
        <time>2015-07-29T09:48:26Z</time>
      </trkpt>
      <trkpt lat="46.08349" lon="6.72893">
        <ele>704.78</ele>
        <time>2015-07-29T09:49:31Z</time>
      </trkpt>
      <trkpt lat="46.08354" lon="6.72811">
        <ele>703.34</ele>
        <time>2015-07-29T09:50:36Z</time>
      </trkpt>
    </trkseg>
  </trk>
  <trk>
    <name><![CDATA[ACTIVE LOG: 29 JUL 2015 13:23]]></name>
    <trkseg>
      <trkpt lat="46.08355" lon="6.72817">
        <ele>705.26</ele>
        <time>2015-07-29T11:27:06Z</time>
      </trkpt>
      <trkpt lat="46.08335" lon="6.72897">
        <ele>709.11</ele>
        <time>2015-07-29T11:28:11Z</time>
      </trkpt>
      <trkpt lat="46.08318" lon="6.72974">
        <ele>711.51</ele>
        <time>2015-07-29T11:29:16Z</time>
      </trkpt>
      <trkpt lat="46.0827" lon="6.73009">
        <ele>713.44</ele>
        <time>2015-07-29T11:30:21Z</time>
      </trkpt>
      <trkpt lat="46.08205" lon="6.7306">
        <ele>714.88</ele>
        <time>2015-07-29T11:31:26Z</time>
      </trkpt>
      <trkpt lat="46.0816" lon="6.73095">
        <ele>716.8</ele>
        <time>2015-07-29T11:32:31Z</time>
      </trkpt>
      <trkpt lat="46.08101" lon="6.73123">
        <ele>715.84</ele>
        <time>2015-07-29T11:33:36Z</time>
      </trkpt>
      <trkpt lat="46.08046" lon="6.73163">
        <ele>721.13</ele>
        <time>2015-07-29T11:34:41Z</time>
      </trkpt>
      <trkpt lat="46.08027" lon="6.73118">
        <ele>721.13</ele>
        <time>2015-07-29T11:35:46Z</time>
      </trkpt>
      <trkpt lat="46.07986" lon="6.73061">
        <ele>720.16</ele>
        <time>2015-07-29T11:36:51Z</time>
      </trkpt>
      <trkpt lat="46.07944" lon="6.73026">
        <ele>720.65</ele>
        <time>2015-07-29T11:37:56Z</time>
      </trkpt>
      <trkpt lat="46.07948" lon="6.7302">
        <ele>718.72</ele>
        <time>2015-07-29T11:39:01Z</time>
      </trkpt>
      <trkpt lat="46.07924" lon="6.72994">
        <ele>718.72</ele>
        <time>2015-07-29T11:40:06Z</time>
      </trkpt>
      <trkpt lat="46.07872" lon="6.72935">
        <ele>718.24</ele>
        <time>2015-07-29T11:41:11Z</time>
      </trkpt>
      <trkpt lat="46.07808" lon="6.72884">
        <ele>713.92</ele>
        <time>2015-07-29T11:42:16Z</time>
      </trkpt>
      <trkpt lat="46.07749" lon="6.72811">
        <ele>717.28</ele>
        <time>2015-07-29T11:43:21Z</time>
      </trkpt>
      <trkpt lat="46.07685" lon="6.72749">
        <ele>723.53</ele>
        <time>2015-07-29T11:44:26Z</time>
      </trkpt>
      <trkpt lat="46.0763" lon="6.72731">
        <ele>716.32</ele>
        <time>2015-07-29T11:45:31Z</time>
      </trkpt>
      <trkpt lat="46.07631" lon="6.72815">
        <ele>720.16</ele>
        <time>2015-07-29T11:46:36Z</time>
      </trkpt>
      <trkpt lat="46.07627" lon="6.72879">
        <ele>717.28</ele>
        <time>2015-07-29T11:47:41Z</time>
      </trkpt>
      <trkpt lat="46.07606" lon="6.72978">
        <ele>718.24</ele>
        <time>2015-07-29T11:48:46Z</time>
      </trkpt>
      <trkpt lat="46.07555" lon="6.7305">
        <ele>721.61</ele>
        <time>2015-07-29T11:49:51Z</time>
      </trkpt>
      <trkpt lat="46.07488" lon="6.73092">
        <ele>724.01</ele>
        <time>2015-07-29T11:50:56Z</time>
      </trkpt>
      <trkpt lat="46.07417" lon="6.73124">
        <ele>724.49</ele>
        <time>2015-07-29T11:52:01Z</time>
      </trkpt>
      <trkpt lat="46.07348" lon="6.73153">
        <ele>722.57</ele>
        <time>2015-07-29T11:53:06Z</time>
      </trkpt>
      <trkpt lat="46.07284" lon="6.73187">
        <ele>727.86</ele>
        <time>2015-07-29T11:54:11Z</time>
      </trkpt>
      <trkpt lat="46.07216" lon="6.7322">
        <ele>726.89</ele>
        <time>2015-07-29T11:55:16Z</time>
      </trkpt>
      <trkpt lat="46.07152" lon="6.73216">
        <ele>727.37</ele>
        <time>2015-07-29T11:56:21Z</time>
      </trkpt>
      <trkpt lat="46.07123" lon="6.73206">
        <ele>730.26</ele>
        <time>2015-07-29T11:57:26Z</time>
      </trkpt>
      <trkpt lat="46.07108" lon="6.73221">
        <ele>728.82</ele>
        <time>2015-07-29T11:58:31Z</time>
      </trkpt>
      <trkpt lat="46.0707" lon="6.7327">
        <ele>729.78</ele>
        <time>2015-07-29T11:59:36Z</time>
      </trkpt>
      <trkpt lat="46.07028" lon="6.73332">
        <ele>732.18</ele>
        <time>2015-07-29T12:00:41Z</time>
      </trkpt>
      <trkpt lat="46.06983" lon="6.73385">
        <ele>733.62</ele>
        <time>2015-07-29T12:01:46Z</time>
      </trkpt>
      <trkpt lat="46.06951" lon="6.73447">
        <ele>733.62</ele>
        <time>2015-07-29T12:02:51Z</time>
      </trkpt>
      <trkpt lat="46.06914" lon="6.73511">
        <ele>734.58</ele>
        <time>2015-07-29T12:03:56Z</time>
      </trkpt>
      <trkpt lat="46.06875" lon="6.73572">
        <ele>731.7</ele>
        <time>2015-07-29T12:05:01Z</time>
      </trkpt>
      <trkpt lat="46.06821" lon="6.73623">
        <ele>732.18</ele>
        <time>2015-07-29T12:06:06Z</time>
      </trkpt>
      <trkpt lat="46.06759" lon="6.73641">
        <ele>733.62</ele>
        <time>2015-07-29T12:07:11Z</time>
      </trkpt>
      <trkpt lat="46.06717" lon="6.73653">
        <ele>736.51</ele>
        <time>2015-07-29T12:08:16Z</time>
      </trkpt>
      <trkpt lat="46.06651" lon="6.7368">
        <ele>738.43</ele>
        <time>2015-07-29T12:09:21Z</time>
      </trkpt>
      <trkpt lat="46.06615" lon="6.73704">
        <ele>742.76</ele>
        <time>2015-07-29T12:10:26Z</time>
      </trkpt>
      <trkpt lat="46.06564" lon="6.73729">
        <ele>724.49</ele>
        <time>2015-07-29T12:11:31Z</time>
      </trkpt>
      <trkpt lat="46.06496" lon="6.73762">
        <ele>726.89</ele>
        <time>2015-07-29T12:12:36Z</time>
      </trkpt>
      <trkpt lat="46.06425" lon="6.73796">
        <ele>726.89</ele>
        <time>2015-07-29T12:13:41Z</time>
      </trkpt>
      <trkpt lat="46.06358" lon="6.73806">
        <ele>730.74</ele>
        <time>2015-07-29T12:14:46Z</time>
      </trkpt>
      <trkpt lat="46.06304" lon="6.73848">
        <ele>733.14</ele>
        <time>2015-07-29T12:15:51Z</time>
      </trkpt>
      <trkpt lat="46.06259" lon="6.73924">
        <ele>733.62</ele>
        <time>2015-07-29T12:16:56Z</time>
      </trkpt>
      <trkpt lat="46.06233" lon="6.73987">
        <ele>735.55</ele>
        <time>2015-07-29T12:18:01Z</time>
      </trkpt>
      <trkpt lat="46.06204" lon="6.74034">
        <ele>733.62</ele>
        <time>2015-07-29T12:19:06Z</time>
      </trkpt>
      <trkpt lat="46.06182" lon="6.74113">
        <ele>737.47</ele>
        <time>2015-07-29T12:20:11Z</time>
      </trkpt>
      <trkpt lat="46.06142" lon="6.74151">
        <ele>737.47</ele>
        <time>2015-07-29T12:21:16Z</time>
      </trkpt>
      <trkpt lat="46.06096" lon="6.7421">
        <ele>738.43</ele>
        <time>2015-07-29T12:22:21Z</time>
      </trkpt>
      <trkpt lat="46.06076" lon="6.74296">
        <ele>736.03</ele>
        <time>2015-07-29T12:23:26Z</time>
      </trkpt>
      <trkpt lat="46.06035" lon="6.74371">
        <ele>738.43</ele>
        <time>2015-07-29T12:24:31Z</time>
      </trkpt>
      <trkpt lat="46.05993" lon="6.74451">
        <ele>739.39</ele>
        <time>2015-07-29T12:25:36Z</time>
      </trkpt>
      <trkpt lat="46.05947" lon="6.74529">
        <ele>738.91</ele>
        <time>2015-07-29T12:26:41Z</time>
      </trkpt>
      <trkpt lat="46.05912" lon="6.74574">
        <ele>740.83</ele>
        <time>2015-07-29T12:27:46Z</time>
      </trkpt>
      <trkpt lat="46.05909" lon="6.74573">
        <ele>741.31</ele>
        <time>2015-07-29T12:28:51Z</time>
      </trkpt>
      <trkpt lat="46.05911" lon="6.74562">
        <ele>740.35</ele>
        <time>2015-07-29T12:29:56Z</time>
      </trkpt>
      <trkpt lat="46.05883" lon="6.74522">
        <ele>741.79</ele>
        <time>2015-07-29T12:31:01Z</time>
      </trkpt>
      <trkpt lat="46.05866" lon="6.74438">
        <ele>747.08</ele>
        <time>2015-07-29T12:32:06Z</time>
      </trkpt>
      <trkpt lat="46.05862" lon="6.74359">
        <ele>755.73</ele>
        <time>2015-07-29T12:33:11Z</time>
      </trkpt>
      <trkpt lat="46.05814" lon="6.74417">
        <ele>760.54</ele>
        <time>2015-07-29T12:34:16Z</time>
      </trkpt>
      <trkpt lat="46.05771" lon="6.74469">
        <ele>763.42</ele>
        <time>2015-07-29T12:35:21Z</time>
      </trkpt>
      <trkpt lat="46.05738" lon="6.74546">
        <ele>766.79</ele>
        <time>2015-07-29T12:36:26Z</time>
      </trkpt>
      <trkpt lat="46.05698" lon="6.74628">
        <ele>768.71</ele>
        <time>2015-07-29T12:37:31Z</time>
      </trkpt>
      <trkpt lat="46.05658" lon="6.74714">
        <ele>766.79</ele>
        <time>2015-07-29T12:38:36Z</time>
      </trkpt>
      <trkpt lat="46.05652" lon="6.74758">
        <ele>765.83</ele>
        <time>2015-07-29T12:39:29Z</time>
      </trkpt>
    </trkseg>
  </trk>
  <trk>
    <name><![CDATA[ACTIVE LOG: 29 JUL 2015 14:43]]></name>
    <trkseg>
      <trkpt lat="46.05632" lon="6.74782">
        <ele>764.39</ele>
        <time>2015-07-29T12:44:57Z</time>
      </trkpt>
      <trkpt lat="46.05645" lon="6.74872">
        <ele>760.54</ele>
        <time>2015-07-29T12:46:02Z</time>
      </trkpt>
      <trkpt lat="46.05602" lon="6.7496">
        <ele>754.77</ele>
        <time>2015-07-29T12:47:07Z</time>
      </trkpt>
      <trkpt lat="46.05554" lon="6.75028">
        <ele>751.89</ele>
        <time>2015-07-29T12:48:12Z</time>
      </trkpt>
      <trkpt lat="46.055" lon="6.75104">
        <ele>746.6</ele>
        <time>2015-07-29T12:49:17Z</time>
      </trkpt>
      <trkpt lat="46.05515" lon="6.75188">
        <ele>742.28</ele>
        <time>2015-07-29T12:50:22Z</time>
      </trkpt>
      <trkpt lat="46.05534" lon="6.75289">
        <ele>742.76</ele>
        <time>2015-07-29T12:51:27Z</time>
      </trkpt>
      <trkpt lat="46.05565" lon="6.75378">
        <ele>742.76</ele>
        <time>2015-07-29T12:52:32Z</time>
      </trkpt>
      <trkpt lat="46.0558" lon="6.75483">
        <ele>744.68</ele>
        <time>2015-07-29T12:53:37Z</time>
      </trkpt>
      <trkpt lat="46.05554" lon="6.75567">
        <ele>744.68</ele>
        <time>2015-07-29T12:54:42Z</time>
      </trkpt>
      <trkpt lat="46.05561" lon="6.75596">
        <ele>749.97</ele>
        <time>2015-07-29T12:55:47Z</time>
      </trkpt>
      <trkpt lat="46.0557" lon="6.75604">
        <ele>749.97</ele>
        <time>2015-07-29T12:56:52Z</time>
      </trkpt>
      <trkpt lat="46.05577" lon="6.75601">
        <ele>749.49</ele>
        <time>2015-07-29T12:57:57Z</time>
      </trkpt>
      <trkpt lat="46.05568" lon="6.75604">
        <ele>749</ele>
        <time>2015-07-29T12:59:02Z</time>
      </trkpt>
      <trkpt lat="46.0555" lon="6.75601">
        <ele>746.12</ele>
        <time>2015-07-29T13:00:07Z</time>
      </trkpt>
      <trkpt lat="46.05467" lon="6.75607">
        <ele>749.97</ele>
        <time>2015-07-29T13:01:12Z</time>
      </trkpt>
      <trkpt lat="46.05433" lon="6.75638">
        <ele>759.1</ele>
        <time>2015-07-29T13:02:17Z</time>
      </trkpt>
      <trkpt lat="46.05381" lon="6.75668">
        <ele>761.98</ele>
        <time>2015-07-29T13:03:22Z</time>
      </trkpt>
      <trkpt lat="46.0533" lon="6.75674">
        <ele>770.15</ele>
        <time>2015-07-29T13:04:27Z</time>
      </trkpt>
      <trkpt lat="46.05313" lon="6.75691">
        <ele>773.04</ele>
        <time>2015-07-29T13:05:32Z</time>
      </trkpt>
      <trkpt lat="46.0532" lon="6.75693">
        <ele>771.11</ele>
        <time>2015-07-29T13:06:37Z</time>
      </trkpt>
      <trkpt lat="46.05313" lon="6.75715">
        <ele>770.15</ele>
        <time>2015-07-29T13:07:42Z</time>
      </trkpt>
      <trkpt lat="46.05314" lon="6.75734">
        <ele>771.11</ele>
        <time>2015-07-29T13:08:47Z</time>
      </trkpt>
      <trkpt lat="46.05295" lon="6.75742">
        <ele>776.4</ele>
        <time>2015-07-29T13:09:52Z</time>
      </trkpt>
      <trkpt lat="46.05278" lon="6.75754">
        <ele>782.17</ele>
        <time>2015-07-29T13:10:57Z</time>
      </trkpt>
      <trkpt lat="46.05268" lon="6.75767">
        <ele>786.02</ele>
        <time>2015-07-29T13:12:02Z</time>
      </trkpt>
      <trkpt lat="46.05249" lon="6.75781">
        <ele>787.46</ele>
        <time>2015-07-29T13:13:07Z</time>
      </trkpt>
      <trkpt lat="46.05245" lon="6.75787">
        <ele>788.9</ele>
        <time>2015-07-29T13:14:12Z</time>
      </trkpt>
      <trkpt lat="46.05264" lon="6.75837">
        <ele>789.38</ele>
        <time>2015-07-29T13:15:17Z</time>
      </trkpt>
      <trkpt lat="46.05275" lon="6.75882">
        <ele>790.82</ele>
        <time>2015-07-29T13:16:22Z</time>
      </trkpt>
      <trkpt lat="46.05296" lon="6.75937">
        <ele>786.98</ele>
        <time>2015-07-29T13:17:27Z</time>
      </trkpt>
      <trkpt lat="46.05319" lon="6.75945">
        <ele>787.46</ele>
        <time>2015-07-29T13:18:32Z</time>
      </trkpt>
      <trkpt lat="46.05344" lon="6.7595">
        <ele>787.94</ele>
        <time>2015-07-29T13:19:37Z</time>
      </trkpt>
      <trkpt lat="46.05336" lon="6.75954">
        <ele>787.94</ele>
        <time>2015-07-29T13:20:42Z</time>
      </trkpt>
      <trkpt lat="46.05348" lon="6.75952">
        <ele>788.42</ele>
        <time>2015-07-29T13:21:47Z</time>
      </trkpt>
      <trkpt lat="46.05356" lon="6.7596">
        <ele>789.38</ele>
        <time>2015-07-29T13:22:52Z</time>
      </trkpt>
      <trkpt lat="46.05353" lon="6.75994">
        <ele>796.11</ele>
        <time>2015-07-29T13:23:57Z</time>
      </trkpt>
      <trkpt lat="46.0535" lon="6.75995">
        <ele>807.16</ele>
        <time>2015-07-29T13:25:02Z</time>
      </trkpt>
      <trkpt lat="46.05339" lon="6.76004">
        <ele>817.26</ele>
        <time>2015-07-29T13:26:07Z</time>
      </trkpt>
      <trkpt lat="46.05331" lon="6.76013">
        <ele>830.24</ele>
        <time>2015-07-29T13:27:12Z</time>
      </trkpt>
      <trkpt lat="46.05382" lon="6.76063">
        <ele>841.29</ele>
        <time>2015-07-29T13:28:17Z</time>
      </trkpt>
      <trkpt lat="46.05366" lon="6.76093">
        <ele>849.94</ele>
        <time>2015-07-29T13:29:22Z</time>
      </trkpt>
      <trkpt lat="46.05356" lon="6.76121">
        <ele>854.27</ele>
        <time>2015-07-29T13:30:27Z</time>
      </trkpt>
      <trkpt lat="46.05376" lon="6.76188">
        <ele>859.56</ele>
        <time>2015-07-29T13:31:32Z</time>
      </trkpt>
      <trkpt lat="46.05347" lon="6.762">
        <ele>864.36</ele>
        <time>2015-07-29T13:32:37Z</time>
      </trkpt>
      <trkpt lat="46.05325" lon="6.76212">
        <ele>861.48</ele>
        <time>2015-07-29T13:33:42Z</time>
      </trkpt>
      <trkpt lat="46.05323" lon="6.7622">
        <ele>855.23</ele>
        <time>2015-07-29T13:34:47Z</time>
      </trkpt>
      <trkpt lat="46.05303" lon="6.76259">
        <ele>851.38</ele>
        <time>2015-07-29T13:35:52Z</time>
      </trkpt>
      <trkpt lat="46.05273" lon="6.76281">
        <ele>846.58</ele>
        <time>2015-07-29T13:36:57Z</time>
      </trkpt>
      <trkpt lat="46.05271" lon="6.7629">
        <ele>843.21</ele>
        <time>2015-07-29T13:38:02Z</time>
      </trkpt>
      <trkpt lat="46.05263" lon="6.763">
        <ele>842.73</ele>
        <time>2015-07-29T13:39:07Z</time>
      </trkpt>
      <trkpt lat="46.05272" lon="6.76307">
        <ele>838.89</ele>
        <time>2015-07-29T13:40:12Z</time>
      </trkpt>
      <trkpt lat="46.05255" lon="6.76321">
        <ele>831.68</ele>
        <time>2015-07-29T13:41:17Z</time>
      </trkpt>
      <trkpt lat="46.05239" lon="6.7633">
        <ele>823.99</ele>
        <time>2015-07-29T13:42:22Z</time>
      </trkpt>
      <trkpt lat="46.05219" lon="6.76347">
        <ele>815.82</ele>
        <time>2015-07-29T13:43:27Z</time>
      </trkpt>
      <trkpt lat="46.05217" lon="6.76372">
        <ele>806.2</ele>
        <time>2015-07-29T13:44:32Z</time>
      </trkpt>
      <trkpt lat="46.05204" lon="6.76385">
        <ele>798.99</ele>
        <time>2015-07-29T13:45:37Z</time>
      </trkpt>
      <trkpt lat="46.05179" lon="6.76402">
        <ele>790.82</ele>
        <time>2015-07-29T13:46:42Z</time>
      </trkpt>
      <trkpt lat="46.05158" lon="6.76412">
        <ele>784.09</ele>
        <time>2015-07-29T13:47:47Z</time>
      </trkpt>
      <trkpt lat="46.05134" lon="6.76427">
        <ele>780.25</ele>
        <time>2015-07-29T13:48:52Z</time>
      </trkpt>
      <trkpt lat="46.0509" lon="6.76434">
        <ele>779.77</ele>
        <time>2015-07-29T13:49:57Z</time>
      </trkpt>
      <trkpt lat="46.05048" lon="6.7642">
        <ele>780.25</ele>
        <time>2015-07-29T13:51:02Z</time>
      </trkpt>
      <trkpt lat="46.0501" lon="6.76433">
        <ele>779.29</ele>
        <time>2015-07-29T13:52:07Z</time>
      </trkpt>
      <trkpt lat="46.04971" lon="6.76443">
        <ele>780.73</ele>
        <time>2015-07-29T13:53:12Z</time>
      </trkpt>
      <trkpt lat="46.04962" lon="6.76441">
        <ele>780.73</ele>
        <time>2015-07-29T13:54:17Z</time>
      </trkpt>
      <trkpt lat="46.04929" lon="6.76391">
        <ele>781.69</ele>
        <time>2015-07-29T13:55:22Z</time>
      </trkpt>
      <trkpt lat="46.04903" lon="6.76409">
        <ele>776.4</ele>
        <time>2015-07-29T13:56:27Z</time>
      </trkpt>
      <trkpt lat="46.0484" lon="6.76413">
        <ele>768.23</ele>
        <time>2015-07-29T13:57:32Z</time>
      </trkpt>
      <trkpt lat="46.04778" lon="6.76401">
        <ele>772.08</ele>
        <time>2015-07-29T13:58:37Z</time>
      </trkpt>
      <trkpt lat="46.04775" lon="6.76472">
        <ele>771.11</ele>
        <time>2015-07-29T13:59:42Z</time>
      </trkpt>
      <trkpt lat="46.04785" lon="6.76543">
        <ele>779.77</ele>
        <time>2015-07-29T14:00:47Z</time>
      </trkpt>
      <trkpt lat="46.04754" lon="6.76598">
        <ele>787.94</ele>
        <time>2015-07-29T14:01:52Z</time>
      </trkpt>
      <trkpt lat="46.04712" lon="6.76633">
        <ele>793.71</ele>
        <time>2015-07-29T14:02:57Z</time>
      </trkpt>
      <trkpt lat="46.04689" lon="6.76703">
        <ele>801.88</ele>
        <time>2015-07-29T14:04:02Z</time>
      </trkpt>
      <trkpt lat="46.04682" lon="6.76777">
        <ele>809.09</ele>
        <time>2015-07-29T14:05:07Z</time>
      </trkpt>
      <trkpt lat="46.04682" lon="6.7686">
        <ele>819.66</ele>
        <time>2015-07-29T14:06:12Z</time>
      </trkpt>
      <trkpt lat="46.04679" lon="6.76935">
        <ele>828.31</ele>
        <time>2015-07-29T14:07:17Z</time>
      </trkpt>
      <trkpt lat="46.04637" lon="6.76963">
        <ele>833.12</ele>
        <time>2015-07-29T14:08:22Z</time>
      </trkpt>
    </trkseg>
  </trk>
  <trk>
    <name><![CDATA[ACTIVE LOG: 30 JUL 2015 07:13]]></name>
    <trkseg>
      <trkpt lat="46.04636" lon="6.76963">
        <ele>827.35</ele>
        <time>2015-07-30T05:13:55Z</time>
      </trkpt>
      <trkpt lat="46.04704" lon="6.76958">
        <ele>824.47</ele>
        <time>2015-07-30T05:15:00Z</time>
      </trkpt>
      <trkpt lat="46.04782" lon="6.76975">
        <ele>817.74</ele>
        <time>2015-07-30T05:16:05Z</time>
      </trkpt>
      <trkpt lat="46.04834" lon="6.77017">
        <ele>812.93</ele>
        <time>2015-07-30T05:17:10Z</time>
      </trkpt>
      <trkpt lat="46.0487" lon="6.77095">
        <ele>809.57</ele>
        <time>2015-07-30T05:18:15Z</time>
      </trkpt>
      <trkpt lat="46.04915" lon="6.77149">
        <ele>805.24</ele>
        <time>2015-07-30T05:19:20Z</time>
      </trkpt>
      <trkpt lat="46.04968" lon="6.77175">
        <ele>799.47</ele>
        <time>2015-07-30T05:20:25Z</time>
      </trkpt>
      <trkpt lat="46.05029" lon="6.77232">
        <ele>793.22</ele>
        <time>2015-07-30T05:21:30Z</time>
      </trkpt>
      <trkpt lat="46.05096" lon="6.77256">
        <ele>786.98</ele>
        <time>2015-07-30T05:22:35Z</time>
      </trkpt>
      <trkpt lat="46.05176" lon="6.77273">
        <ele>782.65</ele>
        <time>2015-07-30T05:23:40Z</time>
      </trkpt>
      <trkpt lat="46.0524" lon="6.77328">
        <ele>774.48</ele>
        <time>2015-07-30T05:24:45Z</time>
      </trkpt>
      <trkpt lat="46.0528" lon="6.77432">
        <ele>771.6</ele>
        <time>2015-07-30T05:25:50Z</time>
      </trkpt>
      <trkpt lat="46.05335" lon="6.77493">
        <ele>767.75</ele>
        <time>2015-07-30T05:26:55Z</time>
      </trkpt>
      <trkpt lat="46.05401" lon="6.77515">
        <ele>763.9</ele>
        <time>2015-07-30T05:28:00Z</time>
      </trkpt>
      <trkpt lat="46.05454" lon="6.77567">
        <ele>763.42</ele>
        <time>2015-07-30T05:29:05Z</time>
      </trkpt>
      <trkpt lat="46.05511" lon="6.77575">
        <ele>763.42</ele>
        <time>2015-07-30T05:30:10Z</time>
      </trkpt>
      <trkpt lat="46.05557" lon="6.7756">
        <ele>763.9</ele>
        <time>2015-07-30T05:31:15Z</time>
      </trkpt>
      <trkpt lat="46.0557" lon="6.77548">
        <ele>763.9</ele>
        <time>2015-07-30T05:31:41Z</time>
      </trkpt>
    </trkseg>
  </trk>
  <trk>
    <name><![CDATA[ACTIVE LOG: 30 JUL 2015 07:36]]></name>
    <trkseg>
      <trkpt lat="46.05566" lon="6.77555">
        <ele>765.83</ele>
        <time>2015-07-30T05:37:43Z</time>
      </trkpt>
      <trkpt lat="46.05556" lon="6.77572">
        <ele>764.39</ele>
        <time>2015-07-30T05:38:48Z</time>
      </trkpt>
      <trkpt lat="46.0551" lon="6.77577">
        <ele>765.35</ele>
        <time>2015-07-30T05:39:53Z</time>
      </trkpt>
      <trkpt lat="46.05502" lon="6.77654">
        <ele>763.42</ele>
        <time>2015-07-30T05:40:58Z</time>
      </trkpt>
      <trkpt lat="46.0554" lon="6.77728">
        <ele>766.79</ele>
        <time>2015-07-30T05:42:03Z</time>
      </trkpt>
      <trkpt lat="46.05581" lon="6.77781">
        <ele>769.19</ele>
        <time>2015-07-30T05:43:08Z</time>
      </trkpt>
      <trkpt lat="46.05606" lon="6.77885">
        <ele>774.48</ele>
        <time>2015-07-30T05:44:13Z</time>
      </trkpt>
      <trkpt lat="46.05565" lon="6.7799">
        <ele>778.32</ele>
        <time>2015-07-30T05:45:18Z</time>
      </trkpt>
      <trkpt lat="46.0558" lon="6.78089">
        <ele>777.36</ele>
        <time>2015-07-30T05:46:23Z</time>
      </trkpt>
      <trkpt lat="46.05586" lon="6.78197">
        <ele>772.56</ele>
        <time>2015-07-30T05:47:28Z</time>
      </trkpt>
      <trkpt lat="46.05637" lon="6.78301">
        <ele>772.08</ele>
        <time>2015-07-30T05:48:33Z</time>
      </trkpt>
      <trkpt lat="46.05707" lon="6.78324">
        <ele>771.6</ele>
        <time>2015-07-30T05:49:38Z</time>
      </trkpt>
      <trkpt lat="46.05787" lon="6.78301">
        <ele>771.6</ele>
        <time>2015-07-30T05:50:43Z</time>
      </trkpt>
      <trkpt lat="46.05796" lon="6.78364">
        <ele>771.11</ele>
        <time>2015-07-30T05:51:48Z</time>
      </trkpt>
      <trkpt lat="46.05791" lon="6.78478">
        <ele>773.04</ele>
        <time>2015-07-30T05:52:53Z</time>
      </trkpt>
      <trkpt lat="46.05746" lon="6.78544">
        <ele>775.44</ele>
        <time>2015-07-30T05:53:58Z</time>
      </trkpt>
      <trkpt lat="46.05727" lon="6.786">
        <ele>785.05</ele>
        <time>2015-07-30T05:55:03Z</time>
      </trkpt>
      <trkpt lat="46.05714" lon="6.78607">
        <ele>801.88</ele>
        <time>2015-07-30T05:56:08Z</time>
      </trkpt>
      <trkpt lat="46.05722" lon="6.78664">
        <ele>809.57</ele>
        <time>2015-07-30T05:57:13Z</time>
      </trkpt>
      <trkpt lat="46.05743" lon="6.78729">
        <ele>811.97</ele>
        <time>2015-07-30T05:58:18Z</time>
      </trkpt>
      <trkpt lat="46.05768" lon="6.78795">
        <ele>811.49</ele>
        <time>2015-07-30T05:59:23Z</time>
      </trkpt>
      <trkpt lat="46.0579" lon="6.78883">
        <ele>811.97</ele>
        <time>2015-07-30T06:00:28Z</time>
      </trkpt>
      <trkpt lat="46.05805" lon="6.7896">
        <ele>811.01</ele>
        <time>2015-07-30T06:01:33Z</time>
      </trkpt>
      <trkpt lat="46.05818" lon="6.79024">
        <ele>810.05</ele>
        <time>2015-07-30T06:02:38Z</time>
      </trkpt>
      <trkpt lat="46.05808" lon="6.7903">
        <ele>811.01</ele>
        <time>2015-07-30T06:03:43Z</time>
      </trkpt>
      <trkpt lat="46.05837" lon="6.79035">
        <ele>812.45</ele>
        <time>2015-07-30T06:04:48Z</time>
      </trkpt>
      <trkpt lat="46.05877" lon="6.79099">
        <ele>812.93</ele>
        <time>2015-07-30T06:05:53Z</time>
      </trkpt>
      <trkpt lat="46.05924" lon="6.79183">
        <ele>812.93</ele>
        <time>2015-07-30T06:06:58Z</time>
      </trkpt>
      <trkpt lat="46.05951" lon="6.79237">
        <ele>811.49</ele>
        <time>2015-07-30T06:08:03Z</time>
      </trkpt>
      <trkpt lat="46.06015" lon="6.79356">
        <ele>816.3</ele>
        <time>2015-07-30T06:09:08Z</time>
      </trkpt>
      <trkpt lat="46.06005" lon="6.79453">
        <ele>824.47</ele>
        <time>2015-07-30T06:10:13Z</time>
      </trkpt>
      <trkpt lat="46.06033" lon="6.79533">
        <ele>830.24</ele>
        <time>2015-07-30T06:11:18Z</time>
      </trkpt>
      <trkpt lat="46.06066" lon="6.79609">
        <ele>834.08</ele>
        <time>2015-07-30T06:12:23Z</time>
      </trkpt>
      <trkpt lat="46.06084" lon="6.7966">
        <ele>839.85</ele>
        <time>2015-07-30T06:13:28Z</time>
      </trkpt>
      <trkpt lat="46.06118" lon="6.79688">
        <ele>844.66</ele>
        <time>2015-07-30T06:14:33Z</time>
      </trkpt>
      <trkpt lat="46.06169" lon="6.7968">
        <ele>846.58</ele>
        <time>2015-07-30T06:15:38Z</time>
      </trkpt>
      <trkpt lat="46.06205" lon="6.79658">
        <ele>846.1</ele>
        <time>2015-07-30T06:16:43Z</time>
      </trkpt>
      <trkpt lat="46.0624" lon="6.79683">
        <ele>847.06</ele>
        <time>2015-07-30T06:17:48Z</time>
      </trkpt>
      <trkpt lat="46.06291" lon="6.79737">
        <ele>845.62</ele>
        <time>2015-07-30T06:18:53Z</time>
      </trkpt>
      <trkpt lat="46.06336" lon="6.79801">
        <ele>845.14</ele>
        <time>2015-07-30T06:19:58Z</time>
      </trkpt>
      <trkpt lat="46.0637" lon="6.79801">
        <ele>837.93</ele>
        <time>2015-07-30T06:21:03Z</time>
      </trkpt>
      <trkpt lat="46.06394" lon="6.79854">
        <ele>836</ele>
        <time>2015-07-30T06:22:08Z</time>
      </trkpt>
      <trkpt lat="46.06423" lon="6.79935">
        <ele>829.76</ele>
        <time>2015-07-30T06:23:13Z</time>
      </trkpt>
      <trkpt lat="46.06472" lon="6.80021">
        <ele>829.27</ele>
        <time>2015-07-30T06:24:18Z</time>
      </trkpt>
      <trkpt lat="46.06514" lon="6.80095">
        <ele>830.24</ele>
        <time>2015-07-30T06:25:23Z</time>
      </trkpt>
      <trkpt lat="46.06547" lon="6.80159">
        <ele>830.24</ele>
        <time>2015-07-30T06:26:28Z</time>
      </trkpt>
      <trkpt lat="46.06593" lon="6.80234">
        <ele>831.2</ele>
        <time>2015-07-30T06:27:33Z</time>
      </trkpt>
      <trkpt lat="46.06649" lon="6.80305">
        <ele>831.68</ele>
        <time>2015-07-30T06:28:38Z</time>
      </trkpt>
      <trkpt lat="46.06665" lon="6.80362">
        <ele>832.64</ele>
        <time>2015-07-30T06:29:43Z</time>
      </trkpt>
      <trkpt lat="46.06719" lon="6.80391">
        <ele>834.56</ele>
        <time>2015-07-30T06:30:48Z</time>
      </trkpt>
      <trkpt lat="46.06746" lon="6.80485">
        <ele>835.52</ele>
        <time>2015-07-30T06:31:53Z</time>
      </trkpt>
      <trkpt lat="46.06773" lon="6.80545">
        <ele>836.48</ele>
        <time>2015-07-30T06:32:58Z</time>
      </trkpt>
      <trkpt lat="46.06761" lon="6.80552">
        <ele>835.52</ele>
        <time>2015-07-30T06:34:03Z</time>
      </trkpt>
      <trkpt lat="46.06765" lon="6.80565">
        <ele>836</ele>
        <time>2015-07-30T06:35:08Z</time>
      </trkpt>
      <trkpt lat="46.06803" lon="6.80585">
        <ele>837.93</ele>
        <time>2015-07-30T06:36:13Z</time>
      </trkpt>
      <trkpt lat="46.06798" lon="6.80657">
        <ele>838.89</ele>
        <time>2015-07-30T06:37:18Z</time>
      </trkpt>
      <trkpt lat="46.06819" lon="6.80748">
        <ele>841.29</ele>
        <time>2015-07-30T06:38:23Z</time>
      </trkpt>
      <trkpt lat="46.0684" lon="6.80847">
        <ele>842.73</ele>
        <time>2015-07-30T06:39:28Z</time>
      </trkpt>
      <trkpt lat="46.06877" lon="6.80933">
        <ele>843.69</ele>
        <time>2015-07-30T06:40:33Z</time>
      </trkpt>
      <trkpt lat="46.06894" lon="6.81036">
        <ele>845.14</ele>
        <time>2015-07-30T06:41:38Z</time>
      </trkpt>
      <trkpt lat="46.06913" lon="6.81148">
        <ele>847.06</ele>
        <time>2015-07-30T06:42:43Z</time>
      </trkpt>
      <trkpt lat="46.06904" lon="6.81245">
        <ele>848.98</ele>
        <time>2015-07-30T06:43:48Z</time>
      </trkpt>
      <trkpt lat="46.0693" lon="6.81327">
        <ele>849.46</ele>
        <time>2015-07-30T06:44:53Z</time>
      </trkpt>
      <trkpt lat="46.0697" lon="6.81405">
        <ele>850.9</ele>
        <time>2015-07-30T06:45:58Z</time>
      </trkpt>
      <trkpt lat="46.07008" lon="6.81499">
        <ele>852.35</ele>
        <time>2015-07-30T06:47:03Z</time>
      </trkpt>
      <trkpt lat="46.07041" lon="6.81602">
        <ele>854.27</ele>
        <time>2015-07-30T06:48:08Z</time>
      </trkpt>
      <trkpt lat="46.07062" lon="6.81703">
        <ele>861</ele>
        <time>2015-07-30T06:49:13Z</time>
      </trkpt>
      <trkpt lat="46.07077" lon="6.81801">
        <ele>868.21</ele>
        <time>2015-07-30T06:50:18Z</time>
      </trkpt>
      <trkpt lat="46.07088" lon="6.81899">
        <ele>864.84</ele>
        <time>2015-07-30T06:51:23Z</time>
      </trkpt>
      <trkpt lat="46.07113" lon="6.81965">
        <ele>865.32</ele>
        <time>2015-07-30T06:52:28Z</time>
      </trkpt>
      <trkpt lat="46.07137" lon="6.82034">
        <ele>863.88</ele>
        <time>2015-07-30T06:53:33Z</time>
      </trkpt>
      <trkpt lat="46.07161" lon="6.82082">
        <ele>863.88</ele>
        <time>2015-07-30T06:54:38Z</time>
      </trkpt>
      <trkpt lat="46.07197" lon="6.82172">
        <ele>866.77</ele>
        <time>2015-07-30T06:55:43Z</time>
      </trkpt>
      <trkpt lat="46.07221" lon="6.82197">
        <ele>868.69</ele>
        <time>2015-07-30T06:56:48Z</time>
      </trkpt>
      <trkpt lat="46.07294" lon="6.82257">
        <ele>872.53</ele>
        <time>2015-07-30T06:57:53Z</time>
      </trkpt>
      <trkpt lat="46.07301" lon="6.82352">
        <ele>876.38</ele>
        <time>2015-07-30T06:58:58Z</time>
      </trkpt>
      <trkpt lat="46.07323" lon="6.82455">
        <ele>881.19</ele>
        <time>2015-07-30T07:00:03Z</time>
      </trkpt>
      <trkpt lat="46.07359" lon="6.82554">
        <ele>888.4</ele>
        <time>2015-07-30T07:01:08Z</time>
      </trkpt>
      <trkpt lat="46.0738" lon="6.82645">
        <ele>894.64</ele>
        <time>2015-07-30T07:02:13Z</time>
      </trkpt>
      <trkpt lat="46.07411" lon="6.82717">
        <ele>898.97</ele>
        <time>2015-07-30T07:03:18Z</time>
      </trkpt>
      <trkpt lat="46.07457" lon="6.82781">
        <ele>899.93</ele>
        <time>2015-07-30T07:04:23Z</time>
      </trkpt>
      <trkpt lat="46.07503" lon="6.82861">
        <ele>902.82</ele>
        <time>2015-07-30T07:05:28Z</time>
      </trkpt>
      <trkpt lat="46.07535" lon="6.82899">
        <ele>902.82</ele>
        <time>2015-07-30T07:06:16Z</time>
      </trkpt>
    </trkseg>
  </trk>
  <trk>
    <name><![CDATA[ACTIVE LOG: 30 JUL 2015 09:14]]></name>
    <trkseg>
      <trkpt lat="46.0753" lon="6.82893">
        <ele>865.8</ele>
        <time>2015-07-30T07:15:32Z</time>
      </trkpt>
      <trkpt lat="46.07538" lon="6.82926">
        <ele>902.82</ele>
        <time>2015-07-30T07:16:37Z</time>
      </trkpt>
      <trkpt lat="46.07565" lon="6.83013">
        <ele>905.7</ele>
        <time>2015-07-30T07:17:42Z</time>
      </trkpt>
      <trkpt lat="46.07562" lon="6.83127">
        <ele>908.58</ele>
        <time>2015-07-30T07:18:47Z</time>
      </trkpt>
      <trkpt lat="46.07569" lon="6.83202">
        <ele>909.54</ele>
        <time>2015-07-30T07:19:52Z</time>
      </trkpt>
      <trkpt lat="46.07575" lon="6.83201">
        <ele>909.54</ele>
        <time>2015-07-30T07:20:57Z</time>
      </trkpt>
      <trkpt lat="46.07633" lon="6.83195">
        <ele>917.72</ele>
        <time>2015-07-30T07:22:02Z</time>
      </trkpt>
      <trkpt lat="46.0767" lon="6.83257">
        <ele>929.25</ele>
        <time>2015-07-30T07:23:07Z</time>
      </trkpt>
      <trkpt lat="46.07695" lon="6.8332">
        <ele>938.38</ele>
        <time>2015-07-30T07:24:12Z</time>
      </trkpt>
      <trkpt lat="46.07733" lon="6.83373">
        <ele>948.96</ele>
        <time>2015-07-30T07:25:17Z</time>
      </trkpt>
      <trkpt lat="46.07778" lon="6.83438">
        <ele>954.25</ele>
        <time>2015-07-30T07:26:22Z</time>
      </trkpt>
      <trkpt lat="46.07824" lon="6.83506">
        <ele>961.94</ele>
        <time>2015-07-30T07:27:27Z</time>
      </trkpt>
      <trkpt lat="46.07883" lon="6.83543">
        <ele>968.67</ele>
        <time>2015-07-30T07:28:32Z</time>
      </trkpt>
      <trkpt lat="46.07935" lon="6.83565">
        <ele>974.91</ele>
        <time>2015-07-30T07:29:37Z</time>
      </trkpt>
      <trkpt lat="46.07931" lon="6.83573">
        <ele>975.88</ele>
        <time>2015-07-30T07:30:42Z</time>
      </trkpt>
      <trkpt lat="46.07979" lon="6.83609">
        <ele>980.68</ele>
        <time>2015-07-30T07:31:47Z</time>
      </trkpt>
      <trkpt lat="46.07999" lon="6.83646">
        <ele>990.3</ele>
        <time>2015-07-30T07:32:52Z</time>
      </trkpt>
      <trkpt lat="46.08058" lon="6.83667">
        <ele>998.95</ele>
        <time>2015-07-30T07:33:57Z</time>
      </trkpt>
      <trkpt lat="46.08096" lon="6.83692">
        <ele>1008.56</ele>
        <time>2015-07-30T07:35:02Z</time>
      </trkpt>
      <trkpt lat="46.08141" lon="6.83742">
        <ele>1012.41</ele>
        <time>2015-07-30T07:36:07Z</time>
      </trkpt>
      <trkpt lat="46.08211" lon="6.83765">
        <ele>1017.69</ele>
        <time>2015-07-30T07:37:12Z</time>
      </trkpt>
      <trkpt lat="46.08276" lon="6.83762">
        <ele>1016.25</ele>
        <time>2015-07-30T07:38:17Z</time>
      </trkpt>
      <trkpt lat="46.08332" lon="6.83739">
        <ele>1017.69</ele>
        <time>2015-07-30T07:39:22Z</time>
      </trkpt>
      <trkpt lat="46.08328" lon="6.83759">
        <ele>1018.17</ele>
        <time>2015-07-30T07:40:27Z</time>
      </trkpt>
      <trkpt lat="46.08382" lon="6.83816">
        <ele>1018.17</ele>
        <time>2015-07-30T07:41:32Z</time>
      </trkpt>
      <trkpt lat="46.08425" lon="6.83854">
        <ele>1018.17</ele>
        <time>2015-07-30T07:42:37Z</time>
      </trkpt>
      <trkpt lat="46.0847" lon="6.83884">
        <ele>1018.65</ele>
        <time>2015-07-30T07:43:42Z</time>
      </trkpt>
      <trkpt lat="46.0855" lon="6.83879">
        <ele>1021.54</ele>
        <time>2015-07-30T07:44:47Z</time>
      </trkpt>
      <trkpt lat="46.08572" lon="6.83848">
        <ele>1025.38</ele>
        <time>2015-07-30T07:45:52Z</time>
      </trkpt>
      <trkpt lat="46.0859" lon="6.83858">
        <ele>1025.38</ele>
        <time>2015-07-30T07:46:57Z</time>
      </trkpt>
      <trkpt lat="46.08634" lon="6.83854">
        <ele>1027.31</ele>
        <time>2015-07-30T07:48:02Z</time>
      </trkpt>
      <trkpt lat="46.08659" lon="6.83868">
        <ele>1031.15</ele>
        <time>2015-07-30T07:49:07Z</time>
      </trkpt>
      <trkpt lat="46.08689" lon="6.83894">
        <ele>1030.67</ele>
        <time>2015-07-30T07:50:12Z</time>
      </trkpt>
      <trkpt lat="46.08753" lon="6.83916">
        <ele>1029.71</ele>
        <time>2015-07-30T07:51:17Z</time>
      </trkpt>
      <trkpt lat="46.08786" lon="6.83933">
        <ele>1035.48</ele>
        <time>2015-07-30T07:52:22Z</time>
      </trkpt>
      <trkpt lat="46.08799" lon="6.83942">
        <ele>1035.96</ele>
        <time>2015-07-30T07:53:27Z</time>
      </trkpt>
      <trkpt lat="46.08837" lon="6.83973">
        <ele>1035</ele>
        <time>2015-07-30T07:54:32Z</time>
      </trkpt>
      <trkpt lat="46.08896" lon="6.84015">
        <ele>1030.67</ele>
        <time>2015-07-30T07:55:37Z</time>
      </trkpt>
      <trkpt lat="46.08914" lon="6.84016">
        <ele>1028.75</ele>
        <time>2015-07-30T07:56:42Z</time>
      </trkpt>
      <trkpt lat="46.08922" lon="6.8404">
        <ele>1031.15</ele>
        <time>2015-07-30T07:57:47Z</time>
      </trkpt>
      <trkpt lat="46.08942" lon="6.84007">
        <ele>1033.55</ele>
        <time>2015-07-30T07:58:52Z</time>
      </trkpt>
      <trkpt lat="46.08954" lon="6.84071">
        <ele>1033.55</ele>
        <time>2015-07-30T07:59:57Z</time>
      </trkpt>
    </trkseg>
  </trk>
  <trk>
    <name><![CDATA[ACTIVE LOG: 30 JUL 2015 10:17]]></name>
    <trkseg>
      <trkpt lat="46.08965" lon="6.84073">
        <ele>1024</ele>
        <time>2015-07-30T08:07:26Z</time>
      </trkpt>
      <trkpt lat="46.09057" lon="6.84171">
        <ele>1017</ele>
        <time>2015-07-30T08:08:26Z</time>
      </trkpt>
      <trkpt lat="46.09122" lon="6.84207">
        <ele>1018</ele>
        <time>2015-07-30T08:09:26Z</time>
      </trkpt>
      <trkpt lat="46.09176" lon="6.84278">
        <ele>1016</ele>
        <time>2015-07-30T08:10:26Z</time>
      </trkpt>
      <trkpt lat="46.0926" lon="6.84308">
        <ele>1017</ele>
        <time>2015-07-30T08:11:26Z</time>
      </trkpt>
      <trkpt lat="46.09333" lon="6.8439">
        <ele>1021</ele>
        <time>2015-07-30T08:12:26Z</time>
      </trkpt>
      <trkpt lat="46.09378" lon="6.84472">
        <ele>1024</ele>
        <time>2015-07-30T08:13:26Z</time>
      </trkpt>
      <trkpt lat="46.09418" lon="6.84486">
        <ele>1028</ele>
        <time>2015-07-30T08:14:26Z</time>
      </trkpt>
      <trkpt lat="46.09471" lon="6.84556">
        <ele>1026</ele>
        <time>2015-07-30T08:15:26Z</time>
      </trkpt>
      <trkpt lat="46.09471" lon="6.84556">
        <ele>1026</ele>
        <time>2015-07-30T08:16:26Z</time>
      </trkpt>
      <trkpt lat="46.09469" lon="6.84571">
        <ele>1044.13</ele>
        <time>2015-07-30T08:17:26Z</time>
      </trkpt>
      <trkpt lat="46.09521" lon="6.84581">
        <ele>1047.97</ele>
        <time>2015-07-30T08:18:31Z</time>
      </trkpt>
      <trkpt lat="46.09533" lon="6.84633">
        <ele>1042.21</ele>
        <time>2015-07-30T08:19:36Z</time>
      </trkpt>
      <trkpt lat="46.09546" lon="6.84646">
        <ele>1038.84</ele>
        <time>2015-07-30T08:20:41Z</time>
      </trkpt>
      <trkpt lat="46.09563" lon="6.84694">
        <ele>1035</ele>
        <time>2015-07-30T08:21:46Z</time>
      </trkpt>
      <trkpt lat="46.0959" lon="6.84743">
        <ele>1032.11</ele>
        <time>2015-07-30T08:22:51Z</time>
      </trkpt>
      <trkpt lat="46.0962" lon="6.84795">
        <ele>1030.19</ele>
        <time>2015-07-30T08:23:56Z</time>
      </trkpt>
      <trkpt lat="46.09648" lon="6.84819">
        <ele>1027.31</ele>
        <time>2015-07-30T08:25:01Z</time>
      </trkpt>
      <trkpt lat="46.09707" lon="6.84849">
        <ele>1026.83</ele>
        <time>2015-07-30T08:26:06Z</time>
      </trkpt>
      <trkpt lat="46.09743" lon="6.84886">
        <ele>1024.9</ele>
        <time>2015-07-30T08:27:11Z</time>
      </trkpt>
      <trkpt lat="46.09758" lon="6.84878">
        <ele>1022.5</ele>
        <time>2015-07-30T08:28:16Z</time>
      </trkpt>
      <trkpt lat="46.09786" lon="6.84921">
        <ele>1018.17</ele>
        <time>2015-07-30T08:29:21Z</time>
      </trkpt>
      <trkpt lat="46.09779" lon="6.8494">
        <ele>1013.37</ele>
        <time>2015-07-30T08:30:26Z</time>
      </trkpt>
      <trkpt lat="46.09805" lon="6.84918">
        <ele>1011.44</ele>
        <time>2015-07-30T08:31:31Z</time>
      </trkpt>
      <trkpt lat="46.09842" lon="6.84946">
        <ele>1008.08</ele>
        <time>2015-07-30T08:32:36Z</time>
      </trkpt>
      <trkpt lat="46.09883" lon="6.84971">
        <ele>1006.64</ele>
        <time>2015-07-30T08:33:41Z</time>
      </trkpt>
      <trkpt lat="46.09888" lon="6.85">
        <ele>1002.79</ele>
        <time>2015-07-30T08:34:46Z</time>
      </trkpt>
      <trkpt lat="46.09888" lon="6.85002">
        <ele>1001.35</ele>
        <time>2015-07-30T08:35:51Z</time>
      </trkpt>
    </trkseg>
  </trk>
  <trk>
    <name><![CDATA[ACTIVE LOG: 30 JUL 2015 10:45]]></name>
    <trkseg>
      <trkpt lat="46.09881" lon="6.84982">
        <ele>998.95</ele>
        <time>2015-07-30T08:47:39Z</time>
      </trkpt>
      <trkpt lat="46.09931" lon="6.85028">
        <ele>1001.35</ele>
        <time>2015-07-30T08:48:44Z</time>
      </trkpt>
      <trkpt lat="46.09983" lon="6.85053">
        <ele>1004.23</ele>
        <time>2015-07-30T08:49:49Z</time>
      </trkpt>
      <trkpt lat="46.10038" lon="6.85075">
        <ele>1002.79</ele>
        <time>2015-07-30T08:50:54Z</time>
      </trkpt>
      <trkpt lat="46.10059" lon="6.85121">
        <ele>1004.23</ele>
        <time>2015-07-30T08:51:59Z</time>
      </trkpt>
      <trkpt lat="46.10095" lon="6.85161">
        <ele>1004.23</ele>
        <time>2015-07-30T08:53:04Z</time>
      </trkpt>
      <trkpt lat="46.10144" lon="6.85199">
        <ele>1004.23</ele>
        <time>2015-07-30T08:54:09Z</time>
      </trkpt>
      <trkpt lat="46.10197" lon="6.85198">
        <ele>1008.56</ele>
        <time>2015-07-30T08:55:14Z</time>
      </trkpt>
      <trkpt lat="46.10222" lon="6.8519">
        <ele>1005.68</ele>
        <time>2015-07-30T08:56:19Z</time>
      </trkpt>
      <trkpt lat="46.10259" lon="6.85199">
        <ele>1004.23</ele>
        <time>2015-07-30T08:57:24Z</time>
      </trkpt>
      <trkpt lat="46.1028" lon="6.85166">
        <ele>1005.2</ele>
        <time>2015-07-30T08:58:29Z</time>
      </trkpt>
      <trkpt lat="46.10306" lon="6.85127">
        <ele>1008.08</ele>
        <time>2015-07-30T08:59:34Z</time>
      </trkpt>
      <trkpt lat="46.10306" lon="6.85127">
        <ele>1005.68</ele>
        <time>2015-07-30T09:00:39Z</time>
      </trkpt>
      <trkpt lat="46.1029" lon="6.85179">
        <ele>1000.87</ele>
        <time>2015-07-30T09:01:44Z</time>
      </trkpt>
      <trkpt lat="46.10291" lon="6.85245">
        <ele>997.99</ele>
        <time>2015-07-30T09:02:49Z</time>
      </trkpt>
      <trkpt lat="46.10309" lon="6.85329">
        <ele>996.06</ele>
        <time>2015-07-30T09:03:54Z</time>
      </trkpt>
      <trkpt lat="46.10278" lon="6.85355">
        <ele>995.1</ele>
        <time>2015-07-30T09:04:59Z</time>
      </trkpt>
      <trkpt lat="46.10302" lon="6.85353">
        <ele>995.1</ele>
        <time>2015-07-30T09:06:04Z</time>
      </trkpt>
      <trkpt lat="46.10332" lon="6.8538">
        <ele>997.51</ele>
        <time>2015-07-30T09:07:09Z</time>
      </trkpt>
      <trkpt lat="46.10353" lon="6.85428">
        <ele>999.43</ele>
        <time>2015-07-30T09:08:14Z</time>
      </trkpt>
      <trkpt lat="46.10399" lon="6.85487">
        <ele>1004.23</ele>
        <time>2015-07-30T09:09:19Z</time>
      </trkpt>
      <trkpt lat="46.10446" lon="6.85551">
        <ele>1006.16</ele>
        <time>2015-07-30T09:10:24Z</time>
      </trkpt>
      <trkpt lat="46.10486" lon="6.8562">
        <ele>1012.89</ele>
        <time>2015-07-30T09:11:29Z</time>
      </trkpt>
      <trkpt lat="46.10517" lon="6.85679">
        <ele>1013.85</ele>
        <time>2015-07-30T09:12:34Z</time>
      </trkpt>
      <trkpt lat="46.10516" lon="6.8572">
        <ele>1015.29</ele>
        <time>2015-07-30T09:13:39Z</time>
      </trkpt>
      <trkpt lat="46.10514" lon="6.85764">
        <ele>1020.58</ele>
        <time>2015-07-30T09:14:44Z</time>
      </trkpt>
      <trkpt lat="46.10513" lon="6.85773">
        <ele>1058.55</ele>
        <time>2015-07-30T09:15:49Z</time>
      </trkpt>
      <trkpt lat="46.10513" lon="6.85775">
        <ele>1059.03</ele>
        <time>2015-07-30T09:16:54Z</time>
      </trkpt>
      <trkpt lat="46.10501" lon="6.85764">
        <ele>1058.07</ele>
        <time>2015-07-30T09:17:59Z</time>
      </trkpt>
      <trkpt lat="46.10487" lon="6.85766">
        <ele>1059.03</ele>
        <time>2015-07-30T09:19:04Z</time>
      </trkpt>
      <trkpt lat="46.10491" lon="6.85764">
        <ele>1059.03</ele>
        <time>2015-07-30T09:20:09Z</time>
      </trkpt>
      <trkpt lat="46.1045" lon="6.85737">
        <ele>1053.74</ele>
        <time>2015-07-30T09:21:14Z</time>
      </trkpt>
      <trkpt lat="46.10394" lon="6.85735">
        <ele>1049.42</ele>
        <time>2015-07-30T09:22:19Z</time>
      </trkpt>
      <trkpt lat="46.10342" lon="6.85751">
        <ele>1047.97</ele>
        <time>2015-07-30T09:23:24Z</time>
      </trkpt>
      <trkpt lat="46.10282" lon="6.85725">
        <ele>1044.13</ele>
        <time>2015-07-30T09:24:29Z</time>
      </trkpt>
      <trkpt lat="46.10245" lon="6.85664">
        <ele>1044.61</ele>
        <time>2015-07-30T09:25:34Z</time>
      </trkpt>
      <trkpt lat="46.10227" lon="6.85668">
        <ele>1044.61</ele>
        <time>2015-07-30T09:26:39Z</time>
      </trkpt>
      <trkpt lat="46.1023" lon="6.85648">
        <ele>1044.61</ele>
        <time>2015-07-30T09:27:44Z</time>
      </trkpt>
      <trkpt lat="46.1024" lon="6.85606">
        <ele>1043.65</ele>
        <time>2015-07-30T09:28:49Z</time>
      </trkpt>
      <trkpt lat="46.10264" lon="6.85586">
        <ele>1042.69</ele>
        <time>2015-07-30T09:29:54Z</time>
      </trkpt>
      <trkpt lat="46.10242" lon="6.85605">
        <ele>1041.25</ele>
        <time>2015-07-30T09:30:59Z</time>
      </trkpt>
      <trkpt lat="46.10228" lon="6.85568">
        <ele>1041.25</ele>
        <time>2015-07-30T09:32:04Z</time>
      </trkpt>
      <trkpt lat="46.10235" lon="6.8551">
        <ele>1041.73</ele>
        <time>2015-07-30T09:33:09Z</time>
      </trkpt>
      <trkpt lat="46.10163" lon="6.85453">
        <ele>1041.73</ele>
        <time>2015-07-30T09:34:14Z</time>
      </trkpt>
      <trkpt lat="46.10137" lon="6.85424">
        <ele>1039.8</ele>
        <time>2015-07-30T09:35:19Z</time>
      </trkpt>
      <trkpt lat="46.10132" lon="6.85418">
        <ele>1040.28</ele>
        <time>2015-07-30T09:36:24Z</time>
      </trkpt>
      <trkpt lat="46.10134" lon="6.85419">
        <ele>1040.28</ele>
        <time>2015-07-30T09:37:29Z</time>
      </trkpt>
      <trkpt lat="46.10107" lon="6.85395">
        <ele>1037.88</ele>
        <time>2015-07-30T09:38:34Z</time>
      </trkpt>
      <trkpt lat="46.10083" lon="6.85388">
        <ele>1037.4</ele>
        <time>2015-07-30T09:39:24Z</time>
      </trkpt>
    </trkseg>
  </trk>
  <trk>
    <name><![CDATA[ACTIVE LOG: 30 JUL 2015 12:41]]></name>
    <trkseg>
      <trkpt lat="46.10108" lon="6.85376">
        <ele>1037.88</ele>
        <time>2015-07-30T10:43:42Z</time>
      </trkpt>
      <trkpt lat="46.10082" lon="6.85346">
        <ele>1036.44</ele>
        <time>2015-07-30T10:44:47Z</time>
      </trkpt>
      <trkpt lat="46.10039" lon="6.85325">
        <ele>1035.96</ele>
        <time>2015-07-30T10:45:52Z</time>
      </trkpt>
      <trkpt lat="46.09951" lon="6.85313">
        <ele>1035</ele>
        <time>2015-07-30T10:46:57Z</time>
      </trkpt>
      <trkpt lat="46.09912" lon="6.85269">
        <ele>1037.88</ele>
        <time>2015-07-30T10:48:02Z</time>
      </trkpt>
      <trkpt lat="46.0986" lon="6.85212">
        <ele>1031.15</ele>
        <time>2015-07-30T10:49:07Z</time>
      </trkpt>
      <trkpt lat="46.09829" lon="6.85165">
        <ele>1032.11</ele>
        <time>2015-07-30T10:50:12Z</time>
      </trkpt>
      <trkpt lat="46.09809" lon="6.85111">
        <ele>1034.52</ele>
        <time>2015-07-30T10:51:17Z</time>
      </trkpt>
      <trkpt lat="46.09785" lon="6.85045">
        <ele>1038.36</ele>
        <time>2015-07-30T10:52:22Z</time>
      </trkpt>
      <trkpt lat="46.09742" lon="6.85017">
        <ele>1041.73</ele>
        <time>2015-07-30T10:53:27Z</time>
      </trkpt>
      <trkpt lat="46.09678" lon="6.85001">
        <ele>1042.69</ele>
        <time>2015-07-30T10:54:32Z</time>
      </trkpt>
      <trkpt lat="46.09649" lon="6.84937">
        <ele>1038.84</ele>
        <time>2015-07-30T10:55:37Z</time>
      </trkpt>
      <trkpt lat="46.09605" lon="6.84885">
        <ele>1036.92</ele>
        <time>2015-07-30T10:56:42Z</time>
      </trkpt>
      <trkpt lat="46.09564" lon="6.84823">
        <ele>1039.8</ele>
        <time>2015-07-30T10:57:47Z</time>
      </trkpt>
      <trkpt lat="46.0945" lon="6.84735">
        <ele>1037.4</ele>
        <time>2015-07-30T10:58:52Z</time>
      </trkpt>
      <trkpt lat="46.09384" lon="6.84694">
        <ele>1036.92</ele>
        <time>2015-07-30T10:59:57Z</time>
      </trkpt>
      <trkpt lat="46.09407" lon="6.84614">
        <ele>1035.48</ele>
        <time>2015-07-30T11:01:02Z</time>
      </trkpt>
      <trkpt lat="46.09468" lon="6.84588">
        <ele>1036.44</ele>
        <time>2015-07-30T11:02:07Z</time>
      </trkpt>
      <trkpt lat="46.09497" lon="6.84582">
        <ele>1036.44</ele>
        <time>2015-07-30T11:02:43Z</time>
      </trkpt>
    </trkseg>
  </trk>
  <trk>
    <name><![CDATA[ACTIVE LOG: 30 JUL 2015 13:54]]></name>
    <trkseg>
      <trkpt lat="46.09482" lon="6.84608">
        <ele>1029.71</ele>
        <time>2015-07-30T11:58:42Z</time>
      </trkpt>
      <trkpt lat="46.09452" lon="6.84593">
        <ele>1032.11</ele>
        <time>2015-07-30T11:59:47Z</time>
      </trkpt>
      <trkpt lat="46.09399" lon="6.84612">
        <ele>1034.52</ele>
        <time>2015-07-30T12:00:52Z</time>
      </trkpt>
      <trkpt lat="46.09348" lon="6.84686">
        <ele>1040.28</ele>
        <time>2015-07-30T12:01:57Z</time>
      </trkpt>
      <trkpt lat="46.09321" lon="6.84653">
        <ele>1020.1</ele>
        <time>2015-07-30T12:03:02Z</time>
      </trkpt>
      <trkpt lat="46.0927" lon="6.84628">
        <ele>1023.94</ele>
        <time>2015-07-30T12:04:07Z</time>
      </trkpt>
      <trkpt lat="46.09222" lon="6.84569">
        <ele>1030.67</ele>
        <time>2015-07-30T12:05:12Z</time>
      </trkpt>
      <trkpt lat="46.09182" lon="6.84472">
        <ele>1035.48</ele>
        <time>2015-07-30T12:06:17Z</time>
      </trkpt>
      <trkpt lat="46.09155" lon="6.8442">
        <ele>1038.36</ele>
        <time>2015-07-30T12:07:22Z</time>
      </trkpt>
      <trkpt lat="46.09111" lon="6.84343">
        <ele>1039.32</ele>
        <time>2015-07-30T12:08:27Z</time>
      </trkpt>
      <trkpt lat="46.09062" lon="6.84286">
        <ele>1040.28</ele>
        <time>2015-07-30T12:09:32Z</time>
      </trkpt>
      <trkpt lat="46.09019" lon="6.84249">
        <ele>1012.41</ele>
        <time>2015-07-30T12:10:36Z</time>
      </trkpt>
      <trkpt lat="46.09008" lon="6.84245">
        <ele>1011.44</ele>
        <time>2015-07-30T12:11:42Z</time>
      </trkpt>
      <trkpt lat="46.08936" lon="6.84238">
        <ele>1013.37</ele>
        <time>2015-07-30T12:12:47Z</time>
      </trkpt>
      <trkpt lat="46.08857" lon="6.84213">
        <ele>1014.33</ele>
        <time>2015-07-30T12:13:52Z</time>
      </trkpt>
      <trkpt lat="46.08817" lon="6.84174">
        <ele>1016.25</ele>
        <time>2015-07-30T12:14:57Z</time>
      </trkpt>
      <trkpt lat="46.08756" lon="6.84169">
        <ele>1017.69</ele>
        <time>2015-07-30T12:16:02Z</time>
      </trkpt>
      <trkpt lat="46.08688" lon="6.84151">
        <ele>1016.25</ele>
        <time>2015-07-30T12:17:07Z</time>
      </trkpt>
      <trkpt lat="46.08605" lon="6.84134">
        <ele>1014.33</ele>
        <time>2015-07-30T12:18:12Z</time>
      </trkpt>
      <trkpt lat="46.0853" lon="6.84146">
        <ele>1007.6</ele>
        <time>2015-07-30T12:19:17Z</time>
      </trkpt>
      <trkpt lat="46.08461" lon="6.84126">
        <ele>1001.83</ele>
        <time>2015-07-30T12:20:22Z</time>
      </trkpt>
      <trkpt lat="46.08436" lon="6.84119">
        <ele>997.51</ele>
        <time>2015-07-30T12:21:27Z</time>
      </trkpt>
      <trkpt lat="46.08374" lon="6.84126">
        <ele>993.66</ele>
        <time>2015-07-30T12:22:32Z</time>
      </trkpt>
      <trkpt lat="46.08315" lon="6.84146">
        <ele>988.85</ele>
        <time>2015-07-30T12:23:37Z</time>
      </trkpt>
      <trkpt lat="46.08265" lon="6.8418">
        <ele>987.41</ele>
        <time>2015-07-30T12:24:42Z</time>
      </trkpt>
      <trkpt lat="46.08216" lon="6.84242">
        <ele>993.66</ele>
        <time>2015-07-30T12:25:47Z</time>
      </trkpt>
      <trkpt lat="46.08161" lon="6.84288">
        <ele>1000.87</ele>
        <time>2015-07-30T12:26:52Z</time>
      </trkpt>
      <trkpt lat="46.08099" lon="6.84342">
        <ele>998.95</ele>
        <time>2015-07-30T12:27:57Z</time>
      </trkpt>
      <trkpt lat="46.08045" lon="6.84392">
        <ele>999.91</ele>
        <time>2015-07-30T12:29:02Z</time>
      </trkpt>
      <trkpt lat="46.07993" lon="6.84467">
        <ele>1006.64</ele>
        <time>2015-07-30T12:30:07Z</time>
      </trkpt>
      <trkpt lat="46.07932" lon="6.84518">
        <ele>1005.68</ele>
        <time>2015-07-30T12:31:12Z</time>
      </trkpt>
      <trkpt lat="46.07868" lon="6.84564">
        <ele>996.06</ele>
        <time>2015-07-30T12:32:17Z</time>
      </trkpt>
      <trkpt lat="46.07841" lon="6.84484">
        <ele>986.93</ele>
        <time>2015-07-30T12:33:22Z</time>
      </trkpt>
      <trkpt lat="46.07838" lon="6.84449">
        <ele>984.53</ele>
        <time>2015-07-30T12:34:27Z</time>
      </trkpt>
      <trkpt lat="46.07796" lon="6.8443">
        <ele>977.32</ele>
        <time>2015-07-30T12:35:32Z</time>
      </trkpt>
      <trkpt lat="46.07756" lon="6.84369">
        <ele>969.63</ele>
        <time>2015-07-30T12:36:37Z</time>
      </trkpt>
      <trkpt lat="46.0773" lon="6.84283">
        <ele>962.42</ele>
        <time>2015-07-30T12:37:42Z</time>
      </trkpt>
      <trkpt lat="46.07732" lon="6.84179">
        <ele>957.61</ele>
        <time>2015-07-30T12:38:47Z</time>
      </trkpt>
      <trkpt lat="46.07725" lon="6.84097">
        <ele>954.73</ele>
        <time>2015-07-30T12:39:52Z</time>
      </trkpt>
      <trkpt lat="46.07727" lon="6.84029">
        <ele>955.69</ele>
        <time>2015-07-30T12:40:57Z</time>
      </trkpt>
      <trkpt lat="46.07735" lon="6.83944">
        <ele>947.52</ele>
        <time>2015-07-30T12:42:02Z</time>
      </trkpt>
      <trkpt lat="46.07765" lon="6.83863">
        <ele>940.79</ele>
        <time>2015-07-30T12:43:07Z</time>
      </trkpt>
      <trkpt lat="46.07746" lon="6.83841">
        <ele>938.38</ele>
        <time>2015-07-30T12:44:12Z</time>
      </trkpt>
      <trkpt lat="46.0776" lon="6.8384">
        <ele>938.38</ele>
        <time>2015-07-30T12:45:17Z</time>
      </trkpt>
      <trkpt lat="46.07803" lon="6.8385">
        <ele>944.63</ele>
        <time>2015-07-30T12:46:22Z</time>
      </trkpt>
      <trkpt lat="46.07827" lon="6.83887">
        <ele>949.44</ele>
        <time>2015-07-30T12:47:27Z</time>
      </trkpt>
      <trkpt lat="46.07837" lon="6.83872">
        <ele>948.48</ele>
        <time>2015-07-30T12:48:32Z</time>
      </trkpt>
      <trkpt lat="46.07839" lon="6.83777">
        <ele>942.71</ele>
        <time>2015-07-30T12:49:37Z</time>
      </trkpt>
      <trkpt lat="46.07867" lon="6.83704">
        <ele>935.5</ele>
        <time>2015-07-30T12:50:42Z</time>
      </trkpt>
      <trkpt lat="46.07839" lon="6.83661">
        <ele>941.75</ele>
        <time>2015-07-30T12:51:47Z</time>
      </trkpt>
      <trkpt lat="46.07841" lon="6.83585">
        <ele>953.28</ele>
        <time>2015-07-30T12:52:52Z</time>
      </trkpt>
      <trkpt lat="46.07883" lon="6.83546">
        <ele>964.82</ele>
        <time>2015-07-30T12:53:57Z</time>
      </trkpt>
      <trkpt lat="46.07932" lon="6.83561">
        <ele>971.07</ele>
        <time>2015-07-30T12:55:02Z</time>
      </trkpt>
      <trkpt lat="46.07919" lon="6.83568">
        <ele>971.55</ele>
        <time>2015-07-30T12:56:07Z</time>
      </trkpt>
      <trkpt lat="46.07919" lon="6.83572">
        <ele>972.03</ele>
        <time>2015-07-30T12:57:12Z</time>
      </trkpt>
      <trkpt lat="46.07921" lon="6.83572">
        <ele>970.59</ele>
        <time>2015-07-30T12:58:17Z</time>
      </trkpt>
      <trkpt lat="46.07885" lon="6.8356">
        <ele>966.74</ele>
        <time>2015-07-30T12:59:22Z</time>
      </trkpt>
      <trkpt lat="46.07833" lon="6.83556">
        <ele>960.98</ele>
        <time>2015-07-30T13:00:27Z</time>
      </trkpt>
      <trkpt lat="46.07783" lon="6.83495">
        <ele>952.8</ele>
        <time>2015-07-30T13:01:32Z</time>
      </trkpt>
      <trkpt lat="46.07725" lon="6.83429">
        <ele>947.04</ele>
        <time>2015-07-30T13:02:37Z</time>
      </trkpt>
      <trkpt lat="46.07691" lon="6.83354">
        <ele>938.38</ele>
        <time>2015-07-30T13:03:42Z</time>
      </trkpt>
      <trkpt lat="46.07653" lon="6.83284">
        <ele>927.81</ele>
        <time>2015-07-30T13:04:47Z</time>
      </trkpt>
      <trkpt lat="46.07634" lon="6.8321">
        <ele>915.31</ele>
        <time>2015-07-30T13:05:52Z</time>
      </trkpt>
      <trkpt lat="46.07565" lon="6.83208">
        <ele>908.1</ele>
        <time>2015-07-30T13:06:57Z</time>
      </trkpt>
      <trkpt lat="46.07537" lon="6.83152">
        <ele>908.58</ele>
        <time>2015-07-30T13:08:02Z</time>
      </trkpt>
      <trkpt lat="46.07537" lon="6.8305">
        <ele>906.66</ele>
        <time>2015-07-30T13:09:07Z</time>
      </trkpt>
      <trkpt lat="46.07529" lon="6.82951">
        <ele>903.3</ele>
        <time>2015-07-30T13:10:12Z</time>
      </trkpt>
      <trkpt lat="46.07503" lon="6.82856">
        <ele>899.93</ele>
        <time>2015-07-30T13:11:17Z</time>
      </trkpt>
      <trkpt lat="46.07469" lon="6.82763">
        <ele>896.09</ele>
        <time>2015-07-30T13:12:22Z</time>
      </trkpt>
      <trkpt lat="46.07459" lon="6.82693">
        <ele>892.72</ele>
        <time>2015-07-30T13:13:27Z</time>
      </trkpt>
      <trkpt lat="46.07445" lon="6.82595">
        <ele>889.36</ele>
        <time>2015-07-30T13:14:32Z</time>
      </trkpt>
      <trkpt lat="46.07399" lon="6.82504">
        <ele>885.99</ele>
        <time>2015-07-30T13:15:37Z</time>
      </trkpt>
      <trkpt lat="46.07354" lon="6.82437">
        <ele>881.67</ele>
        <time>2015-07-30T13:16:42Z</time>
      </trkpt>
      <trkpt lat="46.07346" lon="6.82335">
        <ele>874.94</ele>
        <time>2015-07-30T13:17:47Z</time>
      </trkpt>
      <trkpt lat="46.07356" lon="6.82211">
        <ele>873.5</ele>
        <time>2015-07-30T13:18:52Z</time>
      </trkpt>
      <trkpt lat="46.07363" lon="6.82102">
        <ele>870.13</ele>
        <time>2015-07-30T13:19:57Z</time>
      </trkpt>
      <trkpt lat="46.07244" lon="6.81819">
        <ele>868.21</ele>
        <time>2015-07-30T13:21:02Z</time>
      </trkpt>
      <trkpt lat="46.07135" lon="6.81499">
        <ele>863.88</ele>
        <time>2015-07-30T13:21:23Z</time>
      </trkpt>
    </trkseg>
  </trk>
</gpx>